<?xml version='1.0' encoding='UTF-8'?><gpx version="1.1" creator="JPX - https://github.com/jenetics/jpx" xmlns="http://www.topografix.com/GPX/1/1"><trk><trkseg><trkpt lat="44.7301383" lon="10.8976267"><ele>26.5</ele><time>2026-04-04T14:18:26.358Z</time></trkpt><trkpt lat="44.7302817" lon="10.8974517"><ele>26.0</ele><time>2026-04-04T14:18:27.358Z</time></trkpt><trkpt lat="44.7304983" lon="10.8972267"><ele>26.0</ele><time>2026-04-04T14:18:28.858Z</time></trkpt><trkpt lat="44.7306333" lon="10.8970883"><ele>26.0</ele><time>2026-04-04T14:18:29.858Z</time></trkpt><trkpt lat="44.7307633" lon="10.8969533"><ele>26.0</ele><time>2026-04-04T14:18:30.857Z</time></trkpt><trkpt lat="44.7308967" lon="10.89682"><ele>26.0</ele><time>2026-04-04T14:18:31.858Z</time></trkpt><trkpt lat="44.7310317" lon="10.8966833"><ele>26.0</ele><time>2026-04-04T14:18:32.858Z</time></trkpt><trkpt lat="44.7311767" lon="10.8965483"><ele>26.0</ele><time>2026-04-04T14:18:33.858Z</time></trkpt><trkpt lat="44.7313167" lon="10.8964083"><ele>26.0</ele><time>2026-04-04T14:18:34.858Z</time></trkpt><trkpt lat="44.7314683" lon="10.896265"><ele>26.0</ele><time>2026-04-04T14:18:35.858Z</time></trkpt><trkpt lat="44.7316183" lon="10.8961117"><ele>26.0</ele><time>2026-04-04T14:18:36.858Z</time></trkpt><trkpt lat="44.7317767" lon="10.8959517"><ele>26.0</ele><time>2026-04-04T14:18:37.858Z</time></trkpt><trkpt lat="44.731935" lon="10.8957967"><ele>26.0</ele><time>2026-04-04T14:18:38.857Z</time></trkpt><trkpt lat="44.7320933" lon="10.8956433"><ele>26.0</ele><time>2026-04-04T14:18:39.858Z</time></trkpt><trkpt lat="44.7322433" lon="10.895505"><ele>26.0</ele><time>2026-04-04T14:18:40.857Z</time></trkpt><trkpt lat="44.732385" lon="10.895375"><ele>26.0</ele><time>2026-04-04T14:18:41.858Z</time></trkpt><trkpt lat="44.732525" lon="10.895245"><ele>26.0</ele><time>2026-04-04T14:18:42.858Z</time></trkpt><trkpt lat="44.7326667" lon="10.89511"><ele>26.666666666666664</ele><time>2026-04-04T14:18:43.858Z</time></trkpt><trkpt lat="44.7328133" lon="10.8949783"><ele>27.333333333333336</ele><time>2026-04-04T14:18:44.857Z</time></trkpt><trkpt lat="44.7329567" lon="10.8948417"><ele>28.0</ele><time>2026-04-04T14:18:45.858Z</time></trkpt><trkpt lat="44.7331033" lon="10.8947183"><ele>28.0</ele><time>2026-04-04T14:18:46.858Z</time></trkpt><trkpt lat="44.73324" lon="10.8945867"><ele>28.0</ele><time>2026-04-04T14:18:47.857Z</time></trkpt><trkpt lat="44.73338" lon="10.8944633"><ele>28.0</ele><time>2026-04-04T14:18:48.858Z</time></trkpt><trkpt lat="44.7335283" lon="10.89433"><ele>27.333333333333336</ele><time>2026-04-04T14:18:49.858Z</time></trkpt><trkpt lat="44.73367" lon="10.8941933"><ele>26.666666666666664</ele><time>2026-04-04T14:18:50.857Z</time></trkpt><trkpt lat="44.7338133" lon="10.894055"><ele>26.0</ele><time>2026-04-04T14:18:51.858Z</time></trkpt><trkpt lat="44.7339617" lon="10.8939267"><ele>26.0</ele><time>2026-04-04T14:18:52.858Z</time></trkpt><trkpt lat="44.734105" lon="10.8937883"><ele>26.0</ele><time>2026-04-04T14:18:53.858Z</time></trkpt><trkpt lat="44.7342417" lon="10.8936517"><ele>26.0</ele><time>2026-04-04T14:18:54.858Z</time></trkpt><trkpt lat="44.734375" lon="10.8935217"><ele>26.666666666666664</ele><time>2026-04-04T14:18:55.858Z</time></trkpt><trkpt lat="44.7345083" lon="10.8933917"><ele>27.333333333333336</ele><time>2026-04-04T14:18:56.858Z</time></trkpt><trkpt lat="44.73464" lon="10.8932517"><ele>28.0</ele><time>2026-04-04T14:18:57.858Z</time></trkpt><trkpt lat="44.734775" lon="10.89312"><ele>28.0</ele><time>2026-04-04T14:18:58.858Z</time></trkpt><trkpt lat="44.7349133" lon="10.8929967"><ele>28.0</ele><time>2026-04-04T14:18:59.858Z</time></trkpt><trkpt lat="44.73506" lon="10.8928583"><ele>28.0</ele><time>2026-04-04T14:19:00.858Z</time></trkpt><trkpt lat="44.735215" lon="10.8926867"><ele>27.666666666666668</ele><time>2026-04-04T14:19:01.858Z</time></trkpt><trkpt lat="44.73539" lon="10.892505"><ele>27.333333333333336</ele><time>2026-04-04T14:19:02.858Z</time></trkpt><trkpt lat="44.73557" lon="10.8923467"><ele>27.0</ele><time>2026-04-04T14:19:03.858Z</time></trkpt><trkpt lat="44.7357433" lon="10.8921983"><ele>27.0</ele><time>2026-04-04T14:19:04.858Z</time></trkpt><trkpt lat="44.7359083" lon="10.8920417"><ele>27.0</ele><time>2026-04-04T14:19:05.858Z</time></trkpt><trkpt lat="44.73607" lon="10.8918883"><ele>27.0</ele><time>2026-04-04T14:19:06.858Z</time></trkpt><trkpt lat="44.7362317" lon="10.891735"><ele>27.333333333333336</ele><time>2026-04-04T14:19:07.858Z</time></trkpt><trkpt lat="44.7363883" lon="10.8915917"><ele>27.666666666666668</ele><time>2026-04-04T14:19:08.858Z</time></trkpt><trkpt lat="44.7365467" lon="10.8914483"><ele>28.0</ele><time>2026-04-04T14:19:09.858Z</time></trkpt><trkpt lat="44.736705" lon="10.891295"><ele>28.0</ele><time>2026-04-04T14:19:10.858Z</time></trkpt><trkpt lat="44.7368583" lon="10.8911483"><ele>28.0</ele><time>2026-04-04T14:19:11.857Z</time></trkpt><trkpt lat="44.7370183" lon="10.890995"><ele>28.0</ele><time>2026-04-04T14:19:12.858Z</time></trkpt><trkpt lat="44.73718" lon="10.890845"><ele>27.0</ele><time>2026-04-04T14:19:13.858Z</time></trkpt><trkpt lat="44.7373383" lon="10.8906967"><ele>26.0</ele><time>2026-04-04T14:19:14.858Z</time></trkpt><trkpt lat="44.737495" lon="10.890535"><ele>25.0</ele><time>2026-04-04T14:19:15.858Z</time></trkpt><trkpt lat="44.7376483" lon="10.8903733"><ele>25.333333333333336</ele><time>2026-04-04T14:19:16.858Z</time></trkpt><trkpt lat="44.7378167" lon="10.8902217"><ele>25.666666666666664</ele><time>2026-04-04T14:19:17.857Z</time></trkpt><trkpt lat="44.73798" lon="10.8900633"><ele>26.0</ele><time>2026-04-04T14:19:18.858Z</time></trkpt><trkpt lat="44.7381383" lon="10.8899017"><ele>25.666666666666664</ele><time>2026-04-04T14:19:19.858Z</time></trkpt><trkpt lat="44.7383033" lon="10.889745"><ele>25.333333333333336</ele><time>2026-04-04T14:19:20.858Z</time></trkpt><trkpt lat="44.73847" lon="10.8895917"><ele>25.0</ele><time>2026-04-04T14:19:21.858Z</time></trkpt><trkpt lat="44.7386367" lon="10.88943"><ele>25.0</ele><time>2026-04-04T14:19:22.858Z</time></trkpt><trkpt lat="44.7388083" lon="10.889275"><ele>25.0</ele><time>2026-04-04T14:19:23.857Z</time></trkpt><trkpt lat="44.7389733" lon="10.8891183"><ele>25.0</ele><time>2026-04-04T14:19:24.857Z</time></trkpt><trkpt lat="44.7391333" lon="10.8889667"><ele>25.333333333333336</ele><time>2026-04-04T14:19:25.858Z</time></trkpt><trkpt lat="44.739295" lon="10.8888133"><ele>25.666666666666664</ele><time>2026-04-04T14:19:26.858Z</time></trkpt><trkpt lat="44.73946" lon="10.8886667"><ele>26.0</ele><time>2026-04-04T14:19:27.858Z</time></trkpt><trkpt lat="44.7396217" lon="10.8885117"><ele>27.0</ele><time>2026-04-04T14:19:28.857Z</time></trkpt><trkpt lat="44.739795" lon="10.888365"><ele>28.0</ele><time>2026-04-04T14:19:29.857Z</time></trkpt><trkpt lat="44.7399483" lon="10.8882117"><ele>29.0</ele><time>2026-04-04T14:19:30.857Z</time></trkpt><trkpt lat="44.7401017" lon="10.8880617"><ele>28.333333333333332</ele><time>2026-04-04T14:19:31.858Z</time></trkpt><trkpt lat="44.7402567" lon="10.887905"><ele>27.666666666666664</ele><time>2026-04-04T14:19:32.858Z</time></trkpt><trkpt lat="44.7404217" lon="10.8877533"><ele>27.0</ele><time>2026-04-04T14:19:33.858Z</time></trkpt><trkpt lat="44.740575" lon="10.8876033"><ele>27.0</ele><time>2026-04-04T14:19:34.858Z</time></trkpt><trkpt lat="44.74074" lon="10.887445"><ele>27.0</ele><time>2026-04-04T14:19:35.857Z</time></trkpt><trkpt lat="44.7409017" lon="10.8872833"><ele>27.0</ele><time>2026-04-04T14:19:36.858Z</time></trkpt><trkpt lat="44.7410717" lon="10.88712"><ele>27.0</ele><time>2026-04-04T14:19:37.857Z</time></trkpt><trkpt lat="44.7412517" lon="10.8869517"><ele>27.0</ele><time>2026-04-04T14:19:38.858Z</time></trkpt><trkpt lat="44.741425" lon="10.8867817"><ele>27.0</ele><time>2026-04-04T14:19:39.858Z</time></trkpt><trkpt lat="44.7416033" lon="10.8866017"><ele>27.0</ele><time>2026-04-04T14:19:40.858Z</time></trkpt><trkpt lat="44.7417767" lon="10.8864283"><ele>27.0</ele><time>2026-04-04T14:19:41.858Z</time></trkpt><trkpt lat="44.7419483" lon="10.886255"><ele>27.0</ele><time>2026-04-04T14:19:42.857Z</time></trkpt><trkpt lat="44.742115" lon="10.8860967"><ele>27.0</ele><time>2026-04-04T14:19:43.857Z</time></trkpt><trkpt lat="44.7422667" lon="10.885945"><ele>27.0</ele><time>2026-04-04T14:19:44.858Z</time></trkpt><trkpt lat="44.7424117" lon="10.8858083"><ele>27.0</ele><time>2026-04-04T14:19:45.858Z</time></trkpt><trkpt lat="44.7425517" lon="10.88568"><ele>27.0</ele><time>2026-04-04T14:19:46.858Z</time></trkpt><trkpt lat="44.742685" lon="10.8855517"><ele>27.0</ele><time>2026-04-04T14:19:47.857Z</time></trkpt><trkpt lat="44.742825" lon="10.8854233"><ele>27.0</ele><time>2026-04-04T14:19:48.857Z</time></trkpt><trkpt lat="44.7429583" lon="10.8852917"><ele>27.333333333333336</ele><time>2026-04-04T14:19:49.858Z</time></trkpt><trkpt lat="44.7430967" lon="10.8851617"><ele>27.666666666666668</ele><time>2026-04-04T14:19:50.858Z</time></trkpt><trkpt lat="44.7432383" lon="10.8850267"><ele>28.0</ele><time>2026-04-04T14:19:51.858Z</time></trkpt><trkpt lat="44.7433883" lon="10.8848833"><ele>28.0</ele><time>2026-04-04T14:19:52.858Z</time></trkpt><trkpt lat="44.7435383" lon="10.8847383"><ele>28.0</ele><time>2026-04-04T14:19:53.858Z</time></trkpt><trkpt lat="44.74369" lon="10.8845867"><ele>28.0</ele><time>2026-04-04T14:19:54.858Z</time></trkpt><trkpt lat="44.7438417" lon="10.8844417"><ele>27.333333333333336</ele><time>2026-04-04T14:19:55.858Z</time></trkpt><trkpt lat="44.743995" lon="10.8842917"><ele>26.666666666666664</ele><time>2026-04-04T14:19:56.858Z</time></trkpt><trkpt lat="44.7441433" lon="10.8841367"><ele>26.0</ele><time>2026-04-04T14:19:57.858Z</time></trkpt><trkpt lat="44.7442917" lon="10.8839883"><ele>25.666666666666664</ele><time>2026-04-04T14:19:58.858Z</time></trkpt><trkpt lat="44.7444517" lon="10.883835"><ele>25.333333333333336</ele><time>2026-04-04T14:19:59.857Z</time></trkpt><trkpt lat="44.7446133" lon="10.8836767"><ele>25.0</ele><time>2026-04-04T14:20:00.858Z</time></trkpt><trkpt lat="44.7447733" lon="10.883525"><ele>25.333333333333336</ele><time>2026-04-04T14:20:01.858Z</time></trkpt><trkpt lat="44.7449217" lon="10.8833767"><ele>25.666666666666664</ele><time>2026-04-04T14:20:02.857Z</time></trkpt><trkpt lat="44.7450683" lon="10.8832317"><ele>26.0</ele><time>2026-04-04T14:20:03.858Z</time></trkpt><trkpt lat="44.7452117" lon="10.8830933"><ele>25.666666666666664</ele><time>2026-04-04T14:20:04.857Z</time></trkpt><trkpt lat="44.7453533" lon="10.88296"><ele>25.333333333333336</ele><time>2026-04-04T14:20:05.858Z</time></trkpt><trkpt lat="44.7454883" lon="10.88283"><ele>25.0</ele><time>2026-04-04T14:20:06.858Z</time></trkpt><trkpt lat="44.7456233" lon="10.8827033"><ele>25.0</ele><time>2026-04-04T14:20:07.858Z</time></trkpt><trkpt lat="44.7457433" lon="10.8825817"><ele>25.0</ele><time>2026-04-04T14:20:08.858Z</time></trkpt><trkpt lat="44.74586" lon="10.88246"><ele>25.0</ele><time>2026-04-04T14:20:09.857Z</time></trkpt><trkpt lat="44.74598" lon="10.8823367"><ele>25.0</ele><time>2026-04-04T14:20:10.858Z</time></trkpt><trkpt lat="44.7460983" lon="10.8822167"><ele>24.666666666666668</ele><time>2026-04-04T14:20:11.857Z</time></trkpt><trkpt lat="44.7462233" lon="10.8820967"><ele>24.333333333333336</ele><time>2026-04-04T14:20:12.857Z</time></trkpt><trkpt lat="44.74635" lon="10.88198"><ele>24.0</ele><time>2026-04-04T14:20:13.858Z</time></trkpt><trkpt lat="44.7464717" lon="10.8818567"><ele>25.333333333333336</ele><time>2026-04-04T14:20:14.858Z</time></trkpt><trkpt lat="44.7465983" lon="10.8817333"><ele>26.666666666666668</ele><time>2026-04-04T14:20:15.858Z</time></trkpt><trkpt lat="44.74672" lon="10.881605"><ele>28.0</ele><time>2026-04-04T14:20:16.857Z</time></trkpt><trkpt lat="44.7468467" lon="10.8814817"><ele>27.666666666666668</ele><time>2026-04-04T14:20:17.857Z</time></trkpt><trkpt lat="44.7469683" lon="10.881355"><ele>27.333333333333336</ele><time>2026-04-04T14:20:18.857Z</time></trkpt><trkpt lat="44.7470883" lon="10.8812317"><ele>27.0</ele><time>2026-04-04T14:20:19.857Z</time></trkpt><trkpt lat="44.7472167" lon="10.8811133"><ele>27.0</ele><time>2026-04-04T14:20:20.858Z</time></trkpt><trkpt lat="44.747345" lon="10.880985"><ele>27.0</ele><time>2026-04-04T14:20:21.858Z</time></trkpt><trkpt lat="44.747475" lon="10.8808533"><ele>27.0</ele><time>2026-04-04T14:20:22.857Z</time></trkpt><trkpt lat="44.7476133" lon="10.8807183"><ele>26.666666666666664</ele><time>2026-04-04T14:20:23.858Z</time></trkpt><trkpt lat="44.747745" lon="10.8805867"><ele>26.333333333333332</ele><time>2026-04-04T14:20:24.858Z</time></trkpt><trkpt lat="44.74788" lon="10.8804567"><ele>26.0</ele><time>2026-04-04T14:20:25.858Z</time></trkpt><trkpt lat="44.7480133" lon="10.8803217"><ele>26.0</ele><time>2026-04-04T14:20:26.857Z</time></trkpt><trkpt lat="44.748145" lon="10.8801917"><ele>26.0</ele><time>2026-04-04T14:20:27.858Z</time></trkpt><trkpt lat="44.7482867" lon="10.8800583"><ele>26.0</ele><time>2026-04-04T14:20:28.857Z</time></trkpt><trkpt lat="44.7484167" lon="10.87993"><ele>26.666666666666664</ele><time>2026-04-04T14:20:29.858Z</time></trkpt><trkpt lat="44.74854" lon="10.8797967"><ele>27.333333333333336</ele><time>2026-04-04T14:20:30.858Z</time></trkpt><trkpt lat="44.7486733" lon="10.8796733"><ele>28.0</ele><time>2026-04-04T14:20:31.858Z</time></trkpt><trkpt lat="44.7488" lon="10.8795417"><ele>28.333333333333336</ele><time>2026-04-04T14:20:32.857Z</time></trkpt><trkpt lat="44.7489267" lon="10.8794183"><ele>28.666666666666664</ele><time>2026-04-04T14:20:33.858Z</time></trkpt><trkpt lat="44.7490533" lon="10.8792933"><ele>29.0</ele><time>2026-04-04T14:20:34.858Z</time></trkpt><trkpt lat="44.74918" lon="10.879175"><ele>28.0</ele><time>2026-04-04T14:20:35.858Z</time></trkpt><trkpt lat="44.7493033" lon="10.8790417"><ele>27.0</ele><time>2026-04-04T14:20:36.858Z</time></trkpt><trkpt lat="44.7494233" lon="10.87892"><ele>26.0</ele><time>2026-04-04T14:20:37.857Z</time></trkpt><trkpt lat="44.74955" lon="10.8787933"><ele>26.0</ele><time>2026-04-04T14:20:38.858Z</time></trkpt><trkpt lat="44.7496733" lon="10.8786717"><ele>26.0</ele><time>2026-04-04T14:20:39.857Z</time></trkpt><trkpt lat="44.7497983" lon="10.8785567"><ele>26.0</ele><time>2026-04-04T14:20:40.858Z</time></trkpt><trkpt lat="44.749915" lon="10.87844"><ele>26.0</ele><time>2026-04-04T14:20:41.858Z</time></trkpt><trkpt lat="44.7500283" lon="10.8783117"><ele>26.0</ele><time>2026-04-04T14:20:42.858Z</time></trkpt><trkpt lat="44.7501467" lon="10.8781967"><ele>26.0</ele><time>2026-04-04T14:20:43.858Z</time></trkpt><trkpt lat="44.7502567" lon="10.8780883"><ele>26.0</ele><time>2026-04-04T14:20:44.858Z</time></trkpt><trkpt lat="44.7503717" lon="10.8779767"><ele>26.0</ele><time>2026-04-04T14:20:45.858Z</time></trkpt><trkpt lat="44.7504833" lon="10.877855"><ele>25.75</ele><time>2026-04-04T14:20:46.857Z</time></trkpt><trkpt lat="44.7505967" lon="10.8777433"><ele>25.5</ele><time>2026-04-04T14:20:47.857Z</time></trkpt><trkpt lat="44.75071" lon="10.87763"><ele>25.25</ele><time>2026-04-04T14:20:48.858Z</time></trkpt><trkpt lat="44.7508317" lon="10.8775133"><ele>25.0</ele><time>2026-04-04T14:20:49.857Z</time></trkpt><trkpt lat="44.7509533" lon="10.8773833"><ele>24.5</ele><time>2026-04-04T14:20:50.858Z</time></trkpt><trkpt lat="44.7510733" lon="10.8772617"><ele>24.0</ele><time>2026-04-04T14:20:51.857Z</time></trkpt><trkpt lat="44.75119" lon="10.8771533"><ele>23.5</ele><time>2026-04-04T14:20:52.858Z</time></trkpt><trkpt lat="44.7513067" lon="10.87704"><ele>23.0</ele><time>2026-04-04T14:20:53.857Z</time></trkpt><trkpt lat="44.751425" lon="10.87692"><ele>23.0</ele><time>2026-04-04T14:20:54.858Z</time></trkpt><trkpt lat="44.7515333" lon="10.8768017"><ele>23.0</ele><time>2026-04-04T14:20:55.858Z</time></trkpt><trkpt lat="44.75165" lon="10.8766917"><ele>23.0</ele><time>2026-04-04T14:20:56.858Z</time></trkpt><trkpt lat="44.751765" lon="10.8765783"><ele>23.0</ele><time>2026-04-04T14:20:57.858Z</time></trkpt><trkpt lat="44.75188" lon="10.8764667"><ele>23.5</ele><time>2026-04-04T14:20:58.857Z</time></trkpt><trkpt lat="44.7519967" lon="10.8763517"><ele>24.0</ele><time>2026-04-04T14:20:59.858Z</time></trkpt><trkpt lat="44.75211" lon="10.87624"><ele>24.5</ele><time>2026-04-04T14:21:00.858Z</time></trkpt><trkpt lat="44.75222" lon="10.87613"><ele>25.0</ele><time>2026-04-04T14:21:01.858Z</time></trkpt><trkpt lat="44.7523283" lon="10.8760167"><ele>25.0</ele><time>2026-04-04T14:21:02.858Z</time></trkpt><trkpt lat="44.7524383" lon="10.8759133"><ele>25.0</ele><time>2026-04-04T14:21:03.858Z</time></trkpt><trkpt lat="44.75254" lon="10.8758083"><ele>25.0</ele><time>2026-04-04T14:21:04.858Z</time></trkpt><trkpt lat="44.7526433" lon="10.8757033"><ele>25.0</ele><time>2026-04-04T14:21:05.858Z</time></trkpt><trkpt lat="44.7527517" lon="10.8755967"><ele>25.0</ele><time>2026-04-04T14:21:06.858Z</time></trkpt><trkpt lat="44.7528583" lon="10.875485"><ele>25.0</ele><time>2026-04-04T14:21:07.858Z</time></trkpt><trkpt lat="44.7529667" lon="10.875375"><ele>25.0</ele><time>2026-04-04T14:21:08.858Z</time></trkpt><trkpt lat="44.7530717" lon="10.8752717"><ele>25.0</ele><time>2026-04-04T14:21:09.858Z</time></trkpt><trkpt lat="44.7531783" lon="10.8751667"><ele>25.5</ele><time>2026-04-04T14:21:10.858Z</time></trkpt><trkpt lat="44.753285" lon="10.8750583"><ele>26.0</ele><time>2026-04-04T14:21:11.858Z</time></trkpt><trkpt lat="44.7533867" lon="10.8749567"><ele>26.5</ele><time>2026-04-04T14:21:12.858Z</time></trkpt><trkpt lat="44.75349" lon="10.8748517"><ele>27.0</ele><time>2026-04-04T14:21:13.858Z</time></trkpt><trkpt lat="44.7535933" lon="10.87475"><ele>27.0</ele><time>2026-04-04T14:21:14.858Z</time></trkpt><trkpt lat="44.753695" lon="10.8746533"><ele>27.0</ele><time>2026-04-04T14:21:15.857Z</time></trkpt><trkpt lat="44.7537917" lon="10.8745533"><ele>27.0</ele><time>2026-04-04T14:21:16.857Z</time></trkpt><trkpt lat="44.7538867" lon="10.874455"><ele>27.0</ele><time>2026-04-04T14:21:17.858Z</time></trkpt><trkpt lat="44.7539783" lon="10.8743633"><ele>27.0</ele><time>2026-04-04T14:21:18.857Z</time></trkpt><trkpt lat="44.754075" lon="10.874265"><ele>27.0</ele><time>2026-04-04T14:21:19.858Z</time></trkpt><trkpt lat="44.7541783" lon="10.87416"><ele>27.0</ele><time>2026-04-04T14:21:20.858Z</time></trkpt><trkpt lat="44.754285" lon="10.8740583"><ele>27.0</ele><time>2026-04-04T14:21:21.857Z</time></trkpt><trkpt lat="44.7543917" lon="10.8739483"><ele>27.0</ele><time>2026-04-04T14:21:22.858Z</time></trkpt><trkpt lat="44.7545033" lon="10.873835"><ele>27.0</ele><time>2026-04-04T14:21:23.858Z</time></trkpt><trkpt lat="44.7546217" lon="10.873715"><ele>27.0</ele><time>2026-04-04T14:21:24.858Z</time></trkpt><trkpt lat="44.7547483" lon="10.873585"><ele>27.0</ele><time>2026-04-04T14:21:25.857Z</time></trkpt><trkpt lat="44.7548783" lon="10.8734467"><ele>27.0</ele><time>2026-04-04T14:21:26.858Z</time></trkpt><trkpt lat="44.7550017" lon="10.8733"><ele>27.0</ele><time>2026-04-04T14:21:27.857Z</time></trkpt><trkpt lat="44.75512" lon="10.8731433"><ele>27.0</ele><time>2026-04-04T14:21:28.858Z</time></trkpt><trkpt lat="44.75523" lon="10.87299"><ele>27.0</ele><time>2026-04-04T14:21:29.858Z</time></trkpt><trkpt lat="44.755345" lon="10.8728283"><ele>27.0</ele><time>2026-04-04T14:21:30.858Z</time></trkpt><trkpt lat="44.755465" lon="10.8726633"><ele>27.0</ele><time>2026-04-04T14:21:31.857Z</time></trkpt><trkpt lat="44.7555883" lon="10.8724933"><ele>26.666666666666664</ele><time>2026-04-04T14:21:32.857Z</time></trkpt><trkpt lat="44.7557117" lon="10.8723267"><ele>26.333333333333332</ele><time>2026-04-04T14:21:33.858Z</time></trkpt><trkpt lat="44.7558317" lon="10.8721567"><ele>26.0</ele><time>2026-04-04T14:21:34.858Z</time></trkpt><trkpt lat="44.7559567" lon="10.8719933"><ele>26.666666666666664</ele><time>2026-04-04T14:21:35.857Z</time></trkpt><trkpt lat="44.7560917" lon="10.871835"><ele>27.333333333333336</ele><time>2026-04-04T14:21:36.858Z</time></trkpt><trkpt lat="44.7562317" lon="10.87169"><ele>28.0</ele><time>2026-04-04T14:21:37.858Z</time></trkpt><trkpt lat="44.7563717" lon="10.8715517"><ele>28.0</ele><time>2026-04-04T14:21:38.858Z</time></trkpt><trkpt lat="44.7565133" lon="10.8714133"><ele>28.0</ele><time>2026-04-04T14:21:39.858Z</time></trkpt><trkpt lat="44.7566617" lon="10.8712783"><ele>28.0</ele><time>2026-04-04T14:21:40.858Z</time></trkpt><trkpt lat="44.756815" lon="10.871155"><ele>28.0</ele><time>2026-04-04T14:21:41.858Z</time></trkpt><trkpt lat="44.7569783" lon="10.87103"><ele>28.0</ele><time>2026-04-04T14:21:42.858Z</time></trkpt><trkpt lat="44.7571417" lon="10.8709017"><ele>28.0</ele><time>2026-04-04T14:21:43.858Z</time></trkpt><trkpt lat="44.7573067" lon="10.8707767"><ele>28.0</ele><time>2026-04-04T14:21:44.858Z</time></trkpt><trkpt lat="44.757465" lon="10.8706467"><ele>28.0</ele><time>2026-04-04T14:21:45.857Z</time></trkpt><trkpt lat="44.7576217" lon="10.8705233"><ele>28.0</ele><time>2026-04-04T14:21:46.858Z</time></trkpt><trkpt lat="44.7577767" lon="10.8704067"><ele>28.0</ele><time>2026-04-04T14:21:47.858Z</time></trkpt><trkpt lat="44.75793" lon="10.870285"><ele>28.0</ele><time>2026-04-04T14:21:48.858Z</time></trkpt><trkpt lat="44.7580867" lon="10.8701667"><ele>28.0</ele><time>2026-04-04T14:21:49.858Z</time></trkpt><trkpt lat="44.758235" lon="10.8700533"><ele>27.333333333333336</ele><time>2026-04-04T14:21:50.858Z</time></trkpt><trkpt lat="44.7583733" lon="10.8699483"><ele>26.666666666666664</ele><time>2026-04-04T14:21:51.858Z</time></trkpt><trkpt lat="44.7585117" lon="10.8698433"><ele>26.0</ele><time>2026-04-04T14:21:52.858Z</time></trkpt><trkpt lat="44.75864" lon="10.86974"><ele>26.0</ele><time>2026-04-04T14:21:53.857Z</time></trkpt><trkpt lat="44.7587567" lon="10.8696533"><ele>26.0</ele><time>2026-04-04T14:21:54.857Z</time></trkpt><trkpt lat="44.7588633" lon="10.869575"><ele>26.0</ele><time>2026-04-04T14:21:55.857Z</time></trkpt><trkpt lat="44.75896" lon="10.8695"><ele>26.0</ele><time>2026-04-04T14:21:56.858Z</time></trkpt><trkpt lat="44.7590517" lon="10.8694317"><ele>26.0</ele><time>2026-04-04T14:21:57.857Z</time></trkpt><trkpt lat="44.759135" lon="10.8693633"><ele>26.0</ele><time>2026-04-04T14:21:58.857Z</time></trkpt><trkpt lat="44.7592183" lon="10.8693067"><ele>26.0</ele><time>2026-04-04T14:21:59.857Z</time></trkpt><trkpt lat="44.7593" lon="10.86926"><ele>26.0</ele><time>2026-04-04T14:22:00.858Z</time></trkpt><trkpt lat="44.7593817" lon="10.8692383"><ele>26.0</ele><time>2026-04-04T14:22:01.857Z</time></trkpt><trkpt lat="44.759485" lon="10.869245"><ele>26.200000000000003</ele><time>2026-04-04T14:22:02.857Z</time></trkpt><trkpt lat="44.7595933" lon="10.8692433"><ele>26.400000000000002</ele><time>2026-04-04T14:22:03.858Z</time></trkpt><trkpt lat="44.7596867" lon="10.869225"><ele>26.6</ele><time>2026-04-04T14:22:04.858Z</time></trkpt><trkpt lat="44.75977" lon="10.86917"><ele>26.8</ele><time>2026-04-04T14:22:05.858Z</time></trkpt><trkpt lat="44.7598367" lon="10.8690833"><ele>27.0</ele><time>2026-04-04T14:22:06.858Z</time></trkpt><trkpt lat="44.75989" lon="10.8689617"><ele>27.0</ele><time>2026-04-04T14:22:07.857Z</time></trkpt><trkpt lat="44.7599183" lon="10.8688217"><ele>27.000000000000004</ele><time>2026-04-04T14:22:08.857Z</time></trkpt><trkpt lat="44.7599133" lon="10.8686667"><ele>27.000000000000004</ele><time>2026-04-04T14:22:09.858Z</time></trkpt><trkpt lat="44.7598967" lon="10.8685117"><ele>27.0</ele><time>2026-04-04T14:22:10.858Z</time></trkpt><trkpt lat="44.7598933" lon="10.8683667"><ele>27.0</ele><time>2026-04-04T14:22:11.858Z</time></trkpt><trkpt lat="44.7599067" lon="10.8682267"><ele>27.25</ele><time>2026-04-04T14:22:12.858Z</time></trkpt><trkpt lat="44.7599433" lon="10.8680667"><ele>27.5</ele><time>2026-04-04T14:22:13.858Z</time></trkpt><trkpt lat="44.7599767" lon="10.8678967"><ele>27.75</ele><time>2026-04-04T14:22:14.858Z</time></trkpt><trkpt lat="44.7600183" lon="10.86771"><ele>28.0</ele><time>2026-04-04T14:22:15.858Z</time></trkpt><trkpt lat="44.76007" lon="10.8675067"><ele>28.0</ele><time>2026-04-04T14:22:16.858Z</time></trkpt><trkpt lat="44.7601167" lon="10.867295"><ele>28.0</ele><time>2026-04-04T14:22:17.858Z</time></trkpt><trkpt lat="44.76017" lon="10.867085"><ele>28.0</ele><time>2026-04-04T14:22:18.858Z</time></trkpt><trkpt lat="44.7602217" lon="10.8668667"><ele>27.666666666666668</ele><time>2026-04-04T14:22:19.858Z</time></trkpt><trkpt lat="44.7602683" lon="10.8666517"><ele>27.333333333333336</ele><time>2026-04-04T14:22:20.857Z</time></trkpt><trkpt lat="44.7603117" lon="10.8664417"><ele>27.0</ele><time>2026-04-04T14:22:21.858Z</time></trkpt><trkpt lat="44.7603633" lon="10.8662183"><ele>27.0</ele><time>2026-04-04T14:22:22.857Z</time></trkpt><trkpt lat="44.7604067" lon="10.8659967"><ele>27.0</ele><time>2026-04-04T14:22:23.858Z</time></trkpt><trkpt lat="44.7604617" lon="10.86578"><ele>27.0</ele><time>2026-04-04T14:22:24.858Z</time></trkpt><trkpt lat="44.7605217" lon="10.86555"><ele>27.0</ele><time>2026-04-04T14:22:25.857Z</time></trkpt><trkpt lat="44.7605817" lon="10.8653167"><ele>27.0</ele><time>2026-04-04T14:22:26.858Z</time></trkpt><trkpt lat="44.7606433" lon="10.8650917"><ele>27.0</ele><time>2026-04-04T14:22:27.857Z</time></trkpt><trkpt lat="44.760705" lon="10.8648733"><ele>27.0</ele><time>2026-04-04T14:22:28.856Z</time></trkpt><trkpt lat="44.7607717" lon="10.86465"><ele>27.0</ele><time>2026-04-04T14:22:29.857Z</time></trkpt><trkpt lat="44.7608383" lon="10.8644317"><ele>27.0</ele><time>2026-04-04T14:22:30.857Z</time></trkpt><trkpt lat="44.760905" lon="10.8642217"><ele>27.0</ele><time>2026-04-04T14:22:31.857Z</time></trkpt><trkpt lat="44.760975" lon="10.8640317"><ele>27.0</ele><time>2026-04-04T14:22:32.857Z</time></trkpt><trkpt lat="44.7610467" lon="10.8638483"><ele>27.0</ele><time>2026-04-04T14:22:33.856Z</time></trkpt><trkpt lat="44.7611117" lon="10.8636667"><ele>27.0</ele><time>2026-04-04T14:22:34.856Z</time></trkpt><trkpt lat="44.761175" lon="10.8634917"><ele>27.0</ele><time>2026-04-04T14:22:35.857Z</time></trkpt><trkpt lat="44.761235" lon="10.8633117"><ele>27.0</ele><time>2026-04-04T14:22:36.857Z</time></trkpt><trkpt lat="44.7612983" lon="10.863125"><ele>27.0</ele><time>2026-04-04T14:22:37.857Z</time></trkpt><trkpt lat="44.7613583" lon="10.8629333"><ele>27.0</ele><time>2026-04-04T14:22:38.856Z</time></trkpt><trkpt lat="44.7614217" lon="10.86275"><ele>27.75</ele><time>2026-04-04T14:22:39.857Z</time></trkpt><trkpt lat="44.761485" lon="10.8625817"><ele>28.5</ele><time>2026-04-04T14:22:40.857Z</time></trkpt><trkpt lat="44.7615433" lon="10.8624217"><ele>29.25</ele><time>2026-04-04T14:22:41.857Z</time></trkpt><trkpt lat="44.7616033" lon="10.8622633"><ele>30.0</ele><time>2026-04-04T14:22:42.857Z</time></trkpt><trkpt lat="44.7616633" lon="10.8621067"><ele>30.0</ele><time>2026-04-04T14:22:43.857Z</time></trkpt><trkpt lat="44.7617183" lon="10.8619533"><ele>30.0</ele><time>2026-04-04T14:22:44.857Z</time></trkpt><trkpt lat="44.7617683" lon="10.8618017"><ele>30.0</ele><time>2026-04-04T14:22:45.857Z</time></trkpt><trkpt lat="44.76182" lon="10.86166"><ele>30.0</ele><time>2026-04-04T14:22:46.857Z</time></trkpt><trkpt lat="44.7618733" lon="10.86151"><ele>29.5</ele><time>2026-04-04T14:22:47.857Z</time></trkpt><trkpt lat="44.7619233" lon="10.861355"><ele>29.0</ele><time>2026-04-04T14:22:48.856Z</time></trkpt><trkpt lat="44.7619767" lon="10.8611867"><ele>28.5</ele><time>2026-04-04T14:22:49.857Z</time></trkpt><trkpt lat="44.762045" lon="10.861015"><ele>28.0</ele><time>2026-04-04T14:22:50.857Z</time></trkpt><trkpt lat="44.762105" lon="10.860815"><ele>27.666666666666668</ele><time>2026-04-04T14:22:51.857Z</time></trkpt><trkpt lat="44.7621667" lon="10.8606117"><ele>27.333333333333336</ele><time>2026-04-04T14:22:52.857Z</time></trkpt><trkpt lat="44.7622283" lon="10.8603917"><ele>27.0</ele><time>2026-04-04T14:22:53.857Z</time></trkpt><trkpt lat="44.7622933" lon="10.8601667"><ele>27.333333333333336</ele><time>2026-04-04T14:22:54.857Z</time></trkpt><trkpt lat="44.7623617" lon="10.8599517"><ele>27.666666666666668</ele><time>2026-04-04T14:22:55.856Z</time></trkpt><trkpt lat="44.76243" lon="10.85974"><ele>28.0</ele><time>2026-04-04T14:22:56.857Z</time></trkpt><trkpt lat="44.76249" lon="10.859515"><ele>28.0</ele><time>2026-04-04T14:22:57.857Z</time></trkpt><trkpt lat="44.7625533" lon="10.8593017"><ele>28.0</ele><time>2026-04-04T14:22:58.856Z</time></trkpt><trkpt lat="44.76261" lon="10.8590933"><ele>28.0</ele><time>2026-04-04T14:22:59.856Z</time></trkpt><trkpt lat="44.7626733" lon="10.85889"><ele>27.666666666666668</ele><time>2026-04-04T14:23:00.857Z</time></trkpt><trkpt lat="44.762725" lon="10.8586883"><ele>27.333333333333336</ele><time>2026-04-04T14:23:01.857Z</time></trkpt><trkpt lat="44.7627833" lon="10.8584917"><ele>27.0</ele><time>2026-04-04T14:23:02.857Z</time></trkpt><trkpt lat="44.76284" lon="10.8583"><ele>27.0</ele><time>2026-04-04T14:23:03.856Z</time></trkpt><trkpt lat="44.7628967" lon="10.8581067"><ele>27.0</ele><time>2026-04-04T14:23:04.857Z</time></trkpt><trkpt lat="44.76296" lon="10.8579117"><ele>27.0</ele><time>2026-04-04T14:23:05.857Z</time></trkpt><trkpt lat="44.76302" lon="10.8577083"><ele>27.666666666666664</ele><time>2026-04-04T14:23:06.857Z</time></trkpt><trkpt lat="44.76308" lon="10.8574983"><ele>28.333333333333332</ele><time>2026-04-04T14:23:07.857Z</time></trkpt><trkpt lat="44.7631433" lon="10.8572833"><ele>29.0</ele><time>2026-04-04T14:23:08.857Z</time></trkpt><trkpt lat="44.763215" lon="10.8570533"><ele>29.0</ele><time>2026-04-04T14:23:09.856Z</time></trkpt><trkpt lat="44.7632817" lon="10.8568217"><ele>29.0</ele><time>2026-04-04T14:23:10.857Z</time></trkpt><trkpt lat="44.7633633" lon="10.8565783"><ele>29.0</ele><time>2026-04-04T14:23:11.857Z</time></trkpt><trkpt lat="44.7634433" lon="10.8563283"><ele>29.0</ele><time>2026-04-04T14:23:12.857Z</time></trkpt><trkpt lat="44.763525" lon="10.856075"><ele>29.0</ele><time>2026-04-04T14:23:13.857Z</time></trkpt><trkpt lat="44.7636" lon="10.8558317"><ele>29.0</ele><time>2026-04-04T14:23:14.856Z</time></trkpt><trkpt lat="44.7636733" lon="10.855585"><ele>29.0</ele><time>2026-04-04T14:23:15.857Z</time></trkpt><trkpt lat="44.76375" lon="10.85535"><ele>29.0</ele><time>2026-04-04T14:23:16.857Z</time></trkpt><trkpt lat="44.763825" lon="10.8551083"><ele>29.0</ele><time>2026-04-04T14:23:17.857Z</time></trkpt><trkpt lat="44.7638967" lon="10.854875"><ele>29.0</ele><time>2026-04-04T14:23:18.857Z</time></trkpt><trkpt lat="44.7639717" lon="10.85463"><ele>29.0</ele><time>2026-04-04T14:23:19.857Z</time></trkpt><trkpt lat="44.7640433" lon="10.8543983"><ele>29.0</ele><time>2026-04-04T14:23:20.856Z</time></trkpt><trkpt lat="44.7641217" lon="10.854165"><ele>29.333333333333332</ele><time>2026-04-04T14:23:21.857Z</time></trkpt><trkpt lat="44.7641967" lon="10.853925"><ele>29.666666666666664</ele><time>2026-04-04T14:23:22.857Z</time></trkpt><trkpt lat="44.7642683" lon="10.8537"><ele>30.0</ele><time>2026-04-04T14:23:23.857Z</time></trkpt><trkpt lat="44.7643367" lon="10.8534717"><ele>29.666666666666664</ele><time>2026-04-04T14:23:24.857Z</time></trkpt><trkpt lat="44.76441" lon="10.8532367"><ele>29.333333333333332</ele><time>2026-04-04T14:23:25.857Z</time></trkpt><trkpt lat="44.7644683" lon="10.8530283"><ele>29.0</ele><time>2026-04-04T14:23:26.857Z</time></trkpt><trkpt lat="44.7645317" lon="10.85282"><ele>29.0</ele><time>2026-04-04T14:23:27.857Z</time></trkpt><trkpt lat="44.7645917" lon="10.85263"><ele>29.0</ele><time>2026-04-04T14:23:28.857Z</time></trkpt><trkpt lat="44.7646517" lon="10.8524283"><ele>29.0</ele><time>2026-04-04T14:23:29.857Z</time></trkpt><trkpt lat="44.7647117" lon="10.852235"><ele>29.0</ele><time>2026-04-04T14:23:30.857Z</time></trkpt><trkpt lat="44.76477" lon="10.85205"><ele>29.0</ele><time>2026-04-04T14:23:31.857Z</time></trkpt><trkpt lat="44.764835" lon="10.8518567"><ele>29.0</ele><time>2026-04-04T14:23:32.857Z</time></trkpt><trkpt lat="44.7648917" lon="10.8516583"><ele>29.0</ele><time>2026-04-04T14:23:33.857Z</time></trkpt><trkpt lat="44.76495" lon="10.8514567"><ele>29.0</ele><time>2026-04-04T14:23:34.856Z</time></trkpt><trkpt lat="44.7650167" lon="10.85127"><ele>29.0</ele><time>2026-04-04T14:23:35.857Z</time></trkpt><trkpt lat="44.7650733" lon="10.8510917"><ele>29.0</ele><time>2026-04-04T14:23:36.857Z</time></trkpt><trkpt lat="44.765125" lon="10.850915"><ele>29.0</ele><time>2026-04-04T14:23:37.857Z</time></trkpt><trkpt lat="44.765175" lon="10.85075"><ele>29.0</ele><time>2026-04-04T14:23:38.857Z</time></trkpt><trkpt lat="44.7652167" lon="10.8505967"><ele>29.0</ele><time>2026-04-04T14:23:39.857Z</time></trkpt><trkpt lat="44.7652583" lon="10.8504517"><ele>29.0</ele><time>2026-04-04T14:23:40.857Z</time></trkpt><trkpt lat="44.7652933" lon="10.8503133"><ele>29.0</ele><time>2026-04-04T14:23:41.857Z</time></trkpt><trkpt lat="44.7653233" lon="10.85019"><ele>29.0</ele><time>2026-04-04T14:23:42.857Z</time></trkpt><trkpt lat="44.7653517" lon="10.85007"><ele>29.0</ele><time>2026-04-04T14:23:43.857Z</time></trkpt><trkpt lat="44.7653983" lon="10.849965"><ele>29.0</ele><time>2026-04-04T14:23:44.857Z</time></trkpt><trkpt lat="44.7654817" lon="10.8498867"><ele>29.0</ele><time>2026-04-04T14:23:45.857Z</time></trkpt><trkpt lat="44.7655883" lon="10.8498183"><ele>29.0</ele><time>2026-04-04T14:23:46.856Z</time></trkpt><trkpt lat="44.7657067" lon="10.8497867"><ele>29.0</ele><time>2026-04-04T14:23:47.857Z</time></trkpt><trkpt lat="44.7658283" lon="10.8497817"><ele>29.0</ele><time>2026-04-04T14:23:48.856Z</time></trkpt><trkpt lat="44.765945" lon="10.8498233"><ele>29.0</ele><time>2026-04-04T14:23:49.857Z</time></trkpt><trkpt lat="44.766045" lon="10.8498733"><ele>29.0</ele><time>2026-04-04T14:23:50.857Z</time></trkpt><trkpt lat="44.766125" lon="10.8499233"><ele>29.0</ele><time>2026-04-04T14:23:51.857Z</time></trkpt><trkpt lat="44.7662133" lon="10.8499733"><ele>29.0</ele><time>2026-04-04T14:23:52.856Z</time></trkpt><trkpt lat="44.7662883" lon="10.8500217"><ele>28.833333333333332</ele><time>2026-04-04T14:23:53.857Z</time></trkpt><trkpt lat="44.7663633" lon="10.8500517"><ele>28.666666666666664</ele><time>2026-04-04T14:23:54.857Z</time></trkpt><trkpt lat="44.7664283" lon="10.850085"><ele>28.5</ele><time>2026-04-04T14:23:55.857Z</time></trkpt><trkpt lat="44.7664967" lon="10.8501183"><ele>28.333333333333336</ele><time>2026-04-04T14:23:56.856Z</time></trkpt><trkpt lat="44.7665567" lon="10.8501533"><ele>28.166666666666668</ele><time>2026-04-04T14:23:57.857Z</time></trkpt><trkpt lat="44.766675" lon="10.8502117"><ele>28.0</ele><time>2026-04-04T14:23:59.857Z</time></trkpt><trkpt lat="44.7667433" lon="10.8502533"><ele>28.0</ele><time>2026-04-04T14:24:01.857Z</time></trkpt><trkpt lat="44.7668083" lon="10.8502917"><ele>28.0</ele><time>2026-04-04T14:24:04.857Z</time></trkpt><trkpt lat="44.76689" lon="10.850335"><ele>28.0</ele><time>2026-04-04T14:24:06.857Z</time></trkpt><trkpt lat="44.76695" lon="10.8503717"><ele>28.0</ele><time>2026-04-04T14:24:07.857Z</time></trkpt><trkpt lat="44.7670133" lon="10.850415"><ele>28.0</ele><time>2026-04-04T14:24:08.856Z</time></trkpt><trkpt lat="44.7670767" lon="10.8504567"><ele>28.0</ele><time>2026-04-04T14:24:09.857Z</time></trkpt><trkpt lat="44.7671417" lon="10.850505"><ele>28.0</ele><time>2026-04-04T14:24:10.856Z</time></trkpt><trkpt lat="44.7672233" lon="10.8505633"><ele>28.0</ele><time>2026-04-04T14:24:11.857Z</time></trkpt><trkpt lat="44.7673117" lon="10.8506333"><ele>28.0</ele><time>2026-04-04T14:24:12.857Z</time></trkpt><trkpt lat="44.7674033" lon="10.8507083"><ele>28.0</ele><time>2026-04-04T14:24:13.856Z</time></trkpt><trkpt lat="44.7675083" lon="10.8507983"><ele>28.0</ele><time>2026-04-04T14:24:14.857Z</time></trkpt><trkpt lat="44.767625" lon="10.8508867"><ele>28.5</ele><time>2026-04-04T14:24:15.857Z</time></trkpt><trkpt lat="44.767755" lon="10.8509733"><ele>29.0</ele><time>2026-04-04T14:24:16.857Z</time></trkpt><trkpt lat="44.767885" lon="10.8510667"><ele>29.5</ele><time>2026-04-04T14:24:17.856Z</time></trkpt><trkpt lat="44.7680167" lon="10.8511583"><ele>30.0</ele><time>2026-04-04T14:24:18.857Z</time></trkpt><trkpt lat="44.7681517" lon="10.851255"><ele>30.0</ele><time>2026-04-04T14:24:19.856Z</time></trkpt><trkpt lat="44.7682917" lon="10.8513433"><ele>30.0</ele><time>2026-04-04T14:24:20.857Z</time></trkpt><trkpt lat="44.7684267" lon="10.8514333"><ele>30.0</ele><time>2026-04-04T14:24:21.856Z</time></trkpt><trkpt lat="44.76855" lon="10.8515183"><ele>30.0</ele><time>2026-04-04T14:24:22.856Z</time></trkpt><trkpt lat="44.7686683" lon="10.8516033"><ele>30.0</ele><time>2026-04-04T14:24:23.857Z</time></trkpt><trkpt lat="44.7687817" lon="10.851675"><ele>30.0</ele><time>2026-04-04T14:24:24.857Z</time></trkpt><trkpt lat="44.7688983" lon="10.851755"><ele>30.0</ele><time>2026-04-04T14:24:25.857Z</time></trkpt><trkpt lat="44.7690133" lon="10.8518333"><ele>30.0</ele><time>2026-04-04T14:24:26.857Z</time></trkpt><trkpt lat="44.7691217" lon="10.8519183"><ele>30.0</ele><time>2026-04-04T14:24:27.857Z</time></trkpt><trkpt lat="44.76923" lon="10.8519883"><ele>30.0</ele><time>2026-04-04T14:24:28.856Z</time></trkpt><trkpt lat="44.769325" lon="10.852075"><ele>30.0</ele><time>2026-04-04T14:24:29.857Z</time></trkpt><trkpt lat="44.7694217" lon="10.8521533"><ele>30.0</ele><time>2026-04-04T14:24:30.857Z</time></trkpt><trkpt lat="44.7695283" lon="10.8522233"><ele>29.8</ele><time>2026-04-04T14:24:31.857Z</time></trkpt><trkpt lat="44.769635" lon="10.852295"><ele>29.6</ele><time>2026-04-04T14:24:32.857Z</time></trkpt><trkpt lat="44.769735" lon="10.8523617"><ele>29.4</ele><time>2026-04-04T14:24:33.857Z</time></trkpt><trkpt lat="44.7698317" lon="10.8524133"><ele>29.2</ele><time>2026-04-04T14:24:34.857Z</time></trkpt><trkpt lat="44.769925" lon="10.8524783"><ele>29.0</ele><time>2026-04-04T14:24:35.857Z</time></trkpt><trkpt lat="44.7700233" lon="10.8525467"><ele>29.0</ele><time>2026-04-04T14:24:36.857Z</time></trkpt><trkpt lat="44.770115" lon="10.85262"><ele>29.0</ele><time>2026-04-04T14:24:37.857Z</time></trkpt><trkpt lat="44.7702033" lon="10.8526917"><ele>29.0</ele><time>2026-04-04T14:24:38.856Z</time></trkpt><trkpt lat="44.7702983" lon="10.8527633"><ele>29.0</ele><time>2026-04-04T14:24:39.857Z</time></trkpt><trkpt lat="44.7703983" lon="10.8528383"><ele>29.0</ele><time>2026-04-04T14:24:40.857Z</time></trkpt><trkpt lat="44.7705033" lon="10.85291"><ele>29.75</ele><time>2026-04-04T14:24:41.857Z</time></trkpt><trkpt lat="44.7706133" lon="10.8529983"><ele>30.5</ele><time>2026-04-04T14:24:42.857Z</time></trkpt><trkpt lat="44.77072" lon="10.853095"><ele>31.25</ele><time>2026-04-04T14:24:43.857Z</time></trkpt><trkpt lat="44.7708183" lon="10.85319"><ele>32.0</ele><time>2026-04-04T14:24:44.857Z</time></trkpt><trkpt lat="44.7709" lon="10.853275"><ele>31.999999999999996</ele><time>2026-04-04T14:24:45.857Z</time></trkpt><trkpt lat="44.770975" lon="10.8533533"><ele>32.0</ele><time>2026-04-04T14:24:46.857Z</time></trkpt><trkpt lat="44.7710417" lon="10.8534267"><ele>32.0</ele><time>2026-04-04T14:24:47.856Z</time></trkpt><trkpt lat="44.7711117" lon="10.8534783"><ele>32.0</ele><time>2026-04-04T14:24:48.857Z</time></trkpt><trkpt lat="44.7711883" lon="10.8535"><ele>31.999999999999996</ele><time>2026-04-04T14:24:49.857Z</time></trkpt><trkpt lat="44.7712633" lon="10.8534633"><ele>32.0</ele><time>2026-04-04T14:24:50.857Z</time></trkpt><trkpt lat="44.7713367" lon="10.8533867"><ele>31.0</ele><time>2026-04-04T14:24:51.856Z</time></trkpt><trkpt lat="44.7714067" lon="10.8532683"><ele>30.0</ele><time>2026-04-04T14:24:52.856Z</time></trkpt><trkpt lat="44.7714633" lon="10.8530967"><ele>29.0</ele><time>2026-04-04T14:24:53.857Z</time></trkpt><trkpt lat="44.771515" lon="10.852905"><ele>28.0</ele><time>2026-04-04T14:24:54.856Z</time></trkpt><trkpt lat="44.771575" lon="10.8527167"><ele>28.25</ele><time>2026-04-04T14:24:55.856Z</time></trkpt><trkpt lat="44.7716383" lon="10.8525383"><ele>28.5</ele><time>2026-04-04T14:24:56.857Z</time></trkpt><trkpt lat="44.7717067" lon="10.852395"><ele>28.75</ele><time>2026-04-04T14:24:57.856Z</time></trkpt><trkpt lat="44.77179" lon="10.8523017"><ele>29.0</ele><time>2026-04-04T14:24:58.857Z</time></trkpt><trkpt lat="44.7718817" lon="10.852245"><ele>29.25</ele><time>2026-04-04T14:24:59.856Z</time></trkpt><trkpt lat="44.77199" lon="10.85223"><ele>29.5</ele><time>2026-04-04T14:25:00.857Z</time></trkpt><trkpt lat="44.7721117" lon="10.85226"><ele>29.75</ele><time>2026-04-04T14:25:01.857Z</time></trkpt><trkpt lat="44.7722417" lon="10.8523267"><ele>30.0</ele><time>2026-04-04T14:25:02.857Z</time></trkpt><trkpt lat="44.77238" lon="10.8524217"><ele>30.0</ele><time>2026-04-04T14:25:03.857Z</time></trkpt><trkpt lat="44.7725317" lon="10.8525233"><ele>30.0</ele><time>2026-04-04T14:25:04.857Z</time></trkpt><trkpt lat="44.77269" lon="10.8526217"><ele>30.0</ele><time>2026-04-04T14:25:05.857Z</time></trkpt><trkpt lat="44.7728567" lon="10.8527183"><ele>28.666666666666664</ele><time>2026-04-04T14:25:06.857Z</time></trkpt><trkpt lat="44.773035" lon="10.85283"><ele>27.333333333333332</ele><time>2026-04-04T14:25:07.856Z</time></trkpt><trkpt lat="44.7732417" lon="10.8529517"><ele>26.0</ele><time>2026-04-04T14:25:08.857Z</time></trkpt><trkpt lat="44.7734467" lon="10.8530783"><ele>26.0</ele><time>2026-04-04T14:25:09.857Z</time></trkpt><trkpt lat="44.7736567" lon="10.8532117"><ele>26.0</ele><time>2026-04-04T14:25:10.857Z</time></trkpt><trkpt lat="44.773875" lon="10.853345"><ele>26.0</ele><time>2026-04-04T14:25:11.857Z</time></trkpt><trkpt lat="44.7740917" lon="10.8534767"><ele>26.0</ele><time>2026-04-04T14:25:12.856Z</time></trkpt><trkpt lat="44.77431" lon="10.8536117"><ele>26.5</ele><time>2026-04-04T14:25:13.857Z</time></trkpt><trkpt lat="44.7745283" lon="10.85375"><ele>27.0</ele><time>2026-04-04T14:25:14.857Z</time></trkpt><trkpt lat="44.7747467" lon="10.8538883"><ele>27.0</ele><time>2026-04-04T14:25:15.857Z</time></trkpt><trkpt lat="44.7749533" lon="10.8540167"><ele>27.0</ele><time>2026-04-04T14:25:16.857Z</time></trkpt><trkpt lat="44.7751583" lon="10.8541467"><ele>27.666666666666664</ele><time>2026-04-04T14:25:17.857Z</time></trkpt><trkpt lat="44.77535" lon="10.8542667"><ele>28.333333333333332</ele><time>2026-04-04T14:25:18.857Z</time></trkpt><trkpt lat="44.775545" lon="10.8543933"><ele>29.0</ele><time>2026-04-04T14:25:19.857Z</time></trkpt><trkpt lat="44.7757383" lon="10.854515"><ele>29.0</ele><time>2026-04-04T14:25:20.857Z</time></trkpt><trkpt lat="44.7759367" lon="10.8546317"><ele>29.0</ele><time>2026-04-04T14:25:21.857Z</time></trkpt><trkpt lat="44.77613" lon="10.8547517"><ele>29.0</ele><time>2026-04-04T14:25:22.857Z</time></trkpt><trkpt lat="44.7763233" lon="10.8548717"><ele>29.0</ele><time>2026-04-04T14:25:23.857Z</time></trkpt><trkpt lat="44.77651" lon="10.8549833"><ele>29.0</ele><time>2026-04-04T14:25:24.857Z</time></trkpt><trkpt lat="44.7767017" lon="10.855095"><ele>29.0</ele><time>2026-04-04T14:25:25.857Z</time></trkpt><trkpt lat="44.7768883" lon="10.855205"><ele>27.666666666666664</ele><time>2026-04-04T14:25:26.857Z</time></trkpt><trkpt lat="44.77707" lon="10.85532"><ele>26.333333333333336</ele><time>2026-04-04T14:25:27.857Z</time></trkpt><trkpt lat="44.7772483" lon="10.855415"><ele>25.0</ele><time>2026-04-04T14:25:28.857Z</time></trkpt><trkpt lat="44.77742" lon="10.8555267"><ele>25.0</ele><time>2026-04-04T14:25:29.857Z</time></trkpt><trkpt lat="44.7775933" lon="10.8556267"><ele>25.0</ele><time>2026-04-04T14:25:30.857Z</time></trkpt><trkpt lat="44.7777617" lon="10.8557283"><ele>25.0</ele><time>2026-04-04T14:25:31.857Z</time></trkpt><trkpt lat="44.7779117" lon="10.855815"><ele>26.0</ele><time>2026-04-04T14:25:32.857Z</time></trkpt><trkpt lat="44.778045" lon="10.8558983"><ele>27.0</ele><time>2026-04-04T14:25:33.857Z</time></trkpt><trkpt lat="44.778175" lon="10.8559783"><ele>28.0</ele><time>2026-04-04T14:25:34.857Z</time></trkpt><trkpt lat="44.7783" lon="10.8560583"><ele>29.0</ele><time>2026-04-04T14:25:35.856Z</time></trkpt><trkpt lat="44.7784233" lon="10.8561283"><ele>29.0</ele><time>2026-04-04T14:25:36.856Z</time></trkpt><trkpt lat="44.77854" lon="10.8561967"><ele>29.0</ele><time>2026-04-04T14:25:37.857Z</time></trkpt><trkpt lat="44.7786517" lon="10.8562583"><ele>29.0</ele><time>2026-04-04T14:25:38.857Z</time></trkpt><trkpt lat="44.7787617" lon="10.85632"><ele>29.0</ele><time>2026-04-04T14:25:39.857Z</time></trkpt><trkpt lat="44.77886" lon="10.8563783"><ele>28.999999999999996</ele><time>2026-04-04T14:25:40.857Z</time></trkpt><trkpt lat="44.7789517" lon="10.856435"><ele>29.0</ele><time>2026-04-04T14:25:41.856Z</time></trkpt><trkpt lat="44.7790383" lon="10.8564917"><ele>29.0</ele><time>2026-04-04T14:25:42.857Z</time></trkpt><trkpt lat="44.7791083" lon="10.8565433"><ele>29.0</ele><time>2026-04-04T14:25:43.857Z</time></trkpt><trkpt lat="44.7791717" lon="10.8566"><ele>28.999999999999996</ele><time>2026-04-04T14:25:44.856Z</time></trkpt><trkpt lat="44.7792117" lon="10.856695"><ele>29.0</ele><time>2026-04-04T14:25:45.857Z</time></trkpt><trkpt lat="44.779235" lon="10.856815"><ele>28.833333333333332</ele><time>2026-04-04T14:25:46.856Z</time></trkpt><trkpt lat="44.7792583" lon="10.85693"><ele>28.666666666666664</ele><time>2026-04-04T14:25:47.857Z</time></trkpt><trkpt lat="44.779305" lon="10.8570283"><ele>28.5</ele><time>2026-04-04T14:25:48.857Z</time></trkpt><trkpt lat="44.77938" lon="10.8570733"><ele>28.333333333333336</ele><time>2026-04-04T14:25:49.857Z</time></trkpt><trkpt lat="44.779465" lon="10.85708"><ele>28.166666666666668</ele><time>2026-04-04T14:25:50.856Z</time></trkpt><trkpt lat="44.7795483" lon="10.8570567"><ele>28.0</ele><time>2026-04-04T14:25:51.856Z</time></trkpt><trkpt lat="44.779635" lon="10.8569967"><ele>28.0</ele><time>2026-04-04T14:25:52.856Z</time></trkpt><trkpt lat="44.7797233" lon="10.8569633"><ele>28.0</ele><time>2026-04-04T14:25:53.857Z</time></trkpt><trkpt lat="44.7798233" lon="10.8569683"><ele>28.0</ele><time>2026-04-04T14:25:54.857Z</time></trkpt><trkpt lat="44.7799417" lon="10.8570267"><ele>28.0</ele><time>2026-04-04T14:25:55.856Z</time></trkpt><trkpt lat="44.7800583" lon="10.857125"><ele>28.333333333333336</ele><time>2026-04-04T14:25:56.856Z</time></trkpt><trkpt lat="44.780195" lon="10.8572383"><ele>28.666666666666664</ele><time>2026-04-04T14:25:57.857Z</time></trkpt><trkpt lat="44.7803467" lon="10.8573583"><ele>29.0</ele><time>2026-04-04T14:25:58.856Z</time></trkpt><trkpt lat="44.7804867" lon="10.8574983"><ele>29.0</ele><time>2026-04-04T14:25:59.857Z</time></trkpt><trkpt lat="44.780645" lon="10.8576633"><ele>29.0</ele><time>2026-04-04T14:26:00.857Z</time></trkpt><trkpt lat="44.7807983" lon="10.857825"><ele>29.0</ele><time>2026-04-04T14:26:01.856Z</time></trkpt><trkpt lat="44.7809533" lon="10.8579767"><ele>28.666666666666664</ele><time>2026-04-04T14:26:02.857Z</time></trkpt><trkpt lat="44.7810933" lon="10.858125"><ele>28.333333333333336</ele><time>2026-04-04T14:26:03.857Z</time></trkpt><trkpt lat="44.7812317" lon="10.858265"><ele>28.0</ele><time>2026-04-04T14:26:04.856Z</time></trkpt><trkpt lat="44.78137" lon="10.858405"><ele>28.0</ele><time>2026-04-04T14:26:05.857Z</time></trkpt><trkpt lat="44.7815067" lon="10.85854"><ele>28.0</ele><time>2026-04-04T14:26:06.857Z</time></trkpt><trkpt lat="44.7816333" lon="10.85866"><ele>28.0</ele><time>2026-04-04T14:26:07.857Z</time></trkpt><trkpt lat="44.7817517" lon="10.8587817"><ele>28.75</ele><time>2026-04-04T14:26:08.856Z</time></trkpt><trkpt lat="44.7818633" lon="10.858895"><ele>29.5</ele><time>2026-04-04T14:26:09.857Z</time></trkpt><trkpt lat="44.7819767" lon="10.859005"><ele>30.25</ele><time>2026-04-04T14:26:10.857Z</time></trkpt><trkpt lat="44.782095" lon="10.859125"><ele>31.0</ele><time>2026-04-04T14:26:11.856Z</time></trkpt><trkpt lat="44.7822133" lon="10.8592433"><ele>30.75</ele><time>2026-04-04T14:26:12.856Z</time></trkpt><trkpt lat="44.7823267" lon="10.8593583"><ele>30.5</ele><time>2026-04-04T14:26:13.857Z</time></trkpt><trkpt lat="44.78243" lon="10.8594617"><ele>30.25</ele><time>2026-04-04T14:26:14.857Z</time></trkpt><trkpt lat="44.7825317" lon="10.8595567"><ele>30.0</ele><time>2026-04-04T14:26:15.857Z</time></trkpt><trkpt lat="44.7826217" lon="10.859655"><ele>30.4</ele><time>2026-04-04T14:26:16.857Z</time></trkpt><trkpt lat="44.7826983" lon="10.85975"><ele>30.8</ele><time>2026-04-04T14:26:17.857Z</time></trkpt><trkpt lat="44.7827417" lon="10.85988"><ele>31.200000000000003</ele><time>2026-04-04T14:26:18.857Z</time></trkpt><trkpt lat="44.78277" lon="10.8600283"><ele>31.6</ele><time>2026-04-04T14:26:19.856Z</time></trkpt><trkpt lat="44.7828017" lon="10.860175"><ele>32.0</ele><time>2026-04-04T14:26:20.856Z</time></trkpt><trkpt lat="44.7828567" lon="10.86029"><ele>31.200000000000003</ele><time>2026-04-04T14:26:21.857Z</time></trkpt><trkpt lat="44.7829433" lon="10.8603833"><ele>30.400000000000002</ele><time>2026-04-04T14:26:22.857Z</time></trkpt><trkpt lat="44.7830417" lon="10.8604283"><ele>29.599999999999998</ele><time>2026-04-04T14:26:23.857Z</time></trkpt><trkpt lat="44.7831533" lon="10.8604333"><ele>28.799999999999997</ele><time>2026-04-04T14:26:24.856Z</time></trkpt><trkpt lat="44.7832733" lon="10.8603983"><ele>28.0</ele><time>2026-04-04T14:26:25.857Z</time></trkpt><trkpt lat="44.7834067" lon="10.8603517"><ele>28.666666666666668</ele><time>2026-04-04T14:26:26.856Z</time></trkpt><trkpt lat="44.7835617" lon="10.8603533"><ele>29.333333333333336</ele><time>2026-04-04T14:26:27.856Z</time></trkpt><trkpt lat="44.7837317" lon="10.8604"><ele>30.0</ele><time>2026-04-04T14:26:28.857Z</time></trkpt><trkpt lat="44.7839033" lon="10.8604633"><ele>30.0</ele><time>2026-04-04T14:26:29.857Z</time></trkpt><trkpt lat="44.7840733" lon="10.860535"><ele>30.0</ele><time>2026-04-04T14:26:30.857Z</time></trkpt><trkpt lat="44.7842283" lon="10.8606133"><ele>30.0</ele><time>2026-04-04T14:26:31.857Z</time></trkpt><trkpt lat="44.7843733" lon="10.8607"><ele>30.0</ele><time>2026-04-04T14:26:32.857Z</time></trkpt><trkpt lat="44.7845267" lon="10.86079"><ele>30.0</ele><time>2026-04-04T14:26:33.857Z</time></trkpt><trkpt lat="44.784675" lon="10.8608767"><ele>30.0</ele><time>2026-04-04T14:26:34.857Z</time></trkpt><trkpt lat="44.78482" lon="10.860965"><ele>29.333333333333336</ele><time>2026-04-04T14:26:35.857Z</time></trkpt><trkpt lat="44.78496" lon="10.861045"><ele>28.666666666666668</ele><time>2026-04-04T14:26:36.856Z</time></trkpt><trkpt lat="44.7851" lon="10.8611267"><ele>28.0</ele><time>2026-04-04T14:26:37.857Z</time></trkpt><trkpt lat="44.7852383" lon="10.8612133"><ele>28.0</ele><time>2026-04-04T14:26:38.856Z</time></trkpt><trkpt lat="44.7853733" lon="10.8613"><ele>28.0</ele><time>2026-04-04T14:26:39.857Z</time></trkpt><trkpt lat="44.7855183" lon="10.8613883"><ele>28.0</ele><time>2026-04-04T14:26:40.857Z</time></trkpt><trkpt lat="44.7856617" lon="10.8614833"><ele>28.0</ele><time>2026-04-04T14:26:41.857Z</time></trkpt><trkpt lat="44.7858" lon="10.8615717"><ele>28.0</ele><time>2026-04-04T14:26:42.857Z</time></trkpt><trkpt lat="44.7859367" lon="10.8616617"><ele>28.0</ele><time>2026-04-04T14:26:43.857Z</time></trkpt><trkpt lat="44.7860783" lon="10.8617483"><ele>27.666666666666668</ele><time>2026-04-04T14:26:44.857Z</time></trkpt><trkpt lat="44.7862233" lon="10.86184"><ele>27.333333333333336</ele><time>2026-04-04T14:26:45.857Z</time></trkpt><trkpt lat="44.78637" lon="10.8619167"><ele>27.0</ele><time>2026-04-04T14:26:46.857Z</time></trkpt><trkpt lat="44.7865083" lon="10.862005"><ele>27.0</ele><time>2026-04-04T14:26:47.856Z</time></trkpt><trkpt lat="44.78665" lon="10.862085"><ele>27.0</ele><time>2026-04-04T14:26:48.857Z</time></trkpt><trkpt lat="44.7867933" lon="10.8621567"><ele>27.0</ele><time>2026-04-04T14:26:49.856Z</time></trkpt><trkpt lat="44.7869283" lon="10.8622333"><ele>27.25</ele><time>2026-04-04T14:26:50.857Z</time></trkpt><trkpt lat="44.7870633" lon="10.8623117"><ele>27.5</ele><time>2026-04-04T14:26:51.857Z</time></trkpt><trkpt lat="44.787205" lon="10.8623867"><ele>27.75</ele><time>2026-04-04T14:26:52.857Z</time></trkpt><trkpt lat="44.7873467" lon="10.8624617"><ele>28.0</ele><time>2026-04-04T14:26:53.857Z</time></trkpt><trkpt lat="44.7874917" lon="10.8625483"><ele>27.666666666666668</ele><time>2026-04-04T14:26:54.857Z</time></trkpt><trkpt lat="44.78763" lon="10.86263"><ele>27.333333333333336</ele><time>2026-04-04T14:26:55.856Z</time></trkpt><trkpt lat="44.7877733" lon="10.862715"><ele>27.0</ele><time>2026-04-04T14:26:56.857Z</time></trkpt><trkpt lat="44.7879167" lon="10.8628017"><ele>27.666666666666664</ele><time>2026-04-04T14:26:57.857Z</time></trkpt><trkpt lat="44.7880633" lon="10.8628883"><ele>28.333333333333332</ele><time>2026-04-04T14:26:58.856Z</time></trkpt><trkpt lat="44.7882067" lon="10.86298"><ele>29.0</ele><time>2026-04-04T14:26:59.856Z</time></trkpt><trkpt lat="44.78835" lon="10.8630817"><ele>29.0</ele><time>2026-04-04T14:27:00.857Z</time></trkpt><trkpt lat="44.7885067" lon="10.86317"><ele>29.0</ele><time>2026-04-04T14:27:01.857Z</time></trkpt><trkpt lat="44.7886567" lon="10.8632717"><ele>29.0</ele><time>2026-04-04T14:27:02.857Z</time></trkpt><trkpt lat="44.788815" lon="10.8633567"><ele>29.333333333333332</ele><time>2026-04-04T14:27:03.857Z</time></trkpt><trkpt lat="44.7889733" lon="10.8634183"><ele>29.666666666666664</ele><time>2026-04-04T14:27:04.857Z</time></trkpt><trkpt lat="44.7891367" lon="10.863445"><ele>30.0</ele><time>2026-04-04T14:27:05.856Z</time></trkpt><trkpt lat="44.789295" lon="10.8634667"><ele>29.5</ele><time>2026-04-04T14:27:06.856Z</time></trkpt><trkpt lat="44.7894483" lon="10.86347"><ele>29.0</ele><time>2026-04-04T14:27:07.857Z</time></trkpt><trkpt lat="44.789595" lon="10.8634683"><ele>28.5</ele><time>2026-04-04T14:27:08.857Z</time></trkpt><trkpt lat="44.7897367" lon="10.86346"><ele>28.0</ele><time>2026-04-04T14:27:09.857Z</time></trkpt><trkpt lat="44.7898817" lon="10.8634567"><ele>28.0</ele><time>2026-04-04T14:27:10.857Z</time></trkpt><trkpt lat="44.7900267" lon="10.8634467"><ele>28.0</ele><time>2026-04-04T14:27:11.857Z</time></trkpt><trkpt lat="44.7901617" lon="10.8634433"><ele>28.0</ele><time>2026-04-04T14:27:12.857Z</time></trkpt><trkpt lat="44.7903033" lon="10.863445"><ele>28.0</ele><time>2026-04-04T14:27:13.856Z</time></trkpt><trkpt lat="44.7904583" lon="10.8634667"><ele>27.75</ele><time>2026-04-04T14:27:14.857Z</time></trkpt><trkpt lat="44.7906" lon="10.863485"><ele>27.5</ele><time>2026-04-04T14:27:15.857Z</time></trkpt><trkpt lat="44.790745" lon="10.8635267"><ele>27.25</ele><time>2026-04-04T14:27:16.857Z</time></trkpt><trkpt lat="44.79089" lon="10.8635883"><ele>27.0</ele><time>2026-04-04T14:27:17.857Z</time></trkpt><trkpt lat="44.7910333" lon="10.86365"><ele>26.666666666666664</ele><time>2026-04-04T14:27:18.856Z</time></trkpt><trkpt lat="44.7911783" lon="10.8637233"><ele>26.333333333333332</ele><time>2026-04-04T14:27:19.857Z</time></trkpt><trkpt lat="44.7913233" lon="10.8638017"><ele>26.0</ele><time>2026-04-04T14:27:20.857Z</time></trkpt><trkpt lat="44.79146" lon="10.86389"><ele>26.0</ele><time>2026-04-04T14:27:21.857Z</time></trkpt><trkpt lat="44.7915983" lon="10.8639783"><ele>26.0</ele><time>2026-04-04T14:27:22.857Z</time></trkpt><trkpt lat="44.7917283" lon="10.8640617"><ele>26.0</ele><time>2026-04-04T14:27:23.857Z</time></trkpt><trkpt lat="44.7918467" lon="10.8641333"><ele>26.0</ele><time>2026-04-04T14:27:24.857Z</time></trkpt><trkpt lat="44.791955" lon="10.8642"><ele>25.8</ele><time>2026-04-04T14:27:25.857Z</time></trkpt><trkpt lat="44.7920617" lon="10.8642617"><ele>25.6</ele><time>2026-04-04T14:27:26.856Z</time></trkpt><trkpt lat="44.792165" lon="10.8643233"><ele>25.4</ele><time>2026-04-04T14:27:27.857Z</time></trkpt><trkpt lat="44.7922633" lon="10.8643867"><ele>25.2</ele><time>2026-04-04T14:27:28.857Z</time></trkpt><trkpt lat="44.7923667" lon="10.86445"><ele>25.0</ele><time>2026-04-04T14:27:29.857Z</time></trkpt><trkpt lat="44.7924633" lon="10.864505"><ele>25.25</ele><time>2026-04-04T14:27:30.857Z</time></trkpt><trkpt lat="44.7925633" lon="10.8645617"><ele>25.5</ele><time>2026-04-04T14:27:31.857Z</time></trkpt><trkpt lat="44.7926717" lon="10.8646217"><ele>25.75</ele><time>2026-04-04T14:27:32.857Z</time></trkpt><trkpt lat="44.79279" lon="10.8646833"><ele>26.0</ele><time>2026-04-04T14:27:33.856Z</time></trkpt><trkpt lat="44.792905" lon="10.8647533"><ele>26.0</ele><time>2026-04-04T14:27:34.857Z</time></trkpt><trkpt lat="44.7930233" lon="10.8648267"><ele>26.0</ele><time>2026-04-04T14:27:35.856Z</time></trkpt><trkpt lat="44.79315" lon="10.8648983"><ele>26.0</ele><time>2026-04-04T14:27:36.856Z</time></trkpt><trkpt lat="44.7932733" lon="10.8649783"><ele>26.0</ele><time>2026-04-04T14:27:37.857Z</time></trkpt><trkpt lat="44.7934" lon="10.8650583"><ele>26.5</ele><time>2026-04-04T14:27:38.857Z</time></trkpt><trkpt lat="44.7935283" lon="10.865125"><ele>27.0</ele><time>2026-04-04T14:27:39.857Z</time></trkpt><trkpt lat="44.7936533" lon="10.865205"><ele>27.5</ele><time>2026-04-04T14:27:40.857Z</time></trkpt><trkpt lat="44.7937717" lon="10.8652783"><ele>28.0</ele><time>2026-04-04T14:27:41.856Z</time></trkpt><trkpt lat="44.79389" lon="10.8653433"><ele>28.0</ele><time>2026-04-04T14:27:42.857Z</time></trkpt><trkpt lat="44.7940017" lon="10.8654067"><ele>27.999999999999996</ele><time>2026-04-04T14:27:43.857Z</time></trkpt><trkpt lat="44.794105" lon="10.8654683"><ele>27.999999999999996</ele><time>2026-04-04T14:27:44.857Z</time></trkpt><trkpt lat="44.7942033" lon="10.865535"><ele>28.0</ele><time>2026-04-04T14:27:45.857Z</time></trkpt><trkpt lat="44.7943" lon="10.8655917"><ele>28.0</ele><time>2026-04-04T14:27:46.857Z</time></trkpt><trkpt lat="44.7943917" lon="10.865655"><ele>27.833333333333336</ele><time>2026-04-04T14:27:47.856Z</time></trkpt><trkpt lat="44.79448" lon="10.8657083"><ele>27.666666666666668</ele><time>2026-04-04T14:27:48.857Z</time></trkpt><trkpt lat="44.7945617" lon="10.865755"><ele>27.5</ele><time>2026-04-04T14:27:49.856Z</time></trkpt><trkpt lat="44.7946433" lon="10.8658033"><ele>27.333333333333336</ele><time>2026-04-04T14:27:50.857Z</time></trkpt><trkpt lat="44.7947033" lon="10.8658433"><ele>27.166666666666668</ele><time>2026-04-04T14:27:51.857Z</time></trkpt><trkpt lat="44.7947833" lon="10.8659383"><ele>27.0</ele><time>2026-04-04T14:27:53.856Z</time></trkpt><trkpt lat="44.7948483" lon="10.866055"><ele>26.857142857142858</ele><time>2026-04-04T14:27:55.857Z</time></trkpt><trkpt lat="44.79488" lon="10.8661367"><ele>26.714285714285715</ele><time>2026-04-04T14:27:56.856Z</time></trkpt><trkpt lat="44.794905" lon="10.8662183"><ele>26.57142857142857</ele><time>2026-04-04T14:27:57.856Z</time></trkpt><trkpt lat="44.7949333" lon="10.86631"><ele>26.42857142857143</ele><time>2026-04-04T14:27:58.856Z</time></trkpt><trkpt lat="44.7949717" lon="10.8663867"><ele>26.28571428571429</ele><time>2026-04-04T14:27:59.856Z</time></trkpt><trkpt lat="44.7950633" lon="10.8664733"><ele>26.142857142857142</ele><time>2026-04-04T14:28:01.856Z</time></trkpt><trkpt lat="44.795125" lon="10.8664933"><ele>26.0</ele><time>2026-04-04T14:28:02.856Z</time></trkpt><trkpt lat="44.7951917" lon="10.8664933"><ele>26.0</ele><time>2026-04-04T14:28:03.855Z</time></trkpt><trkpt lat="44.795265" lon="10.8664583"><ele>26.0</ele><time>2026-04-04T14:28:04.856Z</time></trkpt><trkpt lat="44.7953217" lon="10.8663933"><ele>26.0</ele><time>2026-04-04T14:28:05.855Z</time></trkpt><trkpt lat="44.7953633" lon="10.866305"><ele>26.0</ele><time>2026-04-04T14:28:06.856Z</time></trkpt><trkpt lat="44.79539" lon="10.8662117"><ele>26.0</ele><time>2026-04-04T14:28:07.855Z</time></trkpt><trkpt lat="44.7954083" lon="10.8661083"><ele>26.0</ele><time>2026-04-04T14:28:08.856Z</time></trkpt><trkpt lat="44.7954" lon="10.8660133"><ele>26.0</ele><time>2026-04-04T14:28:09.856Z</time></trkpt><trkpt lat="44.7953783" lon="10.86592"><ele>26.0</ele><time>2026-04-04T14:28:10.856Z</time></trkpt><trkpt lat="44.7953433" lon="10.8658333"><ele>26.0</ele><time>2026-04-04T14:28:11.856Z</time></trkpt><trkpt lat="44.7953083" lon="10.8657583"><ele>26.0</ele><time>2026-04-04T14:28:12.856Z</time></trkpt><trkpt lat="44.795275" lon="10.86568"><ele>26.0</ele><time>2026-04-04T14:28:13.855Z</time></trkpt><trkpt lat="44.79525" lon="10.865525"><ele>26.0</ele><time>2026-04-04T14:28:15.856Z</time></trkpt><trkpt lat="44.7952633" lon="10.8653283"><ele>26.0</ele><time>2026-04-04T14:28:17.856Z</time></trkpt><trkpt lat="44.795295" lon="10.8652033"><ele>26.0</ele><time>2026-04-04T14:28:18.856Z</time></trkpt><trkpt lat="44.7953283" lon="10.8650683"><ele>26.0</ele><time>2026-04-04T14:28:19.856Z</time></trkpt><trkpt lat="44.79537" lon="10.8649117"><ele>26.0</ele><time>2026-04-04T14:28:20.856Z</time></trkpt><trkpt lat="44.7954133" lon="10.86474"><ele>26.0</ele><time>2026-04-04T14:28:21.856Z</time></trkpt><trkpt lat="44.7954783" lon="10.864575"><ele>26.0</ele><time>2026-04-04T14:28:22.856Z</time></trkpt><trkpt lat="44.7955317" lon="10.8644017"><ele>26.0</ele><time>2026-04-04T14:28:23.856Z</time></trkpt><trkpt lat="44.7955883" lon="10.8642317"><ele>26.0</ele><time>2026-04-04T14:28:24.856Z</time></trkpt><trkpt lat="44.7956433" lon="10.8640583"><ele>26.0</ele><time>2026-04-04T14:28:25.856Z</time></trkpt><trkpt lat="44.795695" lon="10.8638717"><ele>26.0</ele><time>2026-04-04T14:28:26.855Z</time></trkpt><trkpt lat="44.7957467" lon="10.863695"><ele>26.0</ele><time>2026-04-04T14:28:27.856Z</time></trkpt><trkpt lat="44.7958083" lon="10.8635117"><ele>26.0</ele><time>2026-04-04T14:28:28.855Z</time></trkpt><trkpt lat="44.7958717" lon="10.8633333"><ele>26.0</ele><time>2026-04-04T14:28:29.856Z</time></trkpt><trkpt lat="44.7959333" lon="10.863145"><ele>26.333333333333332</ele><time>2026-04-04T14:28:30.856Z</time></trkpt><trkpt lat="44.7959933" lon="10.8629517"><ele>26.666666666666664</ele><time>2026-04-04T14:28:31.856Z</time></trkpt><trkpt lat="44.7960583" lon="10.8627483"><ele>27.0</ele><time>2026-04-04T14:28:32.856Z</time></trkpt><trkpt lat="44.796115" lon="10.8625367"><ele>26.333333333333336</ele><time>2026-04-04T14:28:33.856Z</time></trkpt><trkpt lat="44.7961867" lon="10.8623117"><ele>25.666666666666668</ele><time>2026-04-04T14:28:34.856Z</time></trkpt><trkpt lat="44.79627" lon="10.8620867"><ele>25.0</ele><time>2026-04-04T14:28:35.856Z</time></trkpt><trkpt lat="44.7963517" lon="10.86185"><ele>25.0</ele><time>2026-04-04T14:28:36.856Z</time></trkpt><trkpt lat="44.7964317" lon="10.86158"><ele>25.0</ele><time>2026-04-04T14:28:37.856Z</time></trkpt><trkpt lat="44.79652" lon="10.86129"><ele>25.0</ele><time>2026-04-04T14:28:38.855Z</time></trkpt><trkpt lat="44.7966133" lon="10.860995"><ele>24.5</ele><time>2026-04-04T14:28:39.856Z</time></trkpt><trkpt lat="44.7967233" lon="10.8607217"><ele>24.0</ele><time>2026-04-04T14:28:40.856Z</time></trkpt><trkpt lat="44.7968333" lon="10.8604417"><ele>24.0</ele><time>2026-04-04T14:28:41.856Z</time></trkpt><trkpt lat="44.7969567" lon="10.8601833"><ele>24.0</ele><time>2026-04-04T14:28:42.856Z</time></trkpt><trkpt lat="44.7970933" lon="10.8599383"><ele>24.0</ele><time>2026-04-04T14:28:43.856Z</time></trkpt><trkpt lat="44.7972283" lon="10.8597017"><ele>24.0</ele><time>2026-04-04T14:28:44.856Z</time></trkpt><trkpt lat="44.7973617" lon="10.8594733"><ele>24.0</ele><time>2026-04-04T14:28:45.856Z</time></trkpt><trkpt lat="44.7974983" lon="10.8592517"><ele>24.0</ele><time>2026-04-04T14:28:46.856Z</time></trkpt><trkpt lat="44.79764" lon="10.8590433"><ele>23.666666666666668</ele><time>2026-04-04T14:28:47.856Z</time></trkpt><trkpt lat="44.79778" lon="10.8588367"><ele>23.333333333333336</ele><time>2026-04-04T14:28:48.856Z</time></trkpt><trkpt lat="44.79792" lon="10.85863"><ele>23.0</ele><time>2026-04-04T14:28:49.856Z</time></trkpt><trkpt lat="44.79806" lon="10.85841"><ele>23.0</ele><time>2026-04-04T14:28:50.855Z</time></trkpt><trkpt lat="44.7981917" lon="10.8582"><ele>23.0</ele><time>2026-04-04T14:28:51.856Z</time></trkpt><trkpt lat="44.798325" lon="10.8579833"><ele>23.0</ele><time>2026-04-04T14:28:52.856Z</time></trkpt><trkpt lat="44.798475" lon="10.85778"><ele>23.333333333333336</ele><time>2026-04-04T14:28:53.856Z</time></trkpt><trkpt lat="44.7986233" lon="10.8575667"><ele>23.666666666666668</ele><time>2026-04-04T14:28:54.856Z</time></trkpt><trkpt lat="44.7987667" lon="10.85736"><ele>24.0</ele><time>2026-04-04T14:28:55.855Z</time></trkpt><trkpt lat="44.7989" lon="10.8571567"><ele>24.0</ele><time>2026-04-04T14:28:56.855Z</time></trkpt><trkpt lat="44.799025" lon="10.8569633"><ele>24.0</ele><time>2026-04-04T14:28:57.855Z</time></trkpt><trkpt lat="44.7991483" lon="10.8567733"><ele>24.0</ele><time>2026-04-04T14:28:58.855Z</time></trkpt><trkpt lat="44.79927" lon="10.8565867"><ele>25.0</ele><time>2026-04-04T14:28:59.856Z</time></trkpt><trkpt lat="44.799395" lon="10.8564017"><ele>26.0</ele><time>2026-04-04T14:29:00.856Z</time></trkpt><trkpt lat="44.7995233" lon="10.8562117"><ele>27.0</ele><time>2026-04-04T14:29:01.855Z</time></trkpt><trkpt lat="44.7996467" lon="10.8560133"><ele>26.333333333333336</ele><time>2026-04-04T14:29:02.855Z</time></trkpt><trkpt lat="44.79977" lon="10.8558117"><ele>25.666666666666668</ele><time>2026-04-04T14:29:03.856Z</time></trkpt><trkpt lat="44.79989" lon="10.855615"><ele>25.0</ele><time>2026-04-04T14:29:04.856Z</time></trkpt><trkpt lat="44.8000267" lon="10.8554233"><ele>25.0</ele><time>2026-04-04T14:29:05.856Z</time></trkpt><trkpt lat="44.80017" lon="10.8552367"><ele>25.0</ele><time>2026-04-04T14:29:06.856Z</time></trkpt><trkpt lat="44.8003167" lon="10.8550633"><ele>25.0</ele><time>2026-04-04T14:29:07.856Z</time></trkpt><trkpt lat="44.80048" lon="10.854895"><ele>25.0</ele><time>2026-04-04T14:29:08.855Z</time></trkpt><trkpt lat="44.80064" lon="10.854735"><ele>25.0</ele><time>2026-04-04T14:29:09.855Z</time></trkpt><trkpt lat="44.8007983" lon="10.8545733"><ele>25.0</ele><time>2026-04-04T14:29:10.855Z</time></trkpt><trkpt lat="44.8009417" lon="10.8544167"><ele>24.666666666666668</ele><time>2026-04-04T14:29:11.855Z</time></trkpt><trkpt lat="44.8010867" lon="10.8542583"><ele>24.333333333333336</ele><time>2026-04-04T14:29:12.856Z</time></trkpt><trkpt lat="44.8012283" lon="10.8540933"><ele>24.0</ele><time>2026-04-04T14:29:13.856Z</time></trkpt><trkpt lat="44.8013583" lon="10.853905"><ele>24.0</ele><time>2026-04-04T14:29:14.855Z</time></trkpt><trkpt lat="44.8014883" lon="10.8537033"><ele>24.0</ele><time>2026-04-04T14:29:15.856Z</time></trkpt><trkpt lat="44.8016083" lon="10.8534833"><ele>24.0</ele><time>2026-04-04T14:29:16.856Z</time></trkpt><trkpt lat="44.8017183" lon="10.85327"><ele>24.0</ele><time>2026-04-04T14:29:17.856Z</time></trkpt><trkpt lat="44.8018183" lon="10.85308"><ele>24.0</ele><time>2026-04-04T14:29:18.856Z</time></trkpt><trkpt lat="44.8019233" lon="10.8528817"><ele>24.0</ele><time>2026-04-04T14:29:19.856Z</time></trkpt><trkpt lat="44.8020183" lon="10.85269"><ele>24.25</ele><time>2026-04-04T14:29:20.856Z</time></trkpt><trkpt lat="44.8021117" lon="10.85251"><ele>24.5</ele><time>2026-04-04T14:29:21.855Z</time></trkpt><trkpt lat="44.802195" lon="10.8523433"><ele>24.75</ele><time>2026-04-04T14:29:22.855Z</time></trkpt><trkpt lat="44.8022783" lon="10.852185"><ele>25.0</ele><time>2026-04-04T14:29:23.855Z</time></trkpt><trkpt lat="44.8023617" lon="10.8520267"><ele>25.0</ele><time>2026-04-04T14:29:24.855Z</time></trkpt><trkpt lat="44.8024383" lon="10.85188"><ele>25.0</ele><time>2026-04-04T14:29:25.856Z</time></trkpt><trkpt lat="44.8025167" lon="10.8517217"><ele>25.0</ele><time>2026-04-04T14:29:26.856Z</time></trkpt><trkpt lat="44.8025933" lon="10.8515617"><ele>25.0</ele><time>2026-04-04T14:29:27.856Z</time></trkpt><trkpt lat="44.8026717" lon="10.8513867"><ele>25.0</ele><time>2026-04-04T14:29:28.856Z</time></trkpt><trkpt lat="44.80276" lon="10.8512033"><ele>25.0</ele><time>2026-04-04T14:29:29.855Z</time></trkpt><trkpt lat="44.802845" lon="10.85102"><ele>25.0</ele><time>2026-04-04T14:29:30.856Z</time></trkpt><trkpt lat="44.8029367" lon="10.8508383"><ele>25.0</ele><time>2026-04-04T14:29:31.856Z</time></trkpt><trkpt lat="44.8030317" lon="10.8506583"><ele>25.0</ele><time>2026-04-04T14:29:32.856Z</time></trkpt><trkpt lat="44.8031217" lon="10.85048"><ele>25.0</ele><time>2026-04-04T14:29:33.856Z</time></trkpt><trkpt lat="44.8032117" lon="10.8503"><ele>24.666666666666668</ele><time>2026-04-04T14:29:34.856Z</time></trkpt><trkpt lat="44.8032983" lon="10.8501233"><ele>24.333333333333336</ele><time>2026-04-04T14:29:35.855Z</time></trkpt><trkpt lat="44.8033867" lon="10.8499483"><ele>24.0</ele><time>2026-04-04T14:29:36.856Z</time></trkpt><trkpt lat="44.8034783" lon="10.8497667"><ele>24.333333333333336</ele><time>2026-04-04T14:29:37.855Z</time></trkpt><trkpt lat="44.8035683" lon="10.84958"><ele>24.666666666666668</ele><time>2026-04-04T14:29:38.855Z</time></trkpt><trkpt lat="44.8036583" lon="10.84939"><ele>25.0</ele><time>2026-04-04T14:29:39.855Z</time></trkpt><trkpt lat="44.8037433" lon="10.84919"><ele>25.333333333333336</ele><time>2026-04-04T14:29:40.856Z</time></trkpt><trkpt lat="44.803815" lon="10.84898"><ele>25.666666666666664</ele><time>2026-04-04T14:29:41.856Z</time></trkpt><trkpt lat="44.80388" lon="10.8487667"><ele>26.0</ele><time>2026-04-04T14:29:42.855Z</time></trkpt><trkpt lat="44.8039217" lon="10.8485417"><ele>25.5</ele><time>2026-04-04T14:29:43.855Z</time></trkpt><trkpt lat="44.803945" lon="10.8483333"><ele>25.0</ele><time>2026-04-04T14:29:44.855Z</time></trkpt><trkpt lat="44.8039533" lon="10.8481283"><ele>24.5</ele><time>2026-04-04T14:29:45.856Z</time></trkpt><trkpt lat="44.8039667" lon="10.8479267"><ele>24.0</ele><time>2026-04-04T14:29:46.856Z</time></trkpt><trkpt lat="44.8039667" lon="10.8477183"><ele>23.666666666666668</ele><time>2026-04-04T14:29:47.855Z</time></trkpt><trkpt lat="44.8039567" lon="10.8475"><ele>23.333333333333336</ele><time>2026-04-04T14:29:48.856Z</time></trkpt><trkpt lat="44.80394" lon="10.84727"><ele>23.0</ele><time>2026-04-04T14:29:49.855Z</time></trkpt><trkpt lat="44.80392" lon="10.8470317"><ele>23.333333333333336</ele><time>2026-04-04T14:29:50.856Z</time></trkpt><trkpt lat="44.8039017" lon="10.8467683"><ele>23.666666666666668</ele><time>2026-04-04T14:29:51.856Z</time></trkpt><trkpt lat="44.8038767" lon="10.8464883"><ele>24.0</ele><time>2026-04-04T14:29:52.855Z</time></trkpt><trkpt lat="44.8038517" lon="10.8461817"><ele>24.0</ele><time>2026-04-04T14:29:53.856Z</time></trkpt><trkpt lat="44.80382" lon="10.8458517"><ele>24.0</ele><time>2026-04-04T14:29:54.856Z</time></trkpt><trkpt lat="44.8037767" lon="10.8455133"><ele>24.0</ele><time>2026-04-04T14:29:55.855Z</time></trkpt><trkpt lat="44.8037383" lon="10.8451867"><ele>24.0</ele><time>2026-04-04T14:29:56.855Z</time></trkpt><trkpt lat="44.8036983" lon="10.84488"><ele>24.0</ele><time>2026-04-04T14:29:57.856Z</time></trkpt><trkpt lat="44.8036617" lon="10.8446017"><ele>24.0</ele><time>2026-04-04T14:29:58.856Z</time></trkpt><trkpt lat="44.80363" lon="10.8443517"><ele>24.0</ele><time>2026-04-04T14:29:59.855Z</time></trkpt><trkpt lat="44.8035933" lon="10.8441217"><ele>24.0</ele><time>2026-04-04T14:30:00.856Z</time></trkpt><trkpt lat="44.8035683" lon="10.843905"><ele>24.0</ele><time>2026-04-04T14:30:01.855Z</time></trkpt><trkpt lat="44.80354" lon="10.843695"><ele>24.0</ele><time>2026-04-04T14:30:02.856Z</time></trkpt><trkpt lat="44.8035067" lon="10.843485"><ele>24.25</ele><time>2026-04-04T14:30:03.856Z</time></trkpt><trkpt lat="44.8034783" lon="10.843275"><ele>24.5</ele><time>2026-04-04T14:30:04.856Z</time></trkpt><trkpt lat="44.80345" lon="10.8430733"><ele>24.75</ele><time>2026-04-04T14:30:05.856Z</time></trkpt><trkpt lat="44.8034167" lon="10.8428683"><ele>25.0</ele><time>2026-04-04T14:30:06.856Z</time></trkpt><trkpt lat="44.8033783" lon="10.8426533"><ele>24.666666666666668</ele><time>2026-04-04T14:30:07.856Z</time></trkpt><trkpt lat="44.803345" lon="10.8424317"><ele>24.333333333333336</ele><time>2026-04-04T14:30:08.856Z</time></trkpt><trkpt lat="44.80331" lon="10.8422067"><ele>24.0</ele><time>2026-04-04T14:30:09.855Z</time></trkpt><trkpt lat="44.8032767" lon="10.841975"><ele>23.666666666666668</ele><time>2026-04-04T14:30:10.856Z</time></trkpt><trkpt lat="44.8032433" lon="10.8417417"><ele>23.333333333333336</ele><time>2026-04-04T14:30:11.855Z</time></trkpt><trkpt lat="44.80321" lon="10.8415017"><ele>23.0</ele><time>2026-04-04T14:30:12.856Z</time></trkpt><trkpt lat="44.8031933" lon="10.841265"><ele>23.0</ele><time>2026-04-04T14:30:13.855Z</time></trkpt><trkpt lat="44.803195" lon="10.8410267"><ele>23.0</ele><time>2026-04-04T14:30:14.856Z</time></trkpt><trkpt lat="44.8032067" lon="10.8407933"><ele>23.0</ele><time>2026-04-04T14:30:15.856Z</time></trkpt><trkpt lat="44.80323" lon="10.8405583"><ele>23.333333333333336</ele><time>2026-04-04T14:30:16.856Z</time></trkpt><trkpt lat="44.8032583" lon="10.840325"><ele>23.666666666666668</ele><time>2026-04-04T14:30:17.856Z</time></trkpt><trkpt lat="44.8032933" lon="10.8400867"><ele>24.0</ele><time>2026-04-04T14:30:18.856Z</time></trkpt><trkpt lat="44.803325" lon="10.839855"><ele>24.333333333333336</ele><time>2026-04-04T14:30:19.856Z</time></trkpt><trkpt lat="44.8033583" lon="10.839635"><ele>24.666666666666668</ele><time>2026-04-04T14:30:20.855Z</time></trkpt><trkpt lat="44.8033933" lon="10.839425"><ele>25.0</ele><time>2026-04-04T14:30:21.856Z</time></trkpt><trkpt lat="44.8034383" lon="10.8392133"><ele>24.666666666666668</ele><time>2026-04-04T14:30:22.856Z</time></trkpt><trkpt lat="44.8035033" lon="10.838995"><ele>24.333333333333336</ele><time>2026-04-04T14:30:23.856Z</time></trkpt><trkpt lat="44.803585" lon="10.83879"><ele>24.0</ele><time>2026-04-04T14:30:24.855Z</time></trkpt><trkpt lat="44.8036733" lon="10.83859"><ele>24.333333333333336</ele><time>2026-04-04T14:30:25.855Z</time></trkpt><trkpt lat="44.8037667" lon="10.8384"><ele>24.666666666666668</ele><time>2026-04-04T14:30:26.856Z</time></trkpt><trkpt lat="44.80386" lon="10.8382183"><ele>25.0</ele><time>2026-04-04T14:30:27.856Z</time></trkpt><trkpt lat="44.80395" lon="10.8380467"><ele>25.0</ele><time>2026-04-04T14:30:28.855Z</time></trkpt><trkpt lat="44.8040383" lon="10.837885"><ele>25.0</ele><time>2026-04-04T14:30:29.856Z</time></trkpt><trkpt lat="44.80412" lon="10.8377217"><ele>25.0</ele><time>2026-04-04T14:30:30.855Z</time></trkpt><trkpt lat="44.8042083" lon="10.8375567"><ele>25.0</ele><time>2026-04-04T14:30:31.855Z</time></trkpt><trkpt lat="44.8043" lon="10.8373967"><ele>25.25</ele><time>2026-04-04T14:30:32.855Z</time></trkpt><trkpt lat="44.8043833" lon="10.837225"><ele>25.5</ele><time>2026-04-04T14:30:33.856Z</time></trkpt><trkpt lat="44.8044683" lon="10.837055"><ele>25.75</ele><time>2026-04-04T14:30:34.855Z</time></trkpt><trkpt lat="44.804555" lon="10.8368917"><ele>26.0</ele><time>2026-04-04T14:30:35.856Z</time></trkpt><trkpt lat="44.8046517" lon="10.836725"><ele>26.25</ele><time>2026-04-04T14:30:36.856Z</time></trkpt><trkpt lat="44.80475" lon="10.8365633"><ele>26.5</ele><time>2026-04-04T14:30:37.856Z</time></trkpt><trkpt lat="44.80484" lon="10.8364017"><ele>26.75</ele><time>2026-04-04T14:30:38.856Z</time></trkpt><trkpt lat="44.8049283" lon="10.8362267"><ele>27.0</ele><time>2026-04-04T14:30:39.856Z</time></trkpt><trkpt lat="44.80501" lon="10.83605"><ele>27.0</ele><time>2026-04-04T14:30:40.855Z</time></trkpt><trkpt lat="44.8050983" lon="10.8358783"><ele>27.0</ele><time>2026-04-04T14:30:41.856Z</time></trkpt><trkpt lat="44.80519" lon="10.8357067"><ele>27.0</ele><time>2026-04-04T14:30:42.856Z</time></trkpt><trkpt lat="44.8052783" lon="10.8355233"><ele>27.0</ele><time>2026-04-04T14:30:43.855Z</time></trkpt><trkpt lat="44.80536" lon="10.8353217"><ele>27.0</ele><time>2026-04-04T14:30:44.856Z</time></trkpt><trkpt lat="44.8054283" lon="10.8351033"><ele>27.0</ele><time>2026-04-04T14:30:45.856Z</time></trkpt><trkpt lat="44.8054967" lon="10.8348817"><ele>25.666666666666668</ele><time>2026-04-04T14:30:46.856Z</time></trkpt><trkpt lat="44.8055683" lon="10.8346567"><ele>24.333333333333336</ele><time>2026-04-04T14:30:47.856Z</time></trkpt><trkpt lat="44.8056333" lon="10.8344417"><ele>23.0</ele><time>2026-04-04T14:30:48.856Z</time></trkpt><trkpt lat="44.8056917" lon="10.8342283"><ele>23.0</ele><time>2026-04-04T14:30:49.855Z</time></trkpt><trkpt lat="44.8057533" lon="10.83402"><ele>23.0</ele><time>2026-04-04T14:30:50.856Z</time></trkpt><trkpt lat="44.8058117" lon="10.8338033"><ele>23.0</ele><time>2026-04-04T14:30:51.856Z</time></trkpt><trkpt lat="44.8058717" lon="10.8335767"><ele>23.0</ele><time>2026-04-04T14:30:52.855Z</time></trkpt><trkpt lat="44.805945" lon="10.8333367"><ele>23.0</ele><time>2026-04-04T14:30:53.856Z</time></trkpt><trkpt lat="44.8060233" lon="10.8330717"><ele>23.0</ele><time>2026-04-04T14:30:54.856Z</time></trkpt><trkpt lat="44.8061033" lon="10.832785"><ele>23.666666666666668</ele><time>2026-04-04T14:30:55.856Z</time></trkpt><trkpt lat="44.806185" lon="10.8324883"><ele>24.333333333333336</ele><time>2026-04-04T14:30:56.856Z</time></trkpt><trkpt lat="44.806255" lon="10.832195"><ele>25.0</ele><time>2026-04-04T14:30:57.855Z</time></trkpt><trkpt lat="44.8062983" lon="10.8319"><ele>24.333333333333336</ele><time>2026-04-04T14:30:58.856Z</time></trkpt><trkpt lat="44.80632" lon="10.8316083"><ele>23.666666666666668</ele><time>2026-04-04T14:30:59.856Z</time></trkpt><trkpt lat="44.80634" lon="10.8313417"><ele>23.0</ele><time>2026-04-04T14:31:00.856Z</time></trkpt><trkpt lat="44.8063533" lon="10.8310767"><ele>23.333333333333336</ele><time>2026-04-04T14:31:01.856Z</time></trkpt><trkpt lat="44.8063617" lon="10.8308183"><ele>23.666666666666668</ele><time>2026-04-04T14:31:02.856Z</time></trkpt><trkpt lat="44.806375" lon="10.8305617"><ele>24.0</ele><time>2026-04-04T14:31:03.856Z</time></trkpt><trkpt lat="44.8063933" lon="10.8303117"><ele>24.333333333333336</ele><time>2026-04-04T14:31:04.856Z</time></trkpt><trkpt lat="44.8064217" lon="10.83006"><ele>24.666666666666668</ele><time>2026-04-04T14:31:05.856Z</time></trkpt><trkpt lat="44.8064517" lon="10.8298067"><ele>25.0</ele><time>2026-04-04T14:31:06.856Z</time></trkpt><trkpt lat="44.8064917" lon="10.8295483"><ele>25.0</ele><time>2026-04-04T14:31:07.856Z</time></trkpt><trkpt lat="44.8065567" lon="10.8292967"><ele>25.0</ele><time>2026-04-04T14:31:08.856Z</time></trkpt><trkpt lat="44.8066383" lon="10.82905"><ele>25.0</ele><time>2026-04-04T14:31:09.856Z</time></trkpt><trkpt lat="44.8067317" lon="10.8288017"><ele>24.0</ele><time>2026-04-04T14:31:10.856Z</time></trkpt><trkpt lat="44.8068367" lon="10.8285533"><ele>23.0</ele><time>2026-04-04T14:31:11.856Z</time></trkpt><trkpt lat="44.8069267" lon="10.8283167"><ele>22.0</ele><time>2026-04-04T14:31:12.856Z</time></trkpt><trkpt lat="44.8070133" lon="10.8280917"><ele>22.0</ele><time>2026-04-04T14:31:13.856Z</time></trkpt><trkpt lat="44.8071067" lon="10.8278783"><ele>22.0</ele><time>2026-04-04T14:31:14.855Z</time></trkpt><trkpt lat="44.8072067" lon="10.8276733"><ele>22.0</ele><time>2026-04-04T14:31:15.856Z</time></trkpt><trkpt lat="44.8073233" lon="10.82747"><ele>22.333333333333332</ele><time>2026-04-04T14:31:16.856Z</time></trkpt><trkpt lat="44.8074483" lon="10.8272817"><ele>22.666666666666668</ele><time>2026-04-04T14:31:17.856Z</time></trkpt><trkpt lat="44.8075817" lon="10.8270917"><ele>23.0</ele><time>2026-04-04T14:31:18.856Z</time></trkpt><trkpt lat="44.8077283" lon="10.82691"><ele>22.666666666666668</ele><time>2026-04-04T14:31:19.855Z</time></trkpt><trkpt lat="44.8078883" lon="10.8267467"><ele>22.333333333333332</ele><time>2026-04-04T14:31:20.856Z</time></trkpt><trkpt lat="44.80805" lon="10.8265817"><ele>22.0</ele><time>2026-04-04T14:31:21.856Z</time></trkpt><trkpt lat="44.8082117" lon="10.8264117"><ele>22.0</ele><time>2026-04-04T14:31:22.855Z</time></trkpt><trkpt lat="44.808355" lon="10.8262333"><ele>22.0</ele><time>2026-04-04T14:31:23.856Z</time></trkpt><trkpt lat="44.8084917" lon="10.82603"><ele>22.0</ele><time>2026-04-04T14:31:24.856Z</time></trkpt><trkpt lat="44.808625" lon="10.825815"><ele>22.666666666666664</ele><time>2026-04-04T14:31:25.856Z</time></trkpt><trkpt lat="44.8087467" lon="10.8256033"><ele>23.333333333333332</ele><time>2026-04-04T14:31:26.856Z</time></trkpt><trkpt lat="44.8088567" lon="10.8253783"><ele>24.0</ele><time>2026-04-04T14:31:27.855Z</time></trkpt><trkpt lat="44.8089633" lon="10.8251467"><ele>24.0</ele><time>2026-04-04T14:31:28.855Z</time></trkpt><trkpt lat="44.8090783" lon="10.8249167"><ele>24.0</ele><time>2026-04-04T14:31:29.856Z</time></trkpt><trkpt lat="44.80919" lon="10.8246833"><ele>24.0</ele><time>2026-04-04T14:31:30.855Z</time></trkpt><trkpt lat="44.8093" lon="10.8244583"><ele>23.333333333333332</ele><time>2026-04-04T14:31:31.856Z</time></trkpt><trkpt lat="44.8094167" lon="10.82422"><ele>22.666666666666664</ele><time>2026-04-04T14:31:32.856Z</time></trkpt><trkpt lat="44.8095367" lon="10.8239883"><ele>22.0</ele><time>2026-04-04T14:31:33.856Z</time></trkpt><trkpt lat="44.8096467" lon="10.8237383"><ele>22.0</ele><time>2026-04-04T14:31:34.856Z</time></trkpt><trkpt lat="44.8097533" lon="10.8234983"><ele>22.0</ele><time>2026-04-04T14:31:35.856Z</time></trkpt><trkpt lat="44.8098467" lon="10.8232733"><ele>22.0</ele><time>2026-04-04T14:31:36.856Z</time></trkpt><trkpt lat="44.8099333" lon="10.8230467"><ele>22.333333333333332</ele><time>2026-04-04T14:31:37.855Z</time></trkpt><trkpt lat="44.8100167" lon="10.8228117"><ele>22.666666666666668</ele><time>2026-04-04T14:31:38.855Z</time></trkpt><trkpt lat="44.81009" lon="10.8225617"><ele>23.0</ele><time>2026-04-04T14:31:39.856Z</time></trkpt><trkpt lat="44.81016" lon="10.8223017"><ele>23.0</ele><time>2026-04-04T14:31:40.855Z</time></trkpt><trkpt lat="44.8102167" lon="10.8220517"><ele>23.0</ele><time>2026-04-04T14:31:41.856Z</time></trkpt><trkpt lat="44.81026" lon="10.8218033"><ele>23.0</ele><time>2026-04-04T14:31:42.855Z</time></trkpt><trkpt lat="44.8103133" lon="10.8215633"><ele>23.333333333333336</ele><time>2026-04-04T14:31:43.856Z</time></trkpt><trkpt lat="44.8103633" lon="10.8213117"><ele>23.666666666666668</ele><time>2026-04-04T14:31:44.856Z</time></trkpt><trkpt lat="44.8104167" lon="10.8210517"><ele>24.0</ele><time>2026-04-04T14:31:45.855Z</time></trkpt><trkpt lat="44.8104717" lon="10.820785"><ele>23.333333333333332</ele><time>2026-04-04T14:31:46.856Z</time></trkpt><trkpt lat="44.810525" lon="10.8205233"><ele>22.666666666666664</ele><time>2026-04-04T14:31:47.856Z</time></trkpt><trkpt lat="44.8105883" lon="10.8202533"><ele>22.0</ele><time>2026-04-04T14:31:48.856Z</time></trkpt><trkpt lat="44.810635" lon="10.81998"><ele>22.0</ele><time>2026-04-04T14:31:49.855Z</time></trkpt><trkpt lat="44.8106867" lon="10.81971"><ele>22.0</ele><time>2026-04-04T14:31:50.856Z</time></trkpt><trkpt lat="44.8107383" lon="10.8194567"><ele>22.0</ele><time>2026-04-04T14:31:51.855Z</time></trkpt><trkpt lat="44.8107883" lon="10.8192167"><ele>22.333333333333332</ele><time>2026-04-04T14:31:52.856Z</time></trkpt><trkpt lat="44.8108367" lon="10.8190017"><ele>22.666666666666668</ele><time>2026-04-04T14:31:53.856Z</time></trkpt><trkpt lat="44.8108867" lon="10.8187783"><ele>23.0</ele><time>2026-04-04T14:31:54.855Z</time></trkpt><trkpt lat="44.8109317" lon="10.8185633"><ele>23.0</ele><time>2026-04-04T14:31:55.856Z</time></trkpt><trkpt lat="44.810975" lon="10.8183367"><ele>23.0</ele><time>2026-04-04T14:31:56.856Z</time></trkpt><trkpt lat="44.811025" lon="10.8181233"><ele>23.0</ele><time>2026-04-04T14:31:57.856Z</time></trkpt><trkpt lat="44.8110667" lon="10.8179217"><ele>23.2</ele><time>2026-04-04T14:31:58.856Z</time></trkpt><trkpt lat="44.8111017" lon="10.81775"><ele>23.4</ele><time>2026-04-04T14:31:59.856Z</time></trkpt><trkpt lat="44.8111333" lon="10.8176067"><ele>23.599999999999998</ele><time>2026-04-04T14:32:00.855Z</time></trkpt><trkpt lat="44.8111667" lon="10.8174917"><ele>23.799999999999997</ele><time>2026-04-04T14:32:01.856Z</time></trkpt><trkpt lat="44.8112" lon="10.81739"><ele>24.0</ele><time>2026-04-04T14:32:02.856Z</time></trkpt><trkpt lat="44.8112283" lon="10.8172867"><ele>24.0</ele><time>2026-04-04T14:32:03.855Z</time></trkpt><trkpt lat="44.8112633" lon="10.8171833"><ele>24.0</ele><time>2026-04-04T14:32:04.855Z</time></trkpt><trkpt lat="44.81128" lon="10.8170533"><ele>24.0</ele><time>2026-04-04T14:32:05.855Z</time></trkpt><trkpt lat="44.8112967" lon="10.8168867"><ele>24.0</ele><time>2026-04-04T14:32:06.856Z</time></trkpt><trkpt lat="44.811315" lon="10.8167067"><ele>24.0</ele><time>2026-04-04T14:32:07.856Z</time></trkpt><trkpt lat="44.811355" lon="10.8165067"><ele>23.666666666666668</ele><time>2026-04-04T14:32:08.855Z</time></trkpt><trkpt lat="44.811405" lon="10.8163017"><ele>23.333333333333336</ele><time>2026-04-04T14:32:09.856Z</time></trkpt><trkpt lat="44.8114633" lon="10.8160967"><ele>23.0</ele><time>2026-04-04T14:32:10.856Z</time></trkpt><trkpt lat="44.8115333" lon="10.81589"><ele>22.333333333333336</ele><time>2026-04-04T14:32:11.856Z</time></trkpt><trkpt lat="44.8116133" lon="10.8156667"><ele>21.666666666666668</ele><time>2026-04-04T14:32:12.855Z</time></trkpt><trkpt lat="44.8117033" lon="10.8154567"><ele>21.0</ele><time>2026-04-04T14:32:13.856Z</time></trkpt><trkpt lat="44.8118" lon="10.8152533"><ele>21.333333333333332</ele><time>2026-04-04T14:32:14.856Z</time></trkpt><trkpt lat="44.8119067" lon="10.8150417"><ele>21.666666666666664</ele><time>2026-04-04T14:32:15.855Z</time></trkpt><trkpt lat="44.8120183" lon="10.8148333"><ele>22.0</ele><time>2026-04-04T14:32:16.856Z</time></trkpt><trkpt lat="44.812145" lon="10.81463"><ele>22.0</ele><time>2026-04-04T14:32:17.856Z</time></trkpt><trkpt lat="44.8122833" lon="10.8144367"><ele>22.0</ele><time>2026-04-04T14:32:18.856Z</time></trkpt><trkpt lat="44.81243" lon="10.8142467"><ele>22.0</ele><time>2026-04-04T14:32:19.856Z</time></trkpt><trkpt lat="44.8125733" lon="10.8140533"><ele>21.666666666666664</ele><time>2026-04-04T14:32:20.856Z</time></trkpt><trkpt lat="44.812705" lon="10.8138733"><ele>21.333333333333332</ele><time>2026-04-04T14:32:21.856Z</time></trkpt><trkpt lat="44.8128383" lon="10.8136883"><ele>21.0</ele><time>2026-04-04T14:32:22.856Z</time></trkpt><trkpt lat="44.8129717" lon="10.81351"><ele>21.333333333333332</ele><time>2026-04-04T14:32:23.856Z</time></trkpt><trkpt lat="44.8131" lon="10.8133333"><ele>21.666666666666664</ele><time>2026-04-04T14:32:24.856Z</time></trkpt><trkpt lat="44.8132383" lon="10.81316"><ele>22.0</ele><time>2026-04-04T14:32:25.856Z</time></trkpt><trkpt lat="44.813375" lon="10.81298"><ele>22.333333333333332</ele><time>2026-04-04T14:32:26.855Z</time></trkpt><trkpt lat="44.8135117" lon="10.8127933"><ele>22.666666666666668</ele><time>2026-04-04T14:32:27.856Z</time></trkpt><trkpt lat="44.8136483" lon="10.8126083"><ele>23.0</ele><time>2026-04-04T14:32:28.856Z</time></trkpt><trkpt lat="44.8137867" lon="10.81242"><ele>23.0</ele><time>2026-04-04T14:32:29.855Z</time></trkpt><trkpt lat="44.8139317" lon="10.812235"><ele>23.0</ele><time>2026-04-04T14:32:30.856Z</time></trkpt><trkpt lat="44.814065" lon="10.8120517"><ele>23.0</ele><time>2026-04-04T14:32:31.855Z</time></trkpt><trkpt lat="44.814195" lon="10.8118767"><ele>22.666666666666668</ele><time>2026-04-04T14:32:32.856Z</time></trkpt><trkpt lat="44.814315" lon="10.8117117"><ele>22.333333333333332</ele><time>2026-04-04T14:32:33.856Z</time></trkpt><trkpt lat="44.8144367" lon="10.8115517"><ele>22.0</ele><time>2026-04-04T14:32:34.856Z</time></trkpt><trkpt lat="44.8145533" lon="10.81139"><ele>21.666666666666664</ele><time>2026-04-04T14:32:35.856Z</time></trkpt><trkpt lat="44.8146717" lon="10.8112233"><ele>21.333333333333332</ele><time>2026-04-04T14:32:36.855Z</time></trkpt><trkpt lat="44.8147833" lon="10.8110667"><ele>21.0</ele><time>2026-04-04T14:32:37.855Z</time></trkpt><trkpt lat="44.8149033" lon="10.8109033"><ele>21.0</ele><time>2026-04-04T14:32:38.856Z</time></trkpt><trkpt lat="44.815025" lon="10.8107383"><ele>21.0</ele><time>2026-04-04T14:32:39.856Z</time></trkpt><trkpt lat="44.8151483" lon="10.8105733"><ele>21.0</ele><time>2026-04-04T14:32:40.856Z</time></trkpt><trkpt lat="44.8152717" lon="10.8104117"><ele>21.333333333333332</ele><time>2026-04-04T14:32:41.856Z</time></trkpt><trkpt lat="44.8153933" lon="10.810245"><ele>21.666666666666664</ele><time>2026-04-04T14:32:42.856Z</time></trkpt><trkpt lat="44.8155067" lon="10.810075"><ele>22.0</ele><time>2026-04-04T14:32:43.856Z</time></trkpt><trkpt lat="44.815625" lon="10.8099083"><ele>22.0</ele><time>2026-04-04T14:32:44.856Z</time></trkpt><trkpt lat="44.8157467" lon="10.8097383"><ele>22.0</ele><time>2026-04-04T14:32:45.855Z</time></trkpt><trkpt lat="44.815885" lon="10.809575"><ele>22.0</ele><time>2026-04-04T14:32:46.856Z</time></trkpt><trkpt lat="44.8160167" lon="10.8094033"><ele>22.0</ele><time>2026-04-04T14:32:47.856Z</time></trkpt><trkpt lat="44.8161533" lon="10.80923"><ele>22.0</ele><time>2026-04-04T14:32:48.856Z</time></trkpt><trkpt lat="44.8162733" lon="10.8090517"><ele>22.0</ele><time>2026-04-04T14:32:49.856Z</time></trkpt><trkpt lat="44.8163917" lon="10.8088883"><ele>22.0</ele><time>2026-04-04T14:32:50.856Z</time></trkpt><trkpt lat="44.816505" lon="10.808725"><ele>22.0</ele><time>2026-04-04T14:32:51.855Z</time></trkpt><trkpt lat="44.8166233" lon="10.80857"><ele>22.0</ele><time>2026-04-04T14:32:52.856Z</time></trkpt><trkpt lat="44.8167417" lon="10.8084083"><ele>22.0</ele><time>2026-04-04T14:32:53.855Z</time></trkpt><trkpt lat="44.816855" lon="10.808245"><ele>22.0</ele><time>2026-04-04T14:32:54.856Z</time></trkpt><trkpt lat="44.8169767" lon="10.808075"><ele>22.0</ele><time>2026-04-04T14:32:55.856Z</time></trkpt><trkpt lat="44.8170933" lon="10.8079033"><ele>22.0</ele><time>2026-04-04T14:32:56.856Z</time></trkpt><trkpt lat="44.8172067" lon="10.8077217"><ele>22.0</ele><time>2026-04-04T14:32:57.855Z</time></trkpt><trkpt lat="44.8173133" lon="10.8075367"><ele>22.0</ele><time>2026-04-04T14:32:58.856Z</time></trkpt><trkpt lat="44.8174017" lon="10.80735"><ele>22.0</ele><time>2026-04-04T14:32:59.855Z</time></trkpt><trkpt lat="44.8174783" lon="10.8071667"><ele>22.0</ele><time>2026-04-04T14:33:00.855Z</time></trkpt><trkpt lat="44.817545" lon="10.8069983"><ele>22.0</ele><time>2026-04-04T14:33:01.856Z</time></trkpt><trkpt lat="44.817595" lon="10.8068417"><ele>22.0</ele><time>2026-04-04T14:33:02.855Z</time></trkpt><trkpt lat="44.8176383" lon="10.8067133"><ele>22.166666666666664</ele><time>2026-04-04T14:33:03.856Z</time></trkpt><trkpt lat="44.8176767" lon="10.8066067"><ele>22.333333333333332</ele><time>2026-04-04T14:33:04.856Z</time></trkpt><trkpt lat="44.817715" lon="10.8065217"><ele>22.5</ele><time>2026-04-04T14:33:05.856Z</time></trkpt><trkpt lat="44.8177583" lon="10.806445"><ele>22.666666666666668</ele><time>2026-04-04T14:33:06.856Z</time></trkpt><trkpt lat="44.8178" lon="10.80635"><ele>22.833333333333336</ele><time>2026-04-04T14:33:07.856Z</time></trkpt><trkpt lat="44.81782" lon="10.8062233"><ele>23.0</ele><time>2026-04-04T14:33:08.855Z</time></trkpt><trkpt lat="44.81782" lon="10.8060617"><ele>23.0</ele><time>2026-04-04T14:33:09.856Z</time></trkpt><trkpt lat="44.8178367" lon="10.8058783"><ele>23.0</ele><time>2026-04-04T14:33:10.856Z</time></trkpt><trkpt lat="44.8178633" lon="10.80569"><ele>23.0</ele><time>2026-04-04T14:33:11.855Z</time></trkpt><trkpt lat="44.8179117" lon="10.805495"><ele>23.0</ele><time>2026-04-04T14:33:12.856Z</time></trkpt><trkpt lat="44.81796" lon="10.805295"><ele>22.666666666666668</ele><time>2026-04-04T14:33:13.855Z</time></trkpt><trkpt lat="44.818005" lon="10.805095"><ele>22.333333333333332</ele><time>2026-04-04T14:33:14.855Z</time></trkpt><trkpt lat="44.8180517" lon="10.8048917"><ele>22.0</ele><time>2026-04-04T14:33:15.856Z</time></trkpt><trkpt lat="44.8180983" lon="10.8046883"><ele>22.0</ele><time>2026-04-04T14:33:16.856Z</time></trkpt><trkpt lat="44.8181467" lon="10.804475"><ele>22.0</ele><time>2026-04-04T14:33:17.856Z</time></trkpt><trkpt lat="44.8181917" lon="10.8042517"><ele>22.0</ele><time>2026-04-04T14:33:18.856Z</time></trkpt><trkpt lat="44.818235" lon="10.8040383"><ele>21.333333333333332</ele><time>2026-04-04T14:33:19.855Z</time></trkpt><trkpt lat="44.8182767" lon="10.8038217"><ele>20.666666666666668</ele><time>2026-04-04T14:33:20.855Z</time></trkpt><trkpt lat="44.81832" lon="10.8036083"><ele>20.0</ele><time>2026-04-04T14:33:21.854Z</time></trkpt><trkpt lat="44.818365" lon="10.8034017"><ele>20.0</ele><time>2026-04-04T14:33:22.855Z</time></trkpt><trkpt lat="44.8184083" lon="10.8032083"><ele>20.0</ele><time>2026-04-04T14:33:23.855Z</time></trkpt><trkpt lat="44.818455" lon="10.80302"><ele>20.0</ele><time>2026-04-04T14:33:24.855Z</time></trkpt><trkpt lat="44.8184983" lon="10.80282"><ele>20.0</ele><time>2026-04-04T14:33:25.855Z</time></trkpt><trkpt lat="44.818545" lon="10.8026067"><ele>20.333333333333336</ele><time>2026-04-04T14:33:26.854Z</time></trkpt><trkpt lat="44.8185983" lon="10.8023917"><ele>20.666666666666668</ele><time>2026-04-04T14:33:27.854Z</time></trkpt><trkpt lat="44.8186467" lon="10.8021733"><ele>21.0</ele><time>2026-04-04T14:33:28.855Z</time></trkpt><trkpt lat="44.8186933" lon="10.8019567"><ele>21.0</ele><time>2026-04-04T14:33:29.855Z</time></trkpt><trkpt lat="44.8187467" lon="10.8017317"><ele>21.0</ele><time>2026-04-04T14:33:30.854Z</time></trkpt><trkpt lat="44.8188033" lon="10.801515"><ele>21.0</ele><time>2026-04-04T14:33:31.855Z</time></trkpt><trkpt lat="44.8188517" lon="10.8012983"><ele>21.0</ele><time>2026-04-04T14:33:32.855Z</time></trkpt><trkpt lat="44.8189017" lon="10.8010767"><ele>21.0</ele><time>2026-04-04T14:33:33.854Z</time></trkpt><trkpt lat="44.8189483" lon="10.8008483"><ele>21.0</ele><time>2026-04-04T14:33:34.855Z</time></trkpt><trkpt lat="44.8189967" lon="10.8006233"><ele>21.333333333333332</ele><time>2026-04-04T14:33:35.854Z</time></trkpt><trkpt lat="44.819035" lon="10.800415"><ele>21.666666666666664</ele><time>2026-04-04T14:33:36.854Z</time></trkpt><trkpt lat="44.819075" lon="10.80021"><ele>22.0</ele><time>2026-04-04T14:33:37.854Z</time></trkpt><trkpt lat="44.8191233" lon="10.8000133"><ele>22.0</ele><time>2026-04-04T14:33:38.855Z</time></trkpt><trkpt lat="44.8191683" lon="10.7998117"><ele>22.0</ele><time>2026-04-04T14:33:39.855Z</time></trkpt><trkpt lat="44.8192133" lon="10.7996133"><ele>22.0</ele><time>2026-04-04T14:33:40.854Z</time></trkpt><trkpt lat="44.81926" lon="10.7994183"><ele>22.0</ele><time>2026-04-04T14:33:41.855Z</time></trkpt><trkpt lat="44.8193067" lon="10.7992183"><ele>22.0</ele><time>2026-04-04T14:33:42.855Z</time></trkpt><trkpt lat="44.8193483" lon="10.7990183"><ele>22.0</ele><time>2026-04-04T14:33:43.854Z</time></trkpt><trkpt lat="44.8193933" lon="10.7988183"><ele>22.0</ele><time>2026-04-04T14:33:44.855Z</time></trkpt><trkpt lat="44.8194417" lon="10.7986133"><ele>22.333333333333332</ele><time>2026-04-04T14:33:45.855Z</time></trkpt><trkpt lat="44.81949" lon="10.7984033"><ele>22.666666666666668</ele><time>2026-04-04T14:33:46.855Z</time></trkpt><trkpt lat="44.819535" lon="10.7981817"><ele>23.0</ele><time>2026-04-04T14:33:47.855Z</time></trkpt><trkpt lat="44.81958" lon="10.79797"><ele>23.0</ele><time>2026-04-04T14:33:48.855Z</time></trkpt><trkpt lat="44.8196317" lon="10.7977517"><ele>23.0</ele><time>2026-04-04T14:33:49.854Z</time></trkpt><trkpt lat="44.8196783" lon="10.79754"><ele>23.0</ele><time>2026-04-04T14:33:50.855Z</time></trkpt><trkpt lat="44.8197267" lon="10.7973333"><ele>23.333333333333336</ele><time>2026-04-04T14:33:51.855Z</time></trkpt><trkpt lat="44.819775" lon="10.7971317"><ele>23.666666666666668</ele><time>2026-04-04T14:33:52.854Z</time></trkpt><trkpt lat="44.8198167" lon="10.79692"><ele>24.0</ele><time>2026-04-04T14:33:53.854Z</time></trkpt><trkpt lat="44.81986" lon="10.7967183"><ele>23.5</ele><time>2026-04-04T14:33:54.855Z</time></trkpt><trkpt lat="44.8199067" lon="10.7965133"><ele>23.0</ele><time>2026-04-04T14:33:55.855Z</time></trkpt><trkpt lat="44.8199567" lon="10.79631"><ele>22.5</ele><time>2026-04-04T14:33:56.855Z</time></trkpt><trkpt lat="44.819995" lon="10.796125"><ele>22.0</ele><time>2026-04-04T14:33:57.855Z</time></trkpt><trkpt lat="44.8200267" lon="10.795945"><ele>22.0</ele><time>2026-04-04T14:33:58.855Z</time></trkpt><trkpt lat="44.8200617" lon="10.7957733"><ele>22.0</ele><time>2026-04-04T14:33:59.855Z</time></trkpt><trkpt lat="44.8200983" lon="10.7956067"><ele>22.0</ele><time>2026-04-04T14:34:00.855Z</time></trkpt><trkpt lat="44.8201317" lon="10.7954417"><ele>22.0</ele><time>2026-04-04T14:34:01.855Z</time></trkpt><trkpt lat="44.82017" lon="10.79527"><ele>22.5</ele><time>2026-04-04T14:34:02.855Z</time></trkpt><trkpt lat="44.8202117" lon="10.7950817"><ele>23.0</ele><time>2026-04-04T14:34:03.855Z</time></trkpt><trkpt lat="44.8202583" lon="10.7948783"><ele>23.5</ele><time>2026-04-04T14:34:04.855Z</time></trkpt><trkpt lat="44.8203033" lon="10.794665"><ele>24.0</ele><time>2026-04-04T14:34:05.855Z</time></trkpt><trkpt lat="44.8203517" lon="10.794455"><ele>23.5</ele><time>2026-04-04T14:34:06.855Z</time></trkpt><trkpt lat="44.8203983" lon="10.7942483"><ele>23.0</ele><time>2026-04-04T14:34:07.854Z</time></trkpt><trkpt lat="44.82044" lon="10.794055"><ele>22.5</ele><time>2026-04-04T14:34:08.855Z</time></trkpt><trkpt lat="44.8204833" lon="10.7938633"><ele>22.0</ele><time>2026-04-04T14:34:09.855Z</time></trkpt><trkpt lat="44.8205233" lon="10.793675"><ele>22.25</ele><time>2026-04-04T14:34:10.855Z</time></trkpt><trkpt lat="44.820575" lon="10.7934867"><ele>22.5</ele><time>2026-04-04T14:34:11.855Z</time></trkpt><trkpt lat="44.8206167" lon="10.7932967"><ele>22.75</ele><time>2026-04-04T14:34:12.854Z</time></trkpt><trkpt lat="44.8206567" lon="10.793105"><ele>23.0</ele><time>2026-04-04T14:34:13.855Z</time></trkpt><trkpt lat="44.8206983" lon="10.7929117"><ele>23.0</ele><time>2026-04-04T14:34:14.854Z</time></trkpt><trkpt lat="44.8207367" lon="10.7927167"><ele>23.0</ele><time>2026-04-04T14:34:15.855Z</time></trkpt><trkpt lat="44.8207833" lon="10.7925417"><ele>23.0</ele><time>2026-04-04T14:34:16.855Z</time></trkpt><trkpt lat="44.820825" lon="10.7923517"><ele>23.0</ele><time>2026-04-04T14:34:17.854Z</time></trkpt><trkpt lat="44.8208667" lon="10.79217"><ele>23.0</ele><time>2026-04-04T14:34:18.855Z</time></trkpt><trkpt lat="44.8209033" lon="10.7919783"><ele>23.0</ele><time>2026-04-04T14:34:19.855Z</time></trkpt><trkpt lat="44.8209433" lon="10.7918017"><ele>23.0</ele><time>2026-04-04T14:34:20.855Z</time></trkpt><trkpt lat="44.820985" lon="10.791615"><ele>23.0</ele><time>2026-04-04T14:34:21.855Z</time></trkpt><trkpt lat="44.82103" lon="10.7914333"><ele>23.25</ele><time>2026-04-04T14:34:22.855Z</time></trkpt><trkpt lat="44.82107" lon="10.79126"><ele>23.5</ele><time>2026-04-04T14:34:23.854Z</time></trkpt><trkpt lat="44.8211183" lon="10.791105"><ele>23.75</ele><time>2026-04-04T14:34:24.855Z</time></trkpt><trkpt lat="44.8211667" lon="10.79096"><ele>24.0</ele><time>2026-04-04T14:34:25.855Z</time></trkpt><trkpt lat="44.8212167" lon="10.79082"><ele>24.0</ele><time>2026-04-04T14:34:26.855Z</time></trkpt><trkpt lat="44.82127" lon="10.7907033"><ele>24.0</ele><time>2026-04-04T14:34:27.855Z</time></trkpt><trkpt lat="44.8213367" lon="10.7906067"><ele>24.0</ele><time>2026-04-04T14:34:28.854Z</time></trkpt><trkpt lat="44.8214117" lon="10.790535"><ele>24.0</ele><time>2026-04-04T14:34:29.855Z</time></trkpt><trkpt lat="44.8214867" lon="10.79047"><ele>24.0</ele><time>2026-04-04T14:34:30.854Z</time></trkpt><trkpt lat="44.8215467" lon="10.7903733"><ele>24.0</ele><time>2026-04-04T14:34:31.855Z</time></trkpt><trkpt lat="44.8215867" lon="10.790245"><ele>24.0</ele><time>2026-04-04T14:34:32.855Z</time></trkpt><trkpt lat="44.8215983" lon="10.7900983"><ele>24.0</ele><time>2026-04-04T14:34:33.855Z</time></trkpt><trkpt lat="44.8216183" lon="10.7899417"><ele>24.0</ele><time>2026-04-04T14:34:34.855Z</time></trkpt><trkpt lat="44.8216567" lon="10.7897817"><ele>24.0</ele><time>2026-04-04T14:34:35.855Z</time></trkpt><trkpt lat="44.8217133" lon="10.7896233"><ele>23.75</ele><time>2026-04-04T14:34:36.855Z</time></trkpt><trkpt lat="44.8217917" lon="10.7894583"><ele>23.5</ele><time>2026-04-04T14:34:37.855Z</time></trkpt><trkpt lat="44.8218783" lon="10.78929"><ele>23.25</ele><time>2026-04-04T14:34:38.855Z</time></trkpt><trkpt lat="44.8219667" lon="10.7891133"><ele>23.0</ele><time>2026-04-04T14:34:39.855Z</time></trkpt><trkpt lat="44.82205" lon="10.7889333"><ele>22.666666666666668</ele><time>2026-04-04T14:34:40.855Z</time></trkpt><trkpt lat="44.8221367" lon="10.78875"><ele>22.333333333333332</ele><time>2026-04-04T14:34:41.855Z</time></trkpt><trkpt lat="44.82222" lon="10.7885617"><ele>22.0</ele><time>2026-04-04T14:34:42.855Z</time></trkpt><trkpt lat="44.8223133" lon="10.78837"><ele>22.0</ele><time>2026-04-04T14:34:43.855Z</time></trkpt><trkpt lat="44.82241" lon="10.7881667"><ele>22.0</ele><time>2026-04-04T14:34:44.854Z</time></trkpt><trkpt lat="44.82251" lon="10.7879567"><ele>22.0</ele><time>2026-04-04T14:34:45.855Z</time></trkpt><trkpt lat="44.822615" lon="10.7877417"><ele>22.0</ele><time>2026-04-04T14:34:46.855Z</time></trkpt><trkpt lat="44.8227217" lon="10.78752"><ele>22.0</ele><time>2026-04-04T14:34:47.855Z</time></trkpt><trkpt lat="44.8228283" lon="10.787295"><ele>22.0</ele><time>2026-04-04T14:34:48.854Z</time></trkpt><trkpt lat="44.82294" lon="10.7870667"><ele>22.0</ele><time>2026-04-04T14:34:49.855Z</time></trkpt><trkpt lat="44.8230533" lon="10.7868283"><ele>22.0</ele><time>2026-04-04T14:34:50.855Z</time></trkpt><trkpt lat="44.8231633" lon="10.7865867"><ele>22.0</ele><time>2026-04-04T14:34:51.855Z</time></trkpt><trkpt lat="44.823265" lon="10.78636"><ele>22.0</ele><time>2026-04-04T14:34:52.855Z</time></trkpt><trkpt lat="44.823365" lon="10.7861367"><ele>22.0</ele><time>2026-04-04T14:34:53.855Z</time></trkpt><trkpt lat="44.8234617" lon="10.78593"><ele>22.0</ele><time>2026-04-04T14:34:54.854Z</time></trkpt><trkpt lat="44.8235583" lon="10.78573"><ele>22.333333333333332</ele><time>2026-04-04T14:34:55.855Z</time></trkpt><trkpt lat="44.8236567" lon="10.7855483"><ele>22.666666666666668</ele><time>2026-04-04T14:34:56.854Z</time></trkpt><trkpt lat="44.823745" lon="10.7853617"><ele>23.0</ele><time>2026-04-04T14:34:57.855Z</time></trkpt><trkpt lat="44.8238333" lon="10.78517"><ele>23.0</ele><time>2026-04-04T14:34:58.855Z</time></trkpt><trkpt lat="44.8239217" lon="10.7849783"><ele>23.0</ele><time>2026-04-04T14:34:59.855Z</time></trkpt><trkpt lat="44.824015" lon="10.7847833"><ele>23.0</ele><time>2026-04-04T14:35:00.855Z</time></trkpt><trkpt lat="44.8241117" lon="10.784585"><ele>23.0</ele><time>2026-04-04T14:35:01.855Z</time></trkpt><trkpt lat="44.82421" lon="10.78438"><ele>23.0</ele><time>2026-04-04T14:35:02.855Z</time></trkpt><trkpt lat="44.8243117" lon="10.7841733"><ele>23.0</ele><time>2026-04-04T14:35:03.855Z</time></trkpt><trkpt lat="44.82441" lon="10.7839633"><ele>23.0</ele><time>2026-04-04T14:35:04.855Z</time></trkpt><trkpt lat="44.8245183" lon="10.7837583"><ele>23.0</ele><time>2026-04-04T14:35:05.854Z</time></trkpt><trkpt lat="44.8246367" lon="10.783575"><ele>23.0</ele><time>2026-04-04T14:35:06.855Z</time></trkpt><trkpt lat="44.82477" lon="10.7834167"><ele>23.0</ele><time>2026-04-04T14:35:07.855Z</time></trkpt><trkpt lat="44.8249183" lon="10.7832733"><ele>23.0</ele><time>2026-04-04T14:35:08.855Z</time></trkpt><trkpt lat="44.8250883" lon="10.7831467"><ele>23.0</ele><time>2026-04-04T14:35:09.855Z</time></trkpt><trkpt lat="44.8252633" lon="10.78304"><ele>23.333333333333336</ele><time>2026-04-04T14:35:10.855Z</time></trkpt><trkpt lat="44.8254383" lon="10.7829517"><ele>23.666666666666668</ele><time>2026-04-04T14:35:11.855Z</time></trkpt><trkpt lat="44.8256283" lon="10.7828783"><ele>24.0</ele><time>2026-04-04T14:35:12.855Z</time></trkpt><trkpt lat="44.8258267" lon="10.7828133"><ele>24.0</ele><time>2026-04-04T14:35:13.855Z</time></trkpt><trkpt lat="44.8260183" lon="10.7827483"><ele>24.0</ele><time>2026-04-04T14:35:14.854Z</time></trkpt><trkpt lat="44.8262083" lon="10.78268"><ele>24.0</ele><time>2026-04-04T14:35:15.854Z</time></trkpt><trkpt lat="44.8263967" lon="10.7826083"><ele>24.0</ele><time>2026-04-04T14:35:16.854Z</time></trkpt><trkpt lat="44.8265733" lon="10.782545"><ele>24.0</ele><time>2026-04-04T14:35:17.855Z</time></trkpt><trkpt lat="44.8267433" lon="10.7824833"><ele>24.0</ele><time>2026-04-04T14:35:18.854Z</time></trkpt><trkpt lat="44.8269133" lon="10.782425"><ele>23.666666666666668</ele><time>2026-04-04T14:35:19.855Z</time></trkpt><trkpt lat="44.8270783" lon="10.7823667"><ele>23.333333333333336</ele><time>2026-04-04T14:35:20.855Z</time></trkpt><trkpt lat="44.8272483" lon="10.7823083"><ele>23.0</ele><time>2026-04-04T14:35:21.855Z</time></trkpt><trkpt lat="44.8274117" lon="10.7822417"><ele>23.0</ele><time>2026-04-04T14:35:22.855Z</time></trkpt><trkpt lat="44.82758" lon="10.7821633"><ele>23.0</ele><time>2026-04-04T14:35:23.855Z</time></trkpt><trkpt lat="44.8277467" lon="10.782075"><ele>23.0</ele><time>2026-04-04T14:35:24.855Z</time></trkpt><trkpt lat="44.8279067" lon="10.7819717"><ele>23.0</ele><time>2026-04-04T14:35:25.855Z</time></trkpt><trkpt lat="44.8280683" lon="10.7818667"><ele>23.0</ele><time>2026-04-04T14:35:26.855Z</time></trkpt><trkpt lat="44.82824" lon="10.7817617"><ele>23.0</ele><time>2026-04-04T14:35:27.854Z</time></trkpt><trkpt lat="44.8284067" lon="10.7816483"><ele>22.666666666666668</ele><time>2026-04-04T14:35:28.855Z</time></trkpt><trkpt lat="44.8285833" lon="10.7815283"><ele>22.333333333333332</ele><time>2026-04-04T14:35:29.854Z</time></trkpt><trkpt lat="44.828765" lon="10.7814017"><ele>22.0</ele><time>2026-04-04T14:35:30.855Z</time></trkpt><trkpt lat="44.8289483" lon="10.78128"><ele>22.0</ele><time>2026-04-04T14:35:31.855Z</time></trkpt><trkpt lat="44.82913" lon="10.7811517"><ele>22.0</ele><time>2026-04-04T14:35:32.855Z</time></trkpt><trkpt lat="44.8293067" lon="10.7810267"><ele>22.0</ele><time>2026-04-04T14:35:33.854Z</time></trkpt><trkpt lat="44.8294767" lon="10.7809067"><ele>22.666666666666664</ele><time>2026-04-04T14:35:34.855Z</time></trkpt><trkpt lat="44.8296467" lon="10.7808"><ele>23.333333333333332</ele><time>2026-04-04T14:35:35.854Z</time></trkpt><trkpt lat="44.82981" lon="10.780685"><ele>24.0</ele><time>2026-04-04T14:35:36.855Z</time></trkpt><trkpt lat="44.8299767" lon="10.7805733"><ele>24.0</ele><time>2026-04-04T14:35:37.855Z</time></trkpt><trkpt lat="44.830135" lon="10.7804617"><ele>24.0</ele><time>2026-04-04T14:35:38.855Z</time></trkpt><trkpt lat="44.8302983" lon="10.7803517"><ele>24.0</ele><time>2026-04-04T14:35:39.854Z</time></trkpt><trkpt lat="44.8304467" lon="10.7802383"><ele>23.0</ele><time>2026-04-04T14:35:40.855Z</time></trkpt><trkpt lat="44.8305967" lon="10.7801217"><ele>22.0</ele><time>2026-04-04T14:35:41.854Z</time></trkpt><trkpt lat="44.8307467" lon="10.7800167"><ele>21.0</ele><time>2026-04-04T14:35:42.854Z</time></trkpt><trkpt lat="44.8308967" lon="10.7799283"><ele>21.666666666666668</ele><time>2026-04-04T14:35:43.855Z</time></trkpt><trkpt lat="44.8310483" lon="10.7798583"><ele>22.333333333333336</ele><time>2026-04-04T14:35:44.854Z</time></trkpt><trkpt lat="44.83119" lon="10.77981"><ele>23.0</ele><time>2026-04-04T14:35:45.855Z</time></trkpt><trkpt lat="44.8313483" lon="10.7797683"><ele>23.0</ele><time>2026-04-04T14:35:46.854Z</time></trkpt><trkpt lat="44.8314917" lon="10.7797433"><ele>23.0</ele><time>2026-04-04T14:35:47.855Z</time></trkpt><trkpt lat="44.8316267" lon="10.77972"><ele>23.0</ele><time>2026-04-04T14:35:48.854Z</time></trkpt><trkpt lat="44.8317533" lon="10.7797"><ele>23.0</ele><time>2026-04-04T14:35:49.855Z</time></trkpt><trkpt lat="44.83186" lon="10.77968"><ele>23.5</ele><time>2026-04-04T14:35:50.855Z</time></trkpt><trkpt lat="44.83195" lon="10.7796683"><ele>24.0</ele><time>2026-04-04T14:35:51.855Z</time></trkpt><trkpt lat="44.8320283" lon="10.77966"><ele>24.5</ele><time>2026-04-04T14:35:52.855Z</time></trkpt><trkpt lat="44.8320983" lon="10.7796433"><ele>25.0</ele><time>2026-04-04T14:35:53.855Z</time></trkpt><trkpt lat="44.8321683" lon="10.779605"><ele>25.499999999999996</ele><time>2026-04-04T14:35:54.855Z</time></trkpt><trkpt lat="44.8322417" lon="10.7795283"><ele>26.0</ele><time>2026-04-04T14:35:55.855Z</time></trkpt><trkpt lat="44.8323317" lon="10.779425"><ele>25.75</ele><time>2026-04-04T14:35:56.855Z</time></trkpt><trkpt lat="44.8324367" lon="10.779315"><ele>25.5</ele><time>2026-04-04T14:35:57.855Z</time></trkpt><trkpt lat="44.8325433" lon="10.7791833"><ele>25.25</ele><time>2026-04-04T14:35:58.855Z</time></trkpt><trkpt lat="44.832635" lon="10.7790167"><ele>25.0</ele><time>2026-04-04T14:35:59.855Z</time></trkpt><trkpt lat="44.8327033" lon="10.7788467"><ele>25.25</ele><time>2026-04-04T14:36:00.854Z</time></trkpt><trkpt lat="44.8327783" lon="10.7786917"><ele>25.5</ele><time>2026-04-04T14:36:01.854Z</time></trkpt><trkpt lat="44.832845" lon="10.7785417"><ele>25.75</ele><time>2026-04-04T14:36:02.854Z</time></trkpt><trkpt lat="44.8329117" lon="10.7783783"><ele>26.0</ele><time>2026-04-04T14:36:03.854Z</time></trkpt><trkpt lat="44.8329817" lon="10.7782133"><ele>26.0</ele><time>2026-04-04T14:36:04.854Z</time></trkpt><trkpt lat="44.8330467" lon="10.778035"><ele>26.0</ele><time>2026-04-04T14:36:05.855Z</time></trkpt><trkpt lat="44.8331183" lon="10.7778433"><ele>26.0</ele><time>2026-04-04T14:36:06.855Z</time></trkpt><trkpt lat="44.833195" lon="10.77765"><ele>26.0</ele><time>2026-04-04T14:36:07.855Z</time></trkpt><trkpt lat="44.8332833" lon="10.7774483"><ele>26.0</ele><time>2026-04-04T14:36:08.855Z</time></trkpt><trkpt lat="44.8333683" lon="10.7772433"><ele>26.0</ele><time>2026-04-04T14:36:09.855Z</time></trkpt><trkpt lat="44.8334467" lon="10.7770417"><ele>26.0</ele><time>2026-04-04T14:36:10.855Z</time></trkpt><trkpt lat="44.8335167" lon="10.77684"><ele>26.0</ele><time>2026-04-04T14:36:11.855Z</time></trkpt><trkpt lat="44.8335867" lon="10.7766483"><ele>26.0</ele><time>2026-04-04T14:36:12.854Z</time></trkpt><trkpt lat="44.8336433" lon="10.7764667"><ele>26.0</ele><time>2026-04-04T14:36:13.855Z</time></trkpt><trkpt lat="44.8337133" lon="10.7763"><ele>26.0</ele><time>2026-04-04T14:36:14.855Z</time></trkpt><trkpt lat="44.833785" lon="10.7761367"><ele>26.0</ele><time>2026-04-04T14:36:15.854Z</time></trkpt><trkpt lat="44.8338483" lon="10.775985"><ele>26.0</ele><time>2026-04-04T14:36:16.855Z</time></trkpt><trkpt lat="44.8339" lon="10.7758417"><ele>25.8</ele><time>2026-04-04T14:36:17.855Z</time></trkpt><trkpt lat="44.833955" lon="10.7757067"><ele>25.6</ele><time>2026-04-04T14:36:18.855Z</time></trkpt><trkpt lat="44.8340083" lon="10.7755783"><ele>25.4</ele><time>2026-04-04T14:36:19.855Z</time></trkpt><trkpt lat="44.83406" lon="10.7754533"><ele>25.2</ele><time>2026-04-04T14:36:20.854Z</time></trkpt><trkpt lat="44.83412" lon="10.7753267"><ele>25.0</ele><time>2026-04-04T14:36:21.855Z</time></trkpt><trkpt lat="44.8341683" lon="10.775195"><ele>24.75</ele><time>2026-04-04T14:36:22.854Z</time></trkpt><trkpt lat="44.83422" lon="10.7750533"><ele>24.5</ele><time>2026-04-04T14:36:23.855Z</time></trkpt><trkpt lat="44.83427" lon="10.774915"><ele>24.25</ele><time>2026-04-04T14:36:24.854Z</time></trkpt><trkpt lat="44.834325" lon="10.7747683"><ele>24.0</ele><time>2026-04-04T14:36:25.855Z</time></trkpt><trkpt lat="44.8343783" lon="10.7746333"><ele>24.0</ele><time>2026-04-04T14:36:26.855Z</time></trkpt><trkpt lat="44.8344367" lon="10.77451"><ele>24.0</ele><time>2026-04-04T14:36:27.855Z</time></trkpt><trkpt lat="44.834495" lon="10.774395"><ele>24.0</ele><time>2026-04-04T14:36:28.854Z</time></trkpt><trkpt lat="44.8345433" lon="10.774255"><ele>24.0</ele><time>2026-04-04T14:36:29.855Z</time></trkpt><trkpt lat="44.8345883" lon="10.77412"><ele>24.0</ele><time>2026-04-04T14:36:30.855Z</time></trkpt><trkpt lat="44.8346433" lon="10.7739717"><ele>24.5</ele><time>2026-04-04T14:36:31.855Z</time></trkpt><trkpt lat="44.834705" lon="10.7738117"><ele>25.0</ele><time>2026-04-04T14:36:32.854Z</time></trkpt><trkpt lat="44.8347583" lon="10.7736517"><ele>25.5</ele><time>2026-04-04T14:36:33.855Z</time></trkpt><trkpt lat="44.8348167" lon="10.773495"><ele>26.0</ele><time>2026-04-04T14:36:34.855Z</time></trkpt><trkpt lat="44.8348767" lon="10.7733417"><ele>26.25</ele><time>2026-04-04T14:36:35.854Z</time></trkpt><trkpt lat="44.83492" lon="10.773185"><ele>26.5</ele><time>2026-04-04T14:36:36.855Z</time></trkpt><trkpt lat="44.8349633" lon="10.7730217"><ele>26.75</ele><time>2026-04-04T14:36:37.854Z</time></trkpt><trkpt lat="44.835005" lon="10.7728533"><ele>27.0</ele><time>2026-04-04T14:36:38.854Z</time></trkpt><trkpt lat="44.8350417" lon="10.772685"><ele>26.6</ele><time>2026-04-04T14:36:39.855Z</time></trkpt><trkpt lat="44.8350683" lon="10.7725133"><ele>26.200000000000003</ele><time>2026-04-04T14:36:40.854Z</time></trkpt><trkpt lat="44.8350983" lon="10.77236"><ele>25.8</ele><time>2026-04-04T14:36:41.855Z</time></trkpt><trkpt lat="44.8351217" lon="10.772215"><ele>25.4</ele><time>2026-04-04T14:36:42.855Z</time></trkpt><trkpt lat="44.8351417" lon="10.7720867"><ele>25.0</ele><time>2026-04-04T14:36:43.855Z</time></trkpt><trkpt lat="44.835155" lon="10.77197"><ele>25.000000000000004</ele><time>2026-04-04T14:36:44.854Z</time></trkpt><trkpt lat="44.8351733" lon="10.7718783"><ele>25.0</ele><time>2026-04-04T14:36:45.855Z</time></trkpt><trkpt lat="44.8352" lon="10.7717917"><ele>25.0</ele><time>2026-04-04T14:36:46.855Z</time></trkpt><trkpt lat="44.835235" lon="10.7717117"><ele>25.0</ele><time>2026-04-04T14:36:47.855Z</time></trkpt><trkpt lat="44.835275" lon="10.7716367"><ele>25.0</ele><time>2026-04-04T14:36:48.855Z</time></trkpt><trkpt lat="44.8353133" lon="10.7715567"><ele>25.000000000000004</ele><time>2026-04-04T14:36:49.855Z</time></trkpt><trkpt lat="44.835325" lon="10.7714633"><ele>25.0</ele><time>2026-04-04T14:36:50.855Z</time></trkpt><trkpt lat="44.83532" lon="10.7713533"><ele>25.0</ele><time>2026-04-04T14:36:51.855Z</time></trkpt><trkpt lat="44.83529" lon="10.7712367"><ele>25.0</ele><time>2026-04-04T14:36:52.855Z</time></trkpt><trkpt lat="44.8352683" lon="10.7711017"><ele>25.0</ele><time>2026-04-04T14:36:53.855Z</time></trkpt><trkpt lat="44.8352667" lon="10.7709383"><ele>25.0</ele><time>2026-04-04T14:36:54.855Z</time></trkpt><trkpt lat="44.8352867" lon="10.7707483"><ele>25.0</ele><time>2026-04-04T14:36:55.854Z</time></trkpt><trkpt lat="44.835305" lon="10.7705367"><ele>25.0</ele><time>2026-04-04T14:36:56.855Z</time></trkpt><trkpt lat="44.8353267" lon="10.7703133"><ele>25.0</ele><time>2026-04-04T14:36:57.855Z</time></trkpt><trkpt lat="44.8353483" lon="10.7700733"><ele>25.0</ele><time>2026-04-04T14:36:58.855Z</time></trkpt><trkpt lat="44.8353767" lon="10.76981"><ele>25.0</ele><time>2026-04-04T14:36:59.855Z</time></trkpt><trkpt lat="44.8354017" lon="10.7695067"><ele>25.0</ele><time>2026-04-04T14:37:00.855Z</time></trkpt><trkpt lat="44.8354367" lon="10.769175"><ele>25.0</ele><time>2026-04-04T14:37:01.855Z</time></trkpt><trkpt lat="44.8354767" lon="10.7688167"><ele>25.0</ele><time>2026-04-04T14:37:02.855Z</time></trkpt><trkpt lat="44.8355167" lon="10.7684833"><ele>25.0</ele><time>2026-04-04T14:37:03.855Z</time></trkpt><trkpt lat="44.8355517" lon="10.7681683"><ele>25.0</ele><time>2026-04-04T14:37:04.855Z</time></trkpt><trkpt lat="44.835585" lon="10.7678617"><ele>25.0</ele><time>2026-04-04T14:37:05.854Z</time></trkpt><trkpt lat="44.835625" lon="10.767545"><ele>25.0</ele><time>2026-04-04T14:37:06.855Z</time></trkpt><trkpt lat="44.83566" lon="10.767225"><ele>25.0</ele><time>2026-04-04T14:37:07.855Z</time></trkpt><trkpt lat="44.8356967" lon="10.76693"><ele>25.0</ele><time>2026-04-04T14:37:08.855Z</time></trkpt><trkpt lat="44.8357283" lon="10.7666333"><ele>24.666666666666668</ele><time>2026-04-04T14:37:09.855Z</time></trkpt><trkpt lat="44.83576" lon="10.7663433"><ele>24.333333333333336</ele><time>2026-04-04T14:37:10.855Z</time></trkpt><trkpt lat="44.8357917" lon="10.7660533"><ele>24.0</ele><time>2026-04-04T14:37:11.855Z</time></trkpt><trkpt lat="44.8358183" lon="10.7657617"><ele>23.666666666666668</ele><time>2026-04-04T14:37:12.855Z</time></trkpt><trkpt lat="44.8358433" lon="10.7654733"><ele>23.333333333333336</ele><time>2026-04-04T14:37:13.855Z</time></trkpt><trkpt lat="44.8358683" lon="10.7651867"><ele>23.0</ele><time>2026-04-04T14:37:14.855Z</time></trkpt><trkpt lat="44.8359017" lon="10.7649017"><ele>23.0</ele><time>2026-04-04T14:37:15.854Z</time></trkpt><trkpt lat="44.8359367" lon="10.7646183"><ele>23.0</ele><time>2026-04-04T14:37:16.855Z</time></trkpt><trkpt lat="44.8359683" lon="10.7643383"><ele>23.0</ele><time>2026-04-04T14:37:17.855Z</time></trkpt><trkpt lat="44.8359983" lon="10.76406"><ele>23.666666666666668</ele><time>2026-04-04T14:37:18.855Z</time></trkpt><trkpt lat="44.836025" lon="10.7637883"><ele>24.333333333333336</ele><time>2026-04-04T14:37:19.854Z</time></trkpt><trkpt lat="44.8360517" lon="10.7635283"><ele>25.0</ele><time>2026-04-04T14:37:20.855Z</time></trkpt><trkpt lat="44.8360717" lon="10.7632833"><ele>25.0</ele><time>2026-04-04T14:37:21.854Z</time></trkpt><trkpt lat="44.8361" lon="10.763035"><ele>25.0</ele><time>2026-04-04T14:37:22.855Z</time></trkpt><trkpt lat="44.8361333" lon="10.762785"><ele>25.0</ele><time>2026-04-04T14:37:23.854Z</time></trkpt><trkpt lat="44.8361667" lon="10.7625183"><ele>25.333333333333336</ele><time>2026-04-04T14:37:24.855Z</time></trkpt><trkpt lat="44.8362083" lon="10.7622583"><ele>25.666666666666664</ele><time>2026-04-04T14:37:25.855Z</time></trkpt><trkpt lat="44.8362467" lon="10.7619933"><ele>26.0</ele><time>2026-04-04T14:37:26.854Z</time></trkpt><trkpt lat="44.83629" lon="10.76174"><ele>26.0</ele><time>2026-04-04T14:37:27.855Z</time></trkpt><trkpt lat="44.83633" lon="10.7615117"><ele>26.0</ele><time>2026-04-04T14:37:28.855Z</time></trkpt><trkpt lat="44.83637" lon="10.7612733"><ele>26.0</ele><time>2026-04-04T14:37:29.855Z</time></trkpt><trkpt lat="44.83642" lon="10.761045"><ele>26.0</ele><time>2026-04-04T14:37:30.855Z</time></trkpt><trkpt lat="44.836475" lon="10.7608133"><ele>26.0</ele><time>2026-04-04T14:37:31.855Z</time></trkpt><trkpt lat="44.8365217" lon="10.7605967"><ele>26.0</ele><time>2026-04-04T14:37:32.855Z</time></trkpt><trkpt lat="44.8365767" lon="10.76038"><ele>26.0</ele><time>2026-04-04T14:37:33.854Z</time></trkpt><trkpt lat="44.836625" lon="10.7601817"><ele>26.0</ele><time>2026-04-04T14:37:34.855Z</time></trkpt><trkpt lat="44.83668" lon="10.7599967"><ele>26.0</ele><time>2026-04-04T14:37:35.855Z</time></trkpt><trkpt lat="44.8367217" lon="10.7598233"><ele>26.0</ele><time>2026-04-04T14:37:36.855Z</time></trkpt><trkpt lat="44.8367617" lon="10.7596567"><ele>26.0</ele><time>2026-04-04T14:37:37.854Z</time></trkpt><trkpt lat="44.836805" lon="10.7594833"><ele>26.0</ele><time>2026-04-04T14:37:38.854Z</time></trkpt><trkpt lat="44.8368383" lon="10.7593367"><ele>26.0</ele><time>2026-04-04T14:37:39.854Z</time></trkpt><trkpt lat="44.8368667" lon="10.75923"><ele>26.0</ele><time>2026-04-04T14:37:40.854Z</time></trkpt><trkpt lat="44.8369133" lon="10.7590833"><ele>26.0</ele><time>2026-04-04T14:37:42.855Z</time></trkpt><trkpt lat="44.8369617" lon="10.7589467"><ele>26.0</ele><time>2026-04-04T14:37:44.855Z</time></trkpt><trkpt lat="44.8369833" lon="10.75884"><ele>26.0</ele><time>2026-04-04T14:37:45.855Z</time></trkpt><trkpt lat="44.8370033" lon="10.7587"><ele>26.0</ele><time>2026-04-04T14:37:46.855Z</time></trkpt><trkpt lat="44.8370267" lon="10.758535"><ele>26.0</ele><time>2026-04-04T14:37:47.855Z</time></trkpt><trkpt lat="44.8370583" lon="10.758355"><ele>26.0</ele><time>2026-04-04T14:37:48.855Z</time></trkpt><trkpt lat="44.8371017" lon="10.75817"><ele>26.333333333333332</ele><time>2026-04-04T14:37:49.855Z</time></trkpt><trkpt lat="44.8371417" lon="10.7579733"><ele>26.666666666666664</ele><time>2026-04-04T14:37:50.855Z</time></trkpt><trkpt lat="44.837185" lon="10.7577583"><ele>27.0</ele><time>2026-04-04T14:37:51.854Z</time></trkpt><trkpt lat="44.8372367" lon="10.757545"><ele>27.0</ele><time>2026-04-04T14:37:52.855Z</time></trkpt><trkpt lat="44.8372833" lon="10.7573367"><ele>27.0</ele><time>2026-04-04T14:37:53.855Z</time></trkpt><trkpt lat="44.8373233" lon="10.7571417"><ele>27.0</ele><time>2026-04-04T14:37:54.855Z</time></trkpt><trkpt lat="44.8373667" lon="10.7569417"><ele>27.0</ele><time>2026-04-04T14:37:55.854Z</time></trkpt><trkpt lat="44.8374133" lon="10.7567317"><ele>27.0</ele><time>2026-04-04T14:37:56.854Z</time></trkpt><trkpt lat="44.8374683" lon="10.7565167"><ele>27.0</ele><time>2026-04-04T14:37:57.854Z</time></trkpt><trkpt lat="44.8375167" lon="10.7562967"><ele>27.0</ele><time>2026-04-04T14:37:58.855Z</time></trkpt><trkpt lat="44.8375667" lon="10.7560683"><ele>27.0</ele><time>2026-04-04T14:37:59.855Z</time></trkpt><trkpt lat="44.8376117" lon="10.75585"><ele>27.0</ele><time>2026-04-04T14:38:00.855Z</time></trkpt><trkpt lat="44.83767" lon="10.7556317"><ele>27.0</ele><time>2026-04-04T14:38:01.855Z</time></trkpt><trkpt lat="44.8377217" lon="10.7554033"><ele>26.666666666666664</ele><time>2026-04-04T14:38:02.855Z</time></trkpt><trkpt lat="44.8377767" lon="10.755175"><ele>26.333333333333332</ele><time>2026-04-04T14:38:03.854Z</time></trkpt><trkpt lat="44.83782" lon="10.7549467"><ele>26.0</ele><time>2026-04-04T14:38:04.855Z</time></trkpt><trkpt lat="44.8378767" lon="10.7547083"><ele>26.0</ele><time>2026-04-04T14:38:05.854Z</time></trkpt><trkpt lat="44.8379367" lon="10.7544683"><ele>26.0</ele><time>2026-04-04T14:38:06.854Z</time></trkpt><trkpt lat="44.8379933" lon="10.75423"><ele>26.0</ele><time>2026-04-04T14:38:07.854Z</time></trkpt><trkpt lat="44.838045" lon="10.7540083"><ele>26.25</ele><time>2026-04-04T14:38:08.854Z</time></trkpt><trkpt lat="44.838095" lon="10.7537983"><ele>26.5</ele><time>2026-04-04T14:38:09.855Z</time></trkpt><trkpt lat="44.838135" lon="10.7536267"><ele>26.75</ele><time>2026-04-04T14:38:10.855Z</time></trkpt><trkpt lat="44.8381683" lon="10.7534883"><ele>27.0</ele><time>2026-04-04T14:38:11.855Z</time></trkpt><trkpt lat="44.8381983" lon="10.753385"><ele>26.5</ele><time>2026-04-04T14:38:12.855Z</time></trkpt><trkpt lat="44.8382333" lon="10.7532333"><ele>26.0</ele><time>2026-04-04T14:38:14.854Z</time></trkpt><trkpt lat="44.8382617" lon="10.7530983"><ele>25.5</ele><time>2026-04-04T14:38:16.855Z</time></trkpt><trkpt lat="44.8382917" lon="10.752935"><ele>25.0</ele><time>2026-04-04T14:38:18.855Z</time></trkpt><trkpt lat="44.83833" lon="10.7527717"><ele>24.833333333333336</ele><time>2026-04-04T14:38:20.855Z</time></trkpt><trkpt lat="44.8383533" lon="10.7526783"><ele>24.666666666666668</ele><time>2026-04-04T14:38:21.855Z</time></trkpt><trkpt lat="44.8383833" lon="10.7525717"><ele>24.5</ele><time>2026-04-04T14:38:22.855Z</time></trkpt><trkpt lat="44.83841" lon="10.7524617"><ele>24.333333333333336</ele><time>2026-04-04T14:38:23.855Z</time></trkpt><trkpt lat="44.83844" lon="10.75235"><ele>24.166666666666668</ele><time>2026-04-04T14:38:24.855Z</time></trkpt><trkpt lat="44.8384633" lon="10.7522233"><ele>24.0</ele><time>2026-04-04T14:38:25.855Z</time></trkpt><trkpt lat="44.8384867" lon="10.7520833"><ele>23.75</ele><time>2026-04-04T14:38:26.855Z</time></trkpt><trkpt lat="44.838525" lon="10.751945"><ele>23.5</ele><time>2026-04-04T14:38:27.854Z</time></trkpt><trkpt lat="44.838575" lon="10.7517933"><ele>23.25</ele><time>2026-04-04T14:38:28.855Z</time></trkpt><trkpt lat="44.838635" lon="10.7516233"><ele>23.0</ele><time>2026-04-04T14:38:29.855Z</time></trkpt><trkpt lat="44.8387033" lon="10.75147"><ele>23.0</ele><time>2026-04-04T14:38:30.855Z</time></trkpt><trkpt lat="44.8387867" lon="10.7513033"><ele>23.0</ele><time>2026-04-04T14:38:31.855Z</time></trkpt><trkpt lat="44.8388783" lon="10.7511317"><ele>23.0</ele><time>2026-04-04T14:38:32.855Z</time></trkpt><trkpt lat="44.8389817" lon="10.750975"><ele>23.0</ele><time>2026-04-04T14:38:33.855Z</time></trkpt><trkpt lat="44.839085" lon="10.7508333"><ele>23.0</ele><time>2026-04-04T14:38:34.854Z</time></trkpt><trkpt lat="44.83919" lon="10.7507133"><ele>23.0</ele><time>2026-04-04T14:38:35.855Z</time></trkpt><trkpt lat="44.8393" lon="10.75061"><ele>23.0</ele><time>2026-04-04T14:38:36.855Z</time></trkpt><trkpt lat="44.839415" lon="10.75051"><ele>23.0</ele><time>2026-04-04T14:38:37.854Z</time></trkpt><trkpt lat="44.83953" lon="10.7504183"><ele>22.75</ele><time>2026-04-04T14:38:38.855Z</time></trkpt><trkpt lat="44.8396517" lon="10.7503317"><ele>22.5</ele><time>2026-04-04T14:38:39.854Z</time></trkpt><trkpt lat="44.8397867" lon="10.750245"><ele>22.25</ele><time>2026-04-04T14:38:40.855Z</time></trkpt><trkpt lat="44.8399317" lon="10.7501717"><ele>22.0</ele><time>2026-04-04T14:38:41.855Z</time></trkpt><trkpt lat="44.8400917" lon="10.7501083"><ele>21.666666666666664</ele><time>2026-04-04T14:38:42.855Z</time></trkpt><trkpt lat="44.840265" lon="10.7500583"><ele>21.333333333333332</ele><time>2026-04-04T14:38:43.855Z</time></trkpt><trkpt lat="44.8404417" lon="10.7500083"><ele>21.0</ele><time>2026-04-04T14:38:44.855Z</time></trkpt><trkpt lat="44.8406167" lon="10.7499583"><ele>21.0</ele><time>2026-04-04T14:38:45.854Z</time></trkpt><trkpt lat="44.8407983" lon="10.7499117"><ele>21.0</ele><time>2026-04-04T14:38:46.855Z</time></trkpt><trkpt lat="44.8409767" lon="10.7498567"><ele>21.0</ele><time>2026-04-04T14:38:47.855Z</time></trkpt><trkpt lat="44.8411583" lon="10.7497983"><ele>21.333333333333332</ele><time>2026-04-04T14:38:48.855Z</time></trkpt><trkpt lat="44.8413417" lon="10.7497533"><ele>21.666666666666664</ele><time>2026-04-04T14:38:49.855Z</time></trkpt><trkpt lat="44.8415233" lon="10.74969"><ele>22.0</ele><time>2026-04-04T14:38:50.855Z</time></trkpt><trkpt lat="44.8417133" lon="10.749615"><ele>21.666666666666664</ele><time>2026-04-04T14:38:51.855Z</time></trkpt><trkpt lat="44.8419133" lon="10.74954"><ele>21.333333333333332</ele><time>2026-04-04T14:38:52.855Z</time></trkpt><trkpt lat="44.8421233" lon="10.7494683"><ele>21.0</ele><time>2026-04-04T14:38:53.855Z</time></trkpt><trkpt lat="44.84234" lon="10.7494083"><ele>21.0</ele><time>2026-04-04T14:38:54.855Z</time></trkpt><trkpt lat="44.8425617" lon="10.7493533"><ele>21.0</ele><time>2026-04-04T14:38:55.855Z</time></trkpt><trkpt lat="44.842785" lon="10.7492933"><ele>21.0</ele><time>2026-04-04T14:38:56.854Z</time></trkpt><trkpt lat="44.843" lon="10.7492333"><ele>21.0</ele><time>2026-04-04T14:38:57.853Z</time></trkpt><trkpt lat="44.8432" lon="10.749175"><ele>21.0</ele><time>2026-04-04T14:38:58.853Z</time></trkpt><trkpt lat="44.84339" lon="10.7491133"><ele>21.333333333333332</ele><time>2026-04-04T14:38:59.854Z</time></trkpt><trkpt lat="44.8435833" lon="10.7490483"><ele>21.666666666666664</ele><time>2026-04-04T14:39:00.854Z</time></trkpt><trkpt lat="44.843765" lon="10.7489767"><ele>22.0</ele><time>2026-04-04T14:39:01.854Z</time></trkpt><trkpt lat="44.8439433" lon="10.74889"><ele>22.0</ele><time>2026-04-04T14:39:02.853Z</time></trkpt><trkpt lat="44.84412" lon="10.748795"><ele>22.0</ele><time>2026-04-04T14:39:03.853Z</time></trkpt><trkpt lat="44.8442883" lon="10.7486833"><ele>22.0</ele><time>2026-04-04T14:39:04.854Z</time></trkpt><trkpt lat="44.8444517" lon="10.748575"><ele>22.333333333333332</ele><time>2026-04-04T14:39:05.854Z</time></trkpt><trkpt lat="44.8446083" lon="10.748465"><ele>22.666666666666668</ele><time>2026-04-04T14:39:06.853Z</time></trkpt><trkpt lat="44.8447483" lon="10.7483483"><ele>23.0</ele><time>2026-04-04T14:39:07.853Z</time></trkpt><trkpt lat="44.844885" lon="10.7482317"><ele>23.0</ele><time>2026-04-04T14:39:08.853Z</time></trkpt><trkpt lat="44.8450067" lon="10.7481167"><ele>23.0</ele><time>2026-04-04T14:39:09.853Z</time></trkpt><trkpt lat="44.845115" lon="10.748005"><ele>23.0</ele><time>2026-04-04T14:39:10.853Z</time></trkpt><trkpt lat="44.84521" lon="10.7478883"><ele>23.0</ele><time>2026-04-04T14:39:11.853Z</time></trkpt><trkpt lat="44.8453017" lon="10.7477783"><ele>22.799999999999997</ele><time>2026-04-04T14:39:12.854Z</time></trkpt><trkpt lat="44.8453783" lon="10.74767"><ele>22.6</ele><time>2026-04-04T14:39:13.854Z</time></trkpt><trkpt lat="44.8454483" lon="10.7475633"><ele>22.4</ele><time>2026-04-04T14:39:14.853Z</time></trkpt><trkpt lat="44.84551" lon="10.7474633"><ele>22.200000000000003</ele><time>2026-04-04T14:39:15.854Z</time></trkpt><trkpt lat="44.84556" lon="10.7473783"><ele>22.0</ele><time>2026-04-04T14:39:16.854Z</time></trkpt><trkpt lat="44.8456033" lon="10.7473033"><ele>22.0</ele><time>2026-04-04T14:39:17.854Z</time></trkpt><trkpt lat="44.84568" lon="10.747195"><ele>22.0</ele><time>2026-04-04T14:39:19.854Z</time></trkpt><trkpt lat="44.84577" lon="10.7471183"><ele>22.0</ele><time>2026-04-04T14:39:21.854Z</time></trkpt><trkpt lat="44.8458817" lon="10.747105"><ele>22.0</ele><time>2026-04-04T14:39:23.853Z</time></trkpt><trkpt lat="44.8459483" lon="10.747115"><ele>22.0</ele><time>2026-04-04T14:39:24.854Z</time></trkpt><trkpt lat="44.8460183" lon="10.7471233"><ele>22.0</ele><time>2026-04-04T14:39:25.854Z</time></trkpt><trkpt lat="44.846085" lon="10.7471083"><ele>22.0</ele><time>2026-04-04T14:39:26.853Z</time></trkpt><trkpt lat="44.846155" lon="10.7470617"><ele>22.0</ele><time>2026-04-04T14:39:27.853Z</time></trkpt><trkpt lat="44.8462117" lon="10.7469933"><ele>22.0</ele><time>2026-04-04T14:39:28.853Z</time></trkpt><trkpt lat="44.8462517" lon="10.7468983"><ele>22.0</ele><time>2026-04-04T14:39:29.854Z</time></trkpt><trkpt lat="44.8462583" lon="10.7467917"><ele>22.0</ele><time>2026-04-04T14:39:30.854Z</time></trkpt><trkpt lat="44.8462333" lon="10.7466867"><ele>22.0</ele><time>2026-04-04T14:39:31.853Z</time></trkpt><trkpt lat="44.846185" lon="10.74658"><ele>22.0</ele><time>2026-04-04T14:39:32.854Z</time></trkpt><trkpt lat="44.846125" lon="10.7464583"><ele>22.0</ele><time>2026-04-04T14:39:33.854Z</time></trkpt><trkpt lat="44.8460633" lon="10.7463183"><ele>22.0</ele><time>2026-04-04T14:39:34.854Z</time></trkpt><trkpt lat="44.8460183" lon="10.7461617"><ele>22.0</ele><time>2026-04-04T14:39:35.854Z</time></trkpt><trkpt lat="44.8460183" lon="10.7459817"><ele>22.25</ele><time>2026-04-04T14:39:36.853Z</time></trkpt><trkpt lat="44.8460483" lon="10.7458033"><ele>22.5</ele><time>2026-04-04T14:39:37.854Z</time></trkpt><trkpt lat="44.8460917" lon="10.74565"><ele>22.75</ele><time>2026-04-04T14:39:38.853Z</time></trkpt><trkpt lat="44.8461083" lon="10.7454867"><ele>23.0</ele><time>2026-04-04T14:39:39.854Z</time></trkpt><trkpt lat="44.8461333" lon="10.7453483"><ele>23.0</ele><time>2026-04-04T14:39:40.854Z</time></trkpt><trkpt lat="44.8461583" lon="10.7452167"><ele>23.0</ele><time>2026-04-04T14:39:41.853Z</time></trkpt><trkpt lat="44.8461817" lon="10.7450833"><ele>23.0</ele><time>2026-04-04T14:39:42.854Z</time></trkpt><trkpt lat="44.8462133" lon="10.7449483"><ele>23.0</ele><time>2026-04-04T14:39:43.854Z</time></trkpt><trkpt lat="44.84624" lon="10.7448067"><ele>23.0</ele><time>2026-04-04T14:39:44.854Z</time></trkpt><trkpt lat="44.8462667" lon="10.7446633"><ele>22.75</ele><time>2026-04-04T14:39:45.854Z</time></trkpt><trkpt lat="44.8462983" lon="10.7445217"><ele>22.5</ele><time>2026-04-04T14:39:46.854Z</time></trkpt><trkpt lat="44.8463283" lon="10.7443667"><ele>22.25</ele><time>2026-04-04T14:39:47.854Z</time></trkpt><trkpt lat="44.84636" lon="10.7442133"><ele>22.0</ele><time>2026-04-04T14:39:48.853Z</time></trkpt><trkpt lat="44.8463917" lon="10.7440533"><ele>21.8</ele><time>2026-04-04T14:39:49.854Z</time></trkpt><trkpt lat="44.8464183" lon="10.743895"><ele>21.6</ele><time>2026-04-04T14:39:50.854Z</time></trkpt><trkpt lat="44.8464533" lon="10.7437483"><ele>21.400000000000002</ele><time>2026-04-04T14:39:51.854Z</time></trkpt><trkpt lat="44.8464783" lon="10.74361"><ele>21.200000000000003</ele><time>2026-04-04T14:39:52.854Z</time></trkpt><trkpt lat="44.8465" lon="10.7434617"><ele>21.0</ele><time>2026-04-04T14:39:53.854Z</time></trkpt><trkpt lat="44.8465317" lon="10.743335"><ele>21.4</ele><time>2026-04-04T14:39:54.853Z</time></trkpt><trkpt lat="44.84656" lon="10.7432133"><ele>21.8</ele><time>2026-04-04T14:39:55.854Z</time></trkpt><trkpt lat="44.8465883" lon="10.74309"><ele>22.2</ele><time>2026-04-04T14:39:56.854Z</time></trkpt><trkpt lat="44.8466133" lon="10.7429633"><ele>22.599999999999998</ele><time>2026-04-04T14:39:57.854Z</time></trkpt><trkpt lat="44.8466367" lon="10.7428317"><ele>23.0</ele><time>2026-04-04T14:39:58.854Z</time></trkpt><trkpt lat="44.84666" lon="10.7426983"><ele>23.0</ele><time>2026-04-04T14:39:59.853Z</time></trkpt><trkpt lat="44.8466817" lon="10.74257"><ele>23.0</ele><time>2026-04-04T14:40:00.853Z</time></trkpt><trkpt lat="44.846705" lon="10.7424517"><ele>23.0</ele><time>2026-04-04T14:40:01.854Z</time></trkpt><trkpt lat="44.8467233" lon="10.7423267"><ele>23.0</ele><time>2026-04-04T14:40:02.854Z</time></trkpt><trkpt lat="44.846745" lon="10.7422067"><ele>23.0</ele><time>2026-04-04T14:40:03.854Z</time></trkpt><trkpt lat="44.8467683" lon="10.7420833"><ele>23.0</ele><time>2026-04-04T14:40:04.854Z</time></trkpt><trkpt lat="44.846795" lon="10.741965"><ele>23.2</ele><time>2026-04-04T14:40:05.854Z</time></trkpt><trkpt lat="44.8468167" lon="10.7418433"><ele>23.4</ele><time>2026-04-04T14:40:06.854Z</time></trkpt><trkpt lat="44.8468433" lon="10.741715"><ele>23.599999999999998</ele><time>2026-04-04T14:40:07.854Z</time></trkpt><trkpt lat="44.8468683" lon="10.741585"><ele>23.799999999999997</ele><time>2026-04-04T14:40:08.854Z</time></trkpt><trkpt lat="44.8468983" lon="10.741445"><ele>24.0</ele><time>2026-04-04T14:40:09.854Z</time></trkpt><trkpt lat="44.84694" lon="10.7412933"><ele>24.0</ele><time>2026-04-04T14:40:10.853Z</time></trkpt><trkpt lat="44.8469917" lon="10.7411317"><ele>24.0</ele><time>2026-04-04T14:40:11.854Z</time></trkpt><trkpt lat="44.8470467" lon="10.7409667"><ele>24.0</ele><time>2026-04-04T14:40:12.854Z</time></trkpt><trkpt lat="44.847105" lon="10.7407867"><ele>24.0</ele><time>2026-04-04T14:40:13.854Z</time></trkpt><trkpt lat="44.8471633" lon="10.7405983"><ele>24.0</ele><time>2026-04-04T14:40:14.854Z</time></trkpt><trkpt lat="44.8472133" lon="10.7404283"><ele>24.0</ele><time>2026-04-04T14:40:15.854Z</time></trkpt><trkpt lat="44.84727" lon="10.7402617"><ele>24.0</ele><time>2026-04-04T14:40:16.853Z</time></trkpt><trkpt lat="44.8473317" lon="10.7400967"><ele>24.0</ele><time>2026-04-04T14:40:17.854Z</time></trkpt><trkpt lat="44.8473867" lon="10.7399283"><ele>24.0</ele><time>2026-04-04T14:40:18.854Z</time></trkpt><trkpt lat="44.8474433" lon="10.73977"><ele>24.0</ele><time>2026-04-04T14:40:19.854Z</time></trkpt><trkpt lat="44.847495" lon="10.7396117"><ele>24.0</ele><time>2026-04-04T14:40:20.853Z</time></trkpt><trkpt lat="44.8475517" lon="10.739455"><ele>24.0</ele><time>2026-04-04T14:40:21.854Z</time></trkpt><trkpt lat="44.8475983" lon="10.7393067"><ele>24.5</ele><time>2026-04-04T14:40:22.854Z</time></trkpt><trkpt lat="44.847645" lon="10.7391533"><ele>25.0</ele><time>2026-04-04T14:40:23.854Z</time></trkpt><trkpt lat="44.8477" lon="10.739"><ele>25.5</ele><time>2026-04-04T14:40:24.854Z</time></trkpt><trkpt lat="44.8477467" lon="10.7388417"><ele>26.0</ele><time>2026-04-04T14:40:25.854Z</time></trkpt><trkpt lat="44.8478033" lon="10.73868"><ele>26.0</ele><time>2026-04-04T14:40:26.854Z</time></trkpt><trkpt lat="44.8478633" lon="10.7385233"><ele>26.0</ele><time>2026-04-04T14:40:27.854Z</time></trkpt><trkpt lat="44.8479317" lon="10.7383633"><ele>26.0</ele><time>2026-04-04T14:40:28.854Z</time></trkpt><trkpt lat="44.8479917" lon="10.7381983"><ele>26.0</ele><time>2026-04-04T14:40:29.854Z</time></trkpt><trkpt lat="44.8480483" lon="10.7380217"><ele>26.0</ele><time>2026-04-04T14:40:30.854Z</time></trkpt><trkpt lat="44.8481" lon="10.73785"><ele>26.0</ele><time>2026-04-04T14:40:31.853Z</time></trkpt><trkpt lat="44.8481667" lon="10.73768"><ele>26.0</ele><time>2026-04-04T14:40:32.854Z</time></trkpt><trkpt lat="44.8482283" lon="10.7375183"><ele>26.0</ele><time>2026-04-04T14:40:33.854Z</time></trkpt><trkpt lat="44.8482833" lon="10.7373667"><ele>26.200000000000003</ele><time>2026-04-04T14:40:34.854Z</time></trkpt><trkpt lat="44.8483333" lon="10.7372283"><ele>26.400000000000002</ele><time>2026-04-04T14:40:35.854Z</time></trkpt><trkpt lat="44.8483833" lon="10.7371067"><ele>26.6</ele><time>2026-04-04T14:40:36.853Z</time></trkpt><trkpt lat="44.848425" lon="10.7369983"><ele>26.8</ele><time>2026-04-04T14:40:37.854Z</time></trkpt><trkpt lat="44.8484633" lon="10.7368917"><ele>27.0</ele><time>2026-04-04T14:40:38.854Z</time></trkpt><trkpt lat="44.848505" lon="10.736795"><ele>26.666666666666668</ele><time>2026-04-04T14:40:39.853Z</time></trkpt><trkpt lat="44.848535" lon="10.7366717"><ele>26.333333333333336</ele><time>2026-04-04T14:40:40.854Z</time></trkpt><trkpt lat="44.848565" lon="10.7365683"><ele>26.0</ele><time>2026-04-04T14:40:41.854Z</time></trkpt><trkpt lat="44.8485967" lon="10.7364683"><ele>25.666666666666668</ele><time>2026-04-04T14:40:42.853Z</time></trkpt><trkpt lat="44.84862" lon="10.7363583"><ele>25.333333333333336</ele><time>2026-04-04T14:40:43.854Z</time></trkpt><trkpt lat="44.8486617" lon="10.7362467"><ele>25.0</ele><time>2026-04-04T14:40:44.854Z</time></trkpt><trkpt lat="44.8487133" lon="10.7361167"><ele>25.0</ele><time>2026-04-04T14:40:45.854Z</time></trkpt><trkpt lat="44.8487633" lon="10.735985"><ele>25.0</ele><time>2026-04-04T14:40:46.854Z</time></trkpt><trkpt lat="44.8488233" lon="10.7358383"><ele>25.0</ele><time>2026-04-04T14:40:47.854Z</time></trkpt><trkpt lat="44.8488817" lon="10.735685"><ele>25.0</ele><time>2026-04-04T14:40:48.854Z</time></trkpt><trkpt lat="44.8489333" lon="10.73552"><ele>25.0</ele><time>2026-04-04T14:40:49.853Z</time></trkpt><trkpt lat="44.84898" lon="10.7353633"><ele>25.0</ele><time>2026-04-04T14:40:50.854Z</time></trkpt><trkpt lat="44.84903" lon="10.7352117"><ele>25.0</ele><time>2026-04-04T14:40:51.854Z</time></trkpt><trkpt lat="44.8490717" lon="10.7350717"><ele>25.0</ele><time>2026-04-04T14:40:52.854Z</time></trkpt><trkpt lat="44.8491133" lon="10.73492"><ele>25.0</ele><time>2026-04-04T14:40:53.854Z</time></trkpt><trkpt lat="44.8491583" lon="10.7347567"><ele>25.0</ele><time>2026-04-04T14:40:54.854Z</time></trkpt><trkpt lat="44.8492067" lon="10.734585"><ele>25.0</ele><time>2026-04-04T14:40:55.854Z</time></trkpt><trkpt lat="44.8492417" lon="10.7344083"><ele>25.0</ele><time>2026-04-04T14:40:56.854Z</time></trkpt><trkpt lat="44.8492733" lon="10.73422"><ele>25.0</ele><time>2026-04-04T14:40:57.854Z</time></trkpt><trkpt lat="44.8492883" lon="10.7340183"><ele>25.0</ele><time>2026-04-04T14:40:58.854Z</time></trkpt><trkpt lat="44.8492833" lon="10.7338183"><ele>25.0</ele><time>2026-04-04T14:40:59.853Z</time></trkpt><trkpt lat="44.84926" lon="10.7336"><ele>25.0</ele><time>2026-04-04T14:41:00.854Z</time></trkpt><trkpt lat="44.8492417" lon="10.7333833"><ele>25.0</ele><time>2026-04-04T14:41:01.854Z</time></trkpt><trkpt lat="44.8492233" lon="10.7331733"><ele>25.0</ele><time>2026-04-04T14:41:02.854Z</time></trkpt><trkpt lat="44.8492117" lon="10.732985"><ele>25.0</ele><time>2026-04-04T14:41:03.853Z</time></trkpt><trkpt lat="44.8492017" lon="10.73281"><ele>25.0</ele><time>2026-04-04T14:41:04.853Z</time></trkpt><trkpt lat="44.8491967" lon="10.7326483"><ele>24.8</ele><time>2026-04-04T14:41:05.854Z</time></trkpt><trkpt lat="44.8492" lon="10.7325067"><ele>24.6</ele><time>2026-04-04T14:41:06.853Z</time></trkpt><trkpt lat="44.8492083" lon="10.7323683"><ele>24.4</ele><time>2026-04-04T14:41:07.854Z</time></trkpt><trkpt lat="44.849215" lon="10.7322433"><ele>24.2</ele><time>2026-04-04T14:41:08.853Z</time></trkpt><trkpt lat="44.8492267" lon="10.732145"><ele>24.0</ele><time>2026-04-04T14:41:09.854Z</time></trkpt><trkpt lat="44.8492467" lon="10.7319767"><ele>24.2</ele><time>2026-04-04T14:41:11.853Z</time></trkpt><trkpt lat="44.8492767" lon="10.731835"><ele>24.4</ele><time>2026-04-04T14:41:13.854Z</time></trkpt><trkpt lat="44.8492917" lon="10.7317133"><ele>24.6</ele><time>2026-04-04T14:41:15.853Z</time></trkpt><trkpt lat="44.8492933" lon="10.731605"><ele>24.8</ele><time>2026-04-04T14:41:17.854Z</time></trkpt><trkpt lat="44.8492483" lon="10.7314167"><ele>25.0</ele><time>2026-04-04T14:41:42.854Z</time></trkpt><trkpt lat="44.84922" lon="10.7313283"><ele>25.4</ele><time>2026-04-04T14:41:43.854Z</time></trkpt><trkpt lat="44.8491817" lon="10.7312283"><ele>25.8</ele><time>2026-04-04T14:41:44.854Z</time></trkpt><trkpt lat="44.84913" lon="10.7311033"><ele>26.200000000000003</ele><time>2026-04-04T14:41:45.853Z</time></trkpt><trkpt lat="44.8490717" lon="10.730965"><ele>26.6</ele><time>2026-04-04T14:41:46.854Z</time></trkpt><trkpt lat="44.8490133" lon="10.7308133"><ele>27.0</ele><time>2026-04-04T14:41:47.854Z</time></trkpt><trkpt lat="44.84895" lon="10.7306667"><ele>27.0</ele><time>2026-04-04T14:41:48.854Z</time></trkpt><trkpt lat="44.8488933" lon="10.7305283"><ele>27.000000000000004</ele><time>2026-04-04T14:41:49.854Z</time></trkpt><trkpt lat="44.8488467" lon="10.7303983"><ele>27.000000000000004</ele><time>2026-04-04T14:41:50.854Z</time></trkpt><trkpt lat="44.8487783" lon="10.7302583"><ele>27.0</ele><time>2026-04-04T14:41:51.854Z</time></trkpt><trkpt lat="44.8487317" lon="10.7301217"><ele>27.0</ele><time>2026-04-04T14:41:52.853Z</time></trkpt><trkpt lat="44.8486817" lon="10.7299767"><ele>27.0</ele><time>2026-04-04T14:41:53.854Z</time></trkpt><trkpt lat="44.8486183" lon="10.7298117"><ele>27.0</ele><time>2026-04-04T14:41:54.854Z</time></trkpt><trkpt lat="44.8485567" lon="10.72963"><ele>27.0</ele><time>2026-04-04T14:41:55.853Z</time></trkpt><trkpt lat="44.848505" lon="10.7294433"><ele>27.0</ele><time>2026-04-04T14:41:56.854Z</time></trkpt><trkpt lat="44.848445" lon="10.729285"><ele>26.8</ele><time>2026-04-04T14:41:57.854Z</time></trkpt><trkpt lat="44.8483783" lon="10.7291433"><ele>26.6</ele><time>2026-04-04T14:41:58.854Z</time></trkpt><trkpt lat="44.8483317" lon="10.7290017"><ele>26.400000000000002</ele><time>2026-04-04T14:41:59.853Z</time></trkpt><trkpt lat="44.8483017" lon="10.7288567"><ele>26.200000000000003</ele><time>2026-04-04T14:42:00.854Z</time></trkpt><trkpt lat="44.8482617" lon="10.728715"><ele>26.0</ele><time>2026-04-04T14:42:01.854Z</time></trkpt><trkpt lat="44.8482233" lon="10.7285767"><ele>26.0</ele><time>2026-04-04T14:42:02.854Z</time></trkpt><trkpt lat="44.8481867" lon="10.7284233"><ele>26.0</ele><time>2026-04-04T14:42:03.854Z</time></trkpt><trkpt lat="44.8481583" lon="10.728265"><ele>26.0</ele><time>2026-04-04T14:42:04.853Z</time></trkpt><trkpt lat="44.8481283" lon="10.7280983"><ele>26.0</ele><time>2026-04-04T14:42:05.853Z</time></trkpt><trkpt lat="44.8481117" lon="10.7279233"><ele>26.0</ele><time>2026-04-04T14:42:06.854Z</time></trkpt><trkpt lat="44.84809" lon="10.727765"><ele>26.0</ele><time>2026-04-04T14:42:07.854Z</time></trkpt><trkpt lat="44.8480683" lon="10.7276017"><ele>26.0</ele><time>2026-04-04T14:42:08.854Z</time></trkpt><trkpt lat="44.8480517" lon="10.72743"><ele>26.0</ele><time>2026-04-04T14:42:09.854Z</time></trkpt><trkpt lat="44.8480383" lon="10.7272583"><ele>26.0</ele><time>2026-04-04T14:42:10.854Z</time></trkpt><trkpt lat="44.8480283" lon="10.7270867"><ele>26.0</ele><time>2026-04-04T14:42:11.853Z</time></trkpt><trkpt lat="44.8480217" lon="10.7269117"><ele>26.0</ele><time>2026-04-04T14:42:12.854Z</time></trkpt><trkpt lat="44.8480183" lon="10.72675"><ele>26.0</ele><time>2026-04-04T14:42:13.854Z</time></trkpt><trkpt lat="44.8480133" lon="10.726605"><ele>25.999999999999996</ele><time>2026-04-04T14:42:14.854Z</time></trkpt><trkpt lat="44.8480117" lon="10.7264767"><ele>26.0</ele><time>2026-04-04T14:42:15.854Z</time></trkpt><trkpt lat="44.84802" lon="10.7263733"><ele>26.0</ele><time>2026-04-04T14:42:16.854Z</time></trkpt><trkpt lat="44.8480283" lon="10.7262817"><ele>26.0</ele><time>2026-04-04T14:42:17.854Z</time></trkpt><trkpt lat="44.8480433" lon="10.726125"><ele>25.999999999999996</ele><time>2026-04-04T14:42:19.854Z</time></trkpt><trkpt lat="44.84805" lon="10.7260267"><ele>26.0</ele><time>2026-04-04T14:42:20.853Z</time></trkpt><trkpt lat="44.8480567" lon="10.7259067"><ele>26.200000000000003</ele><time>2026-04-04T14:42:21.854Z</time></trkpt><trkpt lat="44.848075" lon="10.7257683"><ele>26.400000000000002</ele><time>2026-04-04T14:42:22.854Z</time></trkpt><trkpt lat="44.8481017" lon="10.7256217"><ele>26.6</ele><time>2026-04-04T14:42:23.853Z</time></trkpt><trkpt lat="44.8481383" lon="10.725475"><ele>26.8</ele><time>2026-04-04T14:42:24.854Z</time></trkpt><trkpt lat="44.8481833" lon="10.7253067"><ele>27.0</ele><time>2026-04-04T14:42:25.854Z</time></trkpt><trkpt lat="44.8482233" lon="10.7251233"><ele>26.333333333333336</ele><time>2026-04-04T14:42:26.854Z</time></trkpt><trkpt lat="44.8482733" lon="10.72493"><ele>25.666666666666668</ele><time>2026-04-04T14:42:27.854Z</time></trkpt><trkpt lat="44.8483267" lon="10.7247267"><ele>25.0</ele><time>2026-04-04T14:42:28.854Z</time></trkpt><trkpt lat="44.848375" lon="10.72452"><ele>25.0</ele><time>2026-04-04T14:42:29.854Z</time></trkpt><trkpt lat="44.8484367" lon="10.724305"><ele>25.0</ele><time>2026-04-04T14:42:30.853Z</time></trkpt><trkpt lat="44.8484883" lon="10.72408"><ele>25.0</ele><time>2026-04-04T14:42:31.854Z</time></trkpt><trkpt lat="44.8485617" lon="10.7238417"><ele>25.0</ele><time>2026-04-04T14:42:32.854Z</time></trkpt><trkpt lat="44.848635" lon="10.7235833"><ele>25.0</ele><time>2026-04-04T14:42:33.854Z</time></trkpt><trkpt lat="44.8487233" lon="10.723315"><ele>25.0</ele><time>2026-04-04T14:42:34.854Z</time></trkpt><trkpt lat="44.8488283" lon="10.7230433"><ele>25.5</ele><time>2026-04-04T14:42:35.854Z</time></trkpt><trkpt lat="44.84893" lon="10.7227567"><ele>26.0</ele><time>2026-04-04T14:42:36.854Z</time></trkpt><trkpt lat="44.8490383" lon="10.7224733"><ele>25.0</ele><time>2026-04-04T14:42:37.853Z</time></trkpt><trkpt lat="44.849155" lon="10.72219"><ele>24.0</ele><time>2026-04-04T14:42:38.854Z</time></trkpt><trkpt lat="44.84927" lon="10.7219017"><ele>23.0</ele><time>2026-04-04T14:42:39.854Z</time></trkpt><trkpt lat="44.8493783" lon="10.72161"><ele>22.0</ele><time>2026-04-04T14:42:40.854Z</time></trkpt><trkpt lat="44.849485" lon="10.721305"><ele>22.5</ele><time>2026-04-04T14:42:41.854Z</time></trkpt><trkpt lat="44.8495967" lon="10.7210167"><ele>23.0</ele><time>2026-04-04T14:42:42.854Z</time></trkpt><trkpt lat="44.8497067" lon="10.7207183"><ele>23.0</ele><time>2026-04-04T14:42:43.854Z</time></trkpt><trkpt lat="44.8498317" lon="10.7204183"><ele>23.0</ele><time>2026-04-04T14:42:44.854Z</time></trkpt><trkpt lat="44.8499517" lon="10.720115"><ele>23.5</ele><time>2026-04-04T14:42:45.853Z</time></trkpt><trkpt lat="44.8500667" lon="10.7198183"><ele>24.0</ele><time>2026-04-04T14:42:46.854Z</time></trkpt><trkpt lat="44.8501783" lon="10.719545"><ele>23.333333333333332</ele><time>2026-04-04T14:42:47.853Z</time></trkpt><trkpt lat="44.8502817" lon="10.7192917"><ele>22.666666666666664</ele><time>2026-04-04T14:42:48.854Z</time></trkpt><trkpt lat="44.8503833" lon="10.7190333"><ele>22.0</ele><time>2026-04-04T14:42:49.854Z</time></trkpt><trkpt lat="44.850485" lon="10.7187767"><ele>21.666666666666664</ele><time>2026-04-04T14:42:50.853Z</time></trkpt><trkpt lat="44.85059" lon="10.7185233"><ele>21.333333333333332</ele><time>2026-04-04T14:42:51.854Z</time></trkpt><trkpt lat="44.850695" lon="10.7182583"><ele>21.0</ele><time>2026-04-04T14:42:52.854Z</time></trkpt><trkpt lat="44.8507933" lon="10.7180033"><ele>21.0</ele><time>2026-04-04T14:42:53.854Z</time></trkpt><trkpt lat="44.8509067" lon="10.7177517"><ele>21.0</ele><time>2026-04-04T14:42:54.853Z</time></trkpt><trkpt lat="44.851005" lon="10.7174917"><ele>21.0</ele><time>2026-04-04T14:42:55.854Z</time></trkpt><trkpt lat="44.851105" lon="10.717235"><ele>21.333333333333332</ele><time>2026-04-04T14:42:56.853Z</time></trkpt><trkpt lat="44.8511967" lon="10.7169883"><ele>21.666666666666664</ele><time>2026-04-04T14:42:57.854Z</time></trkpt><trkpt lat="44.8512917" lon="10.7167583"><ele>22.0</ele><time>2026-04-04T14:42:58.854Z</time></trkpt><trkpt lat="44.8513933" lon="10.7165117"><ele>22.0</ele><time>2026-04-04T14:42:59.853Z</time></trkpt><trkpt lat="44.8514933" lon="10.7162667"><ele>22.0</ele><time>2026-04-04T14:43:00.854Z</time></trkpt><trkpt lat="44.8515883" lon="10.71602"><ele>22.0</ele><time>2026-04-04T14:43:01.854Z</time></trkpt><trkpt lat="44.851675" lon="10.7157833"><ele>22.0</ele><time>2026-04-04T14:43:02.854Z</time></trkpt><trkpt lat="44.8517617" lon="10.715555"><ele>22.0</ele><time>2026-04-04T14:43:03.854Z</time></trkpt><trkpt lat="44.85184" lon="10.7153467"><ele>22.0</ele><time>2026-04-04T14:43:04.853Z</time></trkpt><trkpt lat="44.8519233" lon="10.715135"><ele>22.0</ele><time>2026-04-04T14:43:05.854Z</time></trkpt><trkpt lat="44.852" lon="10.7149183"><ele>22.0</ele><time>2026-04-04T14:43:06.854Z</time></trkpt><trkpt lat="44.8520767" lon="10.71471"><ele>22.0</ele><time>2026-04-04T14:43:07.854Z</time></trkpt><trkpt lat="44.8521567" lon="10.7145067"><ele>21.333333333333332</ele><time>2026-04-04T14:43:08.854Z</time></trkpt><trkpt lat="44.8522333" lon="10.714295"><ele>20.666666666666668</ele><time>2026-04-04T14:43:09.854Z</time></trkpt><trkpt lat="44.85231" lon="10.71409"><ele>20.0</ele><time>2026-04-04T14:43:10.854Z</time></trkpt><trkpt lat="44.8523917" lon="10.71388"><ele>20.0</ele><time>2026-04-04T14:43:11.854Z</time></trkpt><trkpt lat="44.8524783" lon="10.7136667"><ele>20.0</ele><time>2026-04-04T14:43:12.854Z</time></trkpt><trkpt lat="44.852565" lon="10.713455"><ele>20.0</ele><time>2026-04-04T14:43:13.853Z</time></trkpt><trkpt lat="44.8526383" lon="10.7132333"><ele>20.333333333333336</ele><time>2026-04-04T14:43:14.854Z</time></trkpt><trkpt lat="44.8527233" lon="10.71302"><ele>20.666666666666668</ele><time>2026-04-04T14:43:15.854Z</time></trkpt><trkpt lat="44.8528" lon="10.7128167"><ele>21.0</ele><time>2026-04-04T14:43:16.854Z</time></trkpt><trkpt lat="44.8528933" lon="10.7125967"><ele>21.0</ele><time>2026-04-04T14:43:17.854Z</time></trkpt><trkpt lat="44.852985" lon="10.712375"><ele>21.0</ele><time>2026-04-04T14:43:18.854Z</time></trkpt><trkpt lat="44.853075" lon="10.7121483"><ele>21.0</ele><time>2026-04-04T14:43:19.854Z</time></trkpt><trkpt lat="44.8531733" lon="10.711925"><ele>21.0</ele><time>2026-04-04T14:43:20.854Z</time></trkpt><trkpt lat="44.85326" lon="10.711685"><ele>21.0</ele><time>2026-04-04T14:43:21.854Z</time></trkpt><trkpt lat="44.8533517" lon="10.711455"><ele>21.0</ele><time>2026-04-04T14:43:22.853Z</time></trkpt><trkpt lat="44.85345" lon="10.7112017"><ele>21.333333333333332</ele><time>2026-04-04T14:43:23.854Z</time></trkpt><trkpt lat="44.8535467" lon="10.71095"><ele>21.666666666666664</ele><time>2026-04-04T14:43:24.854Z</time></trkpt><trkpt lat="44.8536433" lon="10.7107033"><ele>22.0</ele><time>2026-04-04T14:43:25.854Z</time></trkpt><trkpt lat="44.85374" lon="10.7104533"><ele>21.333333333333332</ele><time>2026-04-04T14:43:26.854Z</time></trkpt><trkpt lat="44.8538383" lon="10.710205"><ele>20.666666666666668</ele><time>2026-04-04T14:43:27.853Z</time></trkpt><trkpt lat="44.8539383" lon="10.7099633"><ele>20.0</ele><time>2026-04-04T14:43:28.854Z</time></trkpt><trkpt lat="44.8540333" lon="10.7097317"><ele>20.0</ele><time>2026-04-04T14:43:29.854Z</time></trkpt><trkpt lat="44.8541267" lon="10.709495"><ele>20.0</ele><time>2026-04-04T14:43:30.854Z</time></trkpt><trkpt lat="44.8542233" lon="10.7092583"><ele>20.0</ele><time>2026-04-04T14:43:31.854Z</time></trkpt><trkpt lat="44.854315" lon="10.7090133"><ele>20.0</ele><time>2026-04-04T14:43:32.854Z</time></trkpt><trkpt lat="44.8544033" lon="10.7087783"><ele>20.0</ele><time>2026-04-04T14:43:33.854Z</time></trkpt><trkpt lat="44.854495" lon="10.70854"><ele>20.0</ele><time>2026-04-04T14:43:34.854Z</time></trkpt><trkpt lat="44.854585" lon="10.7083117"><ele>20.333333333333336</ele><time>2026-04-04T14:43:35.854Z</time></trkpt><trkpt lat="44.854675" lon="10.708075"><ele>20.666666666666668</ele><time>2026-04-04T14:43:36.854Z</time></trkpt><trkpt lat="44.8547633" lon="10.70784"><ele>21.0</ele><time>2026-04-04T14:43:37.853Z</time></trkpt><trkpt lat="44.8548533" lon="10.7076183"><ele>21.333333333333332</ele><time>2026-04-04T14:43:38.853Z</time></trkpt><trkpt lat="44.8549467" lon="10.7074167"><ele>21.666666666666664</ele><time>2026-04-04T14:43:39.853Z</time></trkpt><trkpt lat="44.85503" lon="10.70722"><ele>22.0</ele><time>2026-04-04T14:43:40.853Z</time></trkpt><trkpt lat="44.8551167" lon="10.7070267"><ele>22.0</ele><time>2026-04-04T14:43:41.854Z</time></trkpt><trkpt lat="44.85521" lon="10.7068417"><ele>22.0</ele><time>2026-04-04T14:43:42.853Z</time></trkpt><trkpt lat="44.8553" lon="10.70667"><ele>22.0</ele><time>2026-04-04T14:43:43.854Z</time></trkpt><trkpt lat="44.8553983" lon="10.706515"><ele>22.0</ele><time>2026-04-04T14:43:44.854Z</time></trkpt><trkpt lat="44.855495" lon="10.706355"><ele>22.0</ele><time>2026-04-04T14:43:45.854Z</time></trkpt><trkpt lat="44.8555983" lon="10.7062017"><ele>22.0</ele><time>2026-04-04T14:43:46.854Z</time></trkpt><trkpt lat="44.8557267" lon="10.7060567"><ele>22.0</ele><time>2026-04-04T14:43:47.854Z</time></trkpt><trkpt lat="44.8558467" lon="10.705915"><ele>22.0</ele><time>2026-04-04T14:43:48.854Z</time></trkpt><trkpt lat="44.8559667" lon="10.7057817"><ele>22.0</ele><time>2026-04-04T14:43:49.854Z</time></trkpt><trkpt lat="44.8560817" lon="10.7056533"><ele>22.0</ele><time>2026-04-04T14:43:50.853Z</time></trkpt><trkpt lat="44.8562017" lon="10.7055283"><ele>22.0</ele><time>2026-04-04T14:43:51.854Z</time></trkpt><trkpt lat="44.85633" lon="10.70541"><ele>22.0</ele><time>2026-04-04T14:43:52.854Z</time></trkpt><trkpt lat="44.8564583" lon="10.7052867"><ele>21.0</ele><time>2026-04-04T14:43:53.853Z</time></trkpt><trkpt lat="44.8565933" lon="10.7051617"><ele>20.0</ele><time>2026-04-04T14:43:54.854Z</time></trkpt><trkpt lat="44.8567267" lon="10.7050333"><ele>19.0</ele><time>2026-04-04T14:43:55.854Z</time></trkpt><trkpt lat="44.85686" lon="10.704905"><ele>18.666666666666664</ele><time>2026-04-04T14:43:56.854Z</time></trkpt><trkpt lat="44.856995" lon="10.7047717"><ele>18.333333333333332</ele><time>2026-04-04T14:43:57.854Z</time></trkpt><trkpt lat="44.8571217" lon="10.7046467"><ele>18.0</ele><time>2026-04-04T14:43:58.854Z</time></trkpt><trkpt lat="44.85724" lon="10.7045333"><ele>18.0</ele><time>2026-04-04T14:43:59.854Z</time></trkpt><trkpt lat="44.8573517" lon="10.704415"><ele>18.0</ele><time>2026-04-04T14:44:00.854Z</time></trkpt><trkpt lat="44.8574533" lon="10.7043167"><ele>18.0</ele><time>2026-04-04T14:44:01.854Z</time></trkpt><trkpt lat="44.8575583" lon="10.7042233"><ele>18.0</ele><time>2026-04-04T14:44:02.854Z</time></trkpt><trkpt lat="44.85766" lon="10.7041583"><ele>18.2</ele><time>2026-04-04T14:44:03.854Z</time></trkpt><trkpt lat="44.857755" lon="10.7041117"><ele>18.4</ele><time>2026-04-04T14:44:04.854Z</time></trkpt><trkpt lat="44.8578483" lon="10.70408"><ele>18.599999999999998</ele><time>2026-04-04T14:44:05.854Z</time></trkpt><trkpt lat="44.8579467" lon="10.7040683"><ele>18.8</ele><time>2026-04-04T14:44:06.854Z</time></trkpt><trkpt lat="44.8580517" lon="10.7040833"><ele>19.0</ele><time>2026-04-04T14:44:07.854Z</time></trkpt><trkpt lat="44.858145" lon="10.7041133"><ele>19.0</ele><time>2026-04-04T14:44:08.853Z</time></trkpt><trkpt lat="44.8582317" lon="10.70416"><ele>19.0</ele><time>2026-04-04T14:44:09.854Z</time></trkpt><trkpt lat="44.8583133" lon="10.7041967"><ele>19.0</ele><time>2026-04-04T14:44:10.854Z</time></trkpt><trkpt lat="44.8583933" lon="10.7042083"><ele>19.0</ele><time>2026-04-04T14:44:11.854Z</time></trkpt><trkpt lat="44.8584617" lon="10.7041767"><ele>19.0</ele><time>2026-04-04T14:44:12.854Z</time></trkpt><trkpt lat="44.85853" lon="10.7041117"><ele>19.0</ele><time>2026-04-04T14:44:13.854Z</time></trkpt><trkpt lat="44.8585633" lon="10.7040117"><ele>18.599999999999998</ele><time>2026-04-04T14:44:14.854Z</time></trkpt><trkpt lat="44.8585767" lon="10.7038783"><ele>18.2</ele><time>2026-04-04T14:44:15.854Z</time></trkpt><trkpt lat="44.8585783" lon="10.7037333"><ele>17.799999999999997</ele><time>2026-04-04T14:44:16.854Z</time></trkpt><trkpt lat="44.8585967" lon="10.7035767"><ele>17.4</ele><time>2026-04-04T14:44:17.854Z</time></trkpt><trkpt lat="44.8586233" lon="10.7034067"><ele>17.0</ele><time>2026-04-04T14:44:18.853Z</time></trkpt><trkpt lat="44.85867" lon="10.70324"><ele>17.0</ele><time>2026-04-04T14:44:19.854Z</time></trkpt><trkpt lat="44.8587567" lon="10.703075"><ele>17.0</ele><time>2026-04-04T14:44:20.854Z</time></trkpt><trkpt lat="44.8588633" lon="10.7029417"><ele>17.0</ele><time>2026-04-04T14:44:21.854Z</time></trkpt><trkpt lat="44.858985" lon="10.7028117"><ele>17.0</ele><time>2026-04-04T14:44:22.854Z</time></trkpt><trkpt lat="44.8591167" lon="10.7026933"><ele>17.0</ele><time>2026-04-04T14:44:23.853Z</time></trkpt><trkpt lat="44.8592517" lon="10.7025717"><ele>17.0</ele><time>2026-04-04T14:44:24.853Z</time></trkpt><trkpt lat="44.8593967" lon="10.7024417"><ele>17.0</ele><time>2026-04-04T14:44:25.853Z</time></trkpt><trkpt lat="44.859545" lon="10.7023017"><ele>17.0</ele><time>2026-04-04T14:44:26.854Z</time></trkpt><trkpt lat="44.8596967" lon="10.7021617"><ele>17.0</ele><time>2026-04-04T14:44:27.854Z</time></trkpt><trkpt lat="44.859855" lon="10.7020167"><ele>17.0</ele><time>2026-04-04T14:44:28.854Z</time></trkpt><trkpt lat="44.860015" lon="10.7018633"><ele>18.666666666666668</ele><time>2026-04-04T14:44:29.853Z</time></trkpt><trkpt lat="44.8601717" lon="10.7017033"><ele>20.333333333333332</ele><time>2026-04-04T14:44:30.854Z</time></trkpt><trkpt lat="44.8603283" lon="10.7015533"><ele>22.0</ele><time>2026-04-04T14:44:31.853Z</time></trkpt><trkpt lat="44.8604833" lon="10.7014033"><ele>22.0</ele><time>2026-04-04T14:44:32.853Z</time></trkpt><trkpt lat="44.86064" lon="10.70126"><ele>22.0</ele><time>2026-04-04T14:44:33.853Z</time></trkpt><trkpt lat="44.860795" lon="10.7011183"><ele>22.0</ele><time>2026-04-04T14:44:34.853Z</time></trkpt><trkpt lat="44.8609633" lon="10.70097"><ele>21.333333333333332</ele><time>2026-04-04T14:44:35.852Z</time></trkpt><trkpt lat="44.8611183" lon="10.700815"><ele>20.666666666666668</ele><time>2026-04-04T14:44:36.853Z</time></trkpt><trkpt lat="44.8612833" lon="10.7006517"><ele>20.0</ele><time>2026-04-04T14:44:37.853Z</time></trkpt><trkpt lat="44.8614467" lon="10.7004783"><ele>20.0</ele><time>2026-04-04T14:44:38.853Z</time></trkpt><trkpt lat="44.8616083" lon="10.70031"><ele>20.0</ele><time>2026-04-04T14:44:39.853Z</time></trkpt><trkpt lat="44.8617733" lon="10.7001433"><ele>20.0</ele><time>2026-04-04T14:44:40.853Z</time></trkpt><trkpt lat="44.8619433" lon="10.699975"><ele>19.666666666666668</ele><time>2026-04-04T14:44:41.852Z</time></trkpt><trkpt lat="44.8621167" lon="10.6998083"><ele>19.333333333333332</ele><time>2026-04-04T14:44:42.852Z</time></trkpt><trkpt lat="44.8622967" lon="10.6996433"><ele>19.0</ele><time>2026-04-04T14:44:43.853Z</time></trkpt><trkpt lat="44.8624733" lon="10.6994667"><ele>18.0</ele><time>2026-04-04T14:44:44.853Z</time></trkpt><trkpt lat="44.862645" lon="10.6992767"><ele>17.0</ele><time>2026-04-04T14:44:45.853Z</time></trkpt><trkpt lat="44.8628083" lon="10.69909"><ele>16.0</ele><time>2026-04-04T14:44:46.852Z</time></trkpt><trkpt lat="44.8629667" lon="10.6988817"><ele>16.0</ele><time>2026-04-04T14:44:47.853Z</time></trkpt><trkpt lat="44.8631217" lon="10.69866"><ele>16.0</ele><time>2026-04-04T14:44:48.853Z</time></trkpt><trkpt lat="44.8632683" lon="10.6984183"><ele>16.0</ele><time>2026-04-04T14:44:49.853Z</time></trkpt><trkpt lat="44.8634133" lon="10.6981717"><ele>16.5</ele><time>2026-04-04T14:44:50.853Z</time></trkpt><trkpt lat="44.86356" lon="10.6979133"><ele>17.0</ele><time>2026-04-04T14:44:51.853Z</time></trkpt><trkpt lat="44.86371" lon="10.6976483"><ele>17.5</ele><time>2026-04-04T14:44:52.853Z</time></trkpt><trkpt lat="44.8638633" lon="10.69737"><ele>18.0</ele><time>2026-04-04T14:44:53.852Z</time></trkpt><trkpt lat="44.8640167" lon="10.69709"><ele>18.0</ele><time>2026-04-04T14:44:54.853Z</time></trkpt><trkpt lat="44.86418" lon="10.6968117"><ele>18.0</ele><time>2026-04-04T14:44:55.853Z</time></trkpt><trkpt lat="44.8643333" lon="10.6965317"><ele>17.5</ele><time>2026-04-04T14:44:56.853Z</time></trkpt><trkpt lat="44.8644917" lon="10.6962567"><ele>17.0</ele><time>2026-04-04T14:44:57.853Z</time></trkpt><trkpt lat="44.8646483" lon="10.6959767"><ele>17.0</ele><time>2026-04-04T14:44:58.853Z</time></trkpt><trkpt lat="44.8648033" lon="10.6956983"><ele>17.0</ele><time>2026-04-04T14:44:59.853Z</time></trkpt><trkpt lat="44.86496" lon="10.6954217"><ele>18.0</ele><time>2026-04-04T14:45:00.853Z</time></trkpt><trkpt lat="44.8651167" lon="10.69515"><ele>19.0</ele><time>2026-04-04T14:45:01.853Z</time></trkpt><trkpt lat="44.8652717" lon="10.69488"><ele>19.0</ele><time>2026-04-04T14:45:02.853Z</time></trkpt><trkpt lat="44.8654233" lon="10.6946083"><ele>19.0</ele><time>2026-04-04T14:45:03.853Z</time></trkpt><trkpt lat="44.8655767" lon="10.6943367"><ele>18.0</ele><time>2026-04-04T14:45:04.853Z</time></trkpt><trkpt lat="44.865735" lon="10.6940617"><ele>17.0</ele><time>2026-04-04T14:45:05.853Z</time></trkpt><trkpt lat="44.8658933" lon="10.6937883"><ele>17.5</ele><time>2026-04-04T14:45:06.853Z</time></trkpt><trkpt lat="44.86605" lon="10.693515"><ele>18.0</ele><time>2026-04-04T14:45:07.852Z</time></trkpt><trkpt lat="44.866205" lon="10.6932433"><ele>18.0</ele><time>2026-04-04T14:45:08.853Z</time></trkpt><trkpt lat="44.866355" lon="10.6929667"><ele>18.0</ele><time>2026-04-04T14:45:09.852Z</time></trkpt><trkpt lat="44.8665083" lon="10.6927"><ele>18.0</ele><time>2026-04-04T14:45:10.853Z</time></trkpt><trkpt lat="44.866655" lon="10.6924367"><ele>18.0</ele><time>2026-04-04T14:45:11.853Z</time></trkpt><trkpt lat="44.8667983" lon="10.6921783"><ele>17.5</ele><time>2026-04-04T14:45:12.853Z</time></trkpt><trkpt lat="44.8669467" lon="10.69192"><ele>17.0</ele><time>2026-04-04T14:45:13.853Z</time></trkpt><trkpt lat="44.86709" lon="10.6916633"><ele>17.0</ele><time>2026-04-04T14:45:14.853Z</time></trkpt><trkpt lat="44.8672333" lon="10.69141"><ele>17.0</ele><time>2026-04-04T14:45:15.852Z</time></trkpt><trkpt lat="44.86738" lon="10.6911533"><ele>17.0</ele><time>2026-04-04T14:45:16.853Z</time></trkpt><trkpt lat="44.8675233" lon="10.6909033"><ele>17.0</ele><time>2026-04-04T14:45:17.853Z</time></trkpt><trkpt lat="44.8676583" lon="10.6906633"><ele>17.0</ele><time>2026-04-04T14:45:18.853Z</time></trkpt><trkpt lat="44.8677817" lon="10.690425"><ele>16.666666666666668</ele><time>2026-04-04T14:45:19.853Z</time></trkpt><trkpt lat="44.8679117" lon="10.6902117"><ele>16.333333333333332</ele><time>2026-04-04T14:45:20.853Z</time></trkpt><trkpt lat="44.8680217" lon="10.6900133"><ele>16.0</ele><time>2026-04-04T14:45:21.853Z</time></trkpt><trkpt lat="44.86812" lon="10.689835"><ele>16.0</ele><time>2026-04-04T14:45:22.853Z</time></trkpt><trkpt lat="44.8682133" lon="10.6896783"><ele>16.0</ele><time>2026-04-04T14:45:23.852Z</time></trkpt><trkpt lat="44.8682967" lon="10.689535"><ele>16.0</ele><time>2026-04-04T14:45:24.853Z</time></trkpt><trkpt lat="44.8683767" lon="10.6894"><ele>16.0</ele><time>2026-04-04T14:45:25.853Z</time></trkpt><trkpt lat="44.8684483" lon="10.6892767"><ele>16.400000000000002</ele><time>2026-04-04T14:45:26.853Z</time></trkpt><trkpt lat="44.8685183" lon="10.6891583"><ele>16.8</ele><time>2026-04-04T14:45:27.853Z</time></trkpt><trkpt lat="44.8685817" lon="10.6890467"><ele>17.200000000000003</ele><time>2026-04-04T14:45:28.853Z</time></trkpt><trkpt lat="44.868645" lon="10.688935"><ele>17.6</ele><time>2026-04-04T14:45:29.853Z</time></trkpt><trkpt lat="44.8687117" lon="10.6888267"><ele>18.0</ele><time>2026-04-04T14:45:30.853Z</time></trkpt><trkpt lat="44.8687817" lon="10.6887083"><ele>18.0</ele><time>2026-04-04T14:45:31.853Z</time></trkpt><trkpt lat="44.8688533" lon="10.6885833"><ele>18.0</ele><time>2026-04-04T14:45:32.853Z</time></trkpt><trkpt lat="44.86893" lon="10.6884467"><ele>18.0</ele><time>2026-04-04T14:45:33.853Z</time></trkpt><trkpt lat="44.8690083" lon="10.6882917"><ele>18.0</ele><time>2026-04-04T14:45:34.853Z</time></trkpt><trkpt lat="44.8690967" lon="10.688135"><ele>18.0</ele><time>2026-04-04T14:45:35.853Z</time></trkpt><trkpt lat="44.8691883" lon="10.6879783"><ele>18.0</ele><time>2026-04-04T14:45:36.853Z</time></trkpt><trkpt lat="44.8692867" lon="10.6878217"><ele>18.0</ele><time>2026-04-04T14:45:37.853Z</time></trkpt><trkpt lat="44.869385" lon="10.6876583"><ele>18.0</ele><time>2026-04-04T14:45:38.853Z</time></trkpt><trkpt lat="44.8694783" lon="10.68749"><ele>18.666666666666668</ele><time>2026-04-04T14:45:39.853Z</time></trkpt><trkpt lat="44.8695683" lon="10.6873183"><ele>19.333333333333336</ele><time>2026-04-04T14:45:40.853Z</time></trkpt><trkpt lat="44.86967" lon="10.6871433"><ele>20.0</ele><time>2026-04-04T14:45:41.853Z</time></trkpt><trkpt lat="44.86978" lon="10.6869633"><ele>20.666666666666668</ele><time>2026-04-04T14:45:42.852Z</time></trkpt><trkpt lat="44.869885" lon="10.6867867"><ele>21.333333333333332</ele><time>2026-04-04T14:45:43.852Z</time></trkpt><trkpt lat="44.86999" lon="10.686605"><ele>22.0</ele><time>2026-04-04T14:45:44.853Z</time></trkpt><trkpt lat="44.8700967" lon="10.68642"><ele>21.0</ele><time>2026-04-04T14:45:45.853Z</time></trkpt><trkpt lat="44.8701983" lon="10.6862267"><ele>20.0</ele><time>2026-04-04T14:45:46.853Z</time></trkpt><trkpt lat="44.8702983" lon="10.686045"><ele>19.0</ele><time>2026-04-04T14:45:47.853Z</time></trkpt><trkpt lat="44.870395" lon="10.685865"><ele>19.0</ele><time>2026-04-04T14:45:48.853Z</time></trkpt><trkpt lat="44.8705067" lon="10.68568"><ele>19.0</ele><time>2026-04-04T14:45:49.853Z</time></trkpt><trkpt lat="44.870615" lon="10.68549"><ele>19.0</ele><time>2026-04-04T14:45:50.852Z</time></trkpt><trkpt lat="44.8707217" lon="10.6852983"><ele>19.0</ele><time>2026-04-04T14:45:51.853Z</time></trkpt><trkpt lat="44.8708267" lon="10.6851033"><ele>19.0</ele><time>2026-04-04T14:45:52.853Z</time></trkpt><trkpt lat="44.870935" lon="10.6849067"><ele>19.0</ele><time>2026-04-04T14:45:53.853Z</time></trkpt><trkpt lat="44.8710433" lon="10.68471"><ele>19.0</ele><time>2026-04-04T14:45:54.853Z</time></trkpt><trkpt lat="44.8711567" lon="10.684515"><ele>19.0</ele><time>2026-04-04T14:45:55.853Z</time></trkpt><trkpt lat="44.8712683" lon="10.68431"><ele>19.0</ele><time>2026-04-04T14:45:56.853Z</time></trkpt><trkpt lat="44.8713817" lon="10.6841117"><ele>19.0</ele><time>2026-04-04T14:45:57.853Z</time></trkpt><trkpt lat="44.8714983" lon="10.6839167"><ele>19.0</ele><time>2026-04-04T14:45:58.853Z</time></trkpt><trkpt lat="44.87161" lon="10.6837183"><ele>19.0</ele><time>2026-04-04T14:45:59.852Z</time></trkpt><trkpt lat="44.8717233" lon="10.68352"><ele>19.333333333333332</ele><time>2026-04-04T14:46:00.853Z</time></trkpt><trkpt lat="44.8718383" lon="10.68332"><ele>19.666666666666668</ele><time>2026-04-04T14:46:01.853Z</time></trkpt><trkpt lat="44.87195" lon="10.6831217"><ele>20.0</ele><time>2026-04-04T14:46:02.852Z</time></trkpt><trkpt lat="44.8720633" lon="10.6829233"><ele>20.333333333333336</ele><time>2026-04-04T14:46:03.853Z</time></trkpt><trkpt lat="44.87218" lon="10.6827233"><ele>20.666666666666668</ele><time>2026-04-04T14:46:04.853Z</time></trkpt><trkpt lat="44.8722967" lon="10.6825267"><ele>21.0</ele><time>2026-04-04T14:46:05.853Z</time></trkpt><trkpt lat="44.87241" lon="10.682325"><ele>21.0</ele><time>2026-04-04T14:46:06.853Z</time></trkpt><trkpt lat="44.8725283" lon="10.6821217"><ele>21.0</ele><time>2026-04-04T14:46:07.853Z</time></trkpt><trkpt lat="44.872645" lon="10.6819167"><ele>21.0</ele><time>2026-04-04T14:46:08.852Z</time></trkpt><trkpt lat="44.8727683" lon="10.6817117"><ele>21.0</ele><time>2026-04-04T14:46:09.853Z</time></trkpt><trkpt lat="44.8728833" lon="10.6814967"><ele>21.0</ele><time>2026-04-04T14:46:10.853Z</time></trkpt><trkpt lat="44.873" lon="10.6812817"><ele>21.0</ele><time>2026-04-04T14:46:11.853Z</time></trkpt><trkpt lat="44.8731183" lon="10.6810733"><ele>21.0</ele><time>2026-04-04T14:46:12.852Z</time></trkpt><trkpt lat="44.8732367" lon="10.6808567"><ele>21.0</ele><time>2026-04-04T14:46:13.853Z</time></trkpt><trkpt lat="44.8733567" lon="10.6806417"><ele>21.0</ele><time>2026-04-04T14:46:14.852Z</time></trkpt><trkpt lat="44.8734783" lon="10.6804317"><ele>20.666666666666668</ele><time>2026-04-04T14:46:15.853Z</time></trkpt><trkpt lat="44.8736017" lon="10.68022"><ele>20.333333333333336</ele><time>2026-04-04T14:46:16.853Z</time></trkpt><trkpt lat="44.8737233" lon="10.6800117"><ele>20.0</ele><time>2026-04-04T14:46:17.852Z</time></trkpt><trkpt lat="44.873845" lon="10.6797983"><ele>20.0</ele><time>2026-04-04T14:46:18.853Z</time></trkpt><trkpt lat="44.87397" lon="10.679585"><ele>20.0</ele><time>2026-04-04T14:46:19.853Z</time></trkpt><trkpt lat="44.874105" lon="10.6793783"><ele>20.0</ele><time>2026-04-04T14:46:20.853Z</time></trkpt><trkpt lat="44.8742433" lon="10.6791767"><ele>19.333333333333336</ele><time>2026-04-04T14:46:21.853Z</time></trkpt><trkpt lat="44.8743817" lon="10.67897"><ele>18.666666666666668</ele><time>2026-04-04T14:46:22.853Z</time></trkpt><trkpt lat="44.874515" lon="10.6787633"><ele>18.0</ele><time>2026-04-04T14:46:23.853Z</time></trkpt><trkpt lat="44.8746533" lon="10.6785633"><ele>18.0</ele><time>2026-04-04T14:46:24.853Z</time></trkpt><trkpt lat="44.8747933" lon="10.6783633"><ele>18.0</ele><time>2026-04-04T14:46:25.853Z</time></trkpt><trkpt lat="44.8749283" lon="10.6781633"><ele>18.0</ele><time>2026-04-04T14:46:26.852Z</time></trkpt><trkpt lat="44.87507" lon="10.6779633"><ele>17.666666666666668</ele><time>2026-04-04T14:46:27.852Z</time></trkpt><trkpt lat="44.8752133" lon="10.6777617"><ele>17.333333333333336</ele><time>2026-04-04T14:46:28.852Z</time></trkpt><trkpt lat="44.87535" lon="10.6775583"><ele>17.0</ele><time>2026-04-04T14:46:29.853Z</time></trkpt><trkpt lat="44.8754867" lon="10.6773567"><ele>17.0</ele><time>2026-04-04T14:46:30.853Z</time></trkpt><trkpt lat="44.8756267" lon="10.6771567"><ele>17.0</ele><time>2026-04-04T14:46:31.853Z</time></trkpt><trkpt lat="44.8757633" lon="10.6769667"><ele>17.0</ele><time>2026-04-04T14:46:32.853Z</time></trkpt><trkpt lat="44.8758967" lon="10.6767783"><ele>17.0</ele><time>2026-04-04T14:46:33.852Z</time></trkpt><trkpt lat="44.8760217" lon="10.6765917"><ele>17.0</ele><time>2026-04-04T14:46:34.853Z</time></trkpt><trkpt lat="44.8761567" lon="10.676405"><ele>17.0</ele><time>2026-04-04T14:46:35.853Z</time></trkpt><trkpt lat="44.8762883" lon="10.6762167"><ele>17.0</ele><time>2026-04-04T14:46:36.853Z</time></trkpt><trkpt lat="44.8764217" lon="10.676025"><ele>17.0</ele><time>2026-04-04T14:46:37.852Z</time></trkpt><trkpt lat="44.8765583" lon="10.6758333"><ele>17.0</ele><time>2026-04-04T14:46:38.853Z</time></trkpt><trkpt lat="44.87669" lon="10.6756417"><ele>17.333333333333336</ele><time>2026-04-04T14:46:39.853Z</time></trkpt><trkpt lat="44.8768283" lon="10.675445"><ele>17.666666666666668</ele><time>2026-04-04T14:46:40.852Z</time></trkpt><trkpt lat="44.8769633" lon="10.6752517"><ele>18.0</ele><time>2026-04-04T14:46:41.853Z</time></trkpt><trkpt lat="44.877095" lon="10.6750617"><ele>18.0</ele><time>2026-04-04T14:46:42.853Z</time></trkpt><trkpt lat="44.87723" lon="10.674865"><ele>18.0</ele><time>2026-04-04T14:46:43.852Z</time></trkpt><trkpt lat="44.8773633" lon="10.6746733"><ele>18.0</ele><time>2026-04-04T14:46:44.853Z</time></trkpt><trkpt lat="44.87749" lon="10.67449"><ele>17.666666666666668</ele><time>2026-04-04T14:46:45.852Z</time></trkpt><trkpt lat="44.8776117" lon="10.674315"><ele>17.333333333333336</ele><time>2026-04-04T14:46:46.852Z</time></trkpt><trkpt lat="44.877725" lon="10.6741567"><ele>17.0</ele><time>2026-04-04T14:46:47.852Z</time></trkpt><trkpt lat="44.8778367" lon="10.6739917"><ele>17.0</ele><time>2026-04-04T14:46:48.853Z</time></trkpt><trkpt lat="44.8779533" lon="10.6738233"><ele>17.0</ele><time>2026-04-04T14:46:49.853Z</time></trkpt><trkpt lat="44.8780667" lon="10.67365"><ele>17.0</ele><time>2026-04-04T14:46:50.853Z</time></trkpt><trkpt lat="44.87819" lon="10.67347"><ele>17.333333333333336</ele><time>2026-04-04T14:46:51.853Z</time></trkpt><trkpt lat="44.87832" lon="10.67329"><ele>17.666666666666668</ele><time>2026-04-04T14:46:52.853Z</time></trkpt><trkpt lat="44.87845" lon="10.6731017"><ele>18.0</ele><time>2026-04-04T14:46:53.853Z</time></trkpt><trkpt lat="44.878575" lon="10.6729233"><ele>18.333333333333332</ele><time>2026-04-04T14:46:54.853Z</time></trkpt><trkpt lat="44.8786983" lon="10.6727467"><ele>18.666666666666664</ele><time>2026-04-04T14:46:55.853Z</time></trkpt><trkpt lat="44.8788167" lon="10.6725667"><ele>19.0</ele><time>2026-04-04T14:46:56.852Z</time></trkpt><trkpt lat="44.8789317" lon="10.67239"><ele>19.0</ele><time>2026-04-04T14:46:57.853Z</time></trkpt><trkpt lat="44.87905" lon="10.6722217"><ele>19.0</ele><time>2026-04-04T14:46:58.853Z</time></trkpt><trkpt lat="44.8791633" lon="10.67205"><ele>19.0</ele><time>2026-04-04T14:46:59.853Z</time></trkpt><trkpt lat="44.87928" lon="10.6718817"><ele>18.666666666666664</ele><time>2026-04-04T14:47:00.853Z</time></trkpt><trkpt lat="44.8794017" lon="10.6717133"><ele>18.333333333333332</ele><time>2026-04-04T14:47:01.853Z</time></trkpt><trkpt lat="44.8795233" lon="10.6715417"><ele>18.0</ele><time>2026-04-04T14:47:02.853Z</time></trkpt><trkpt lat="44.879645" lon="10.6713633"><ele>18.0</ele><time>2026-04-04T14:47:03.853Z</time></trkpt><trkpt lat="44.879775" lon="10.6711817"><ele>18.0</ele><time>2026-04-04T14:47:04.853Z</time></trkpt><trkpt lat="44.8799067" lon="10.6710017"><ele>18.0</ele><time>2026-04-04T14:47:05.852Z</time></trkpt><trkpt lat="44.8800383" lon="10.670815"><ele>17.666666666666668</ele><time>2026-04-04T14:47:06.853Z</time></trkpt><trkpt lat="44.8801667" lon="10.670625"><ele>17.333333333333336</ele><time>2026-04-04T14:47:07.853Z</time></trkpt><trkpt lat="44.8803" lon="10.67044"><ele>17.0</ele><time>2026-04-04T14:47:08.853Z</time></trkpt><trkpt lat="44.8804383" lon="10.670245"><ele>17.0</ele><time>2026-04-04T14:47:09.853Z</time></trkpt><trkpt lat="44.8805683" lon="10.6700483"><ele>17.0</ele><time>2026-04-04T14:47:10.853Z</time></trkpt><trkpt lat="44.8807017" lon="10.669855"><ele>17.0</ele><time>2026-04-04T14:47:11.853Z</time></trkpt><trkpt lat="44.8808367" lon="10.669655"><ele>17.0</ele><time>2026-04-04T14:47:12.853Z</time></trkpt><trkpt lat="44.8809733" lon="10.6694567"><ele>17.0</ele><time>2026-04-04T14:47:13.853Z</time></trkpt><trkpt lat="44.8811117" lon="10.6692583"><ele>17.0</ele><time>2026-04-04T14:47:14.853Z</time></trkpt><trkpt lat="44.8812483" lon="10.6690633"><ele>17.333333333333336</ele><time>2026-04-04T14:47:15.853Z</time></trkpt><trkpt lat="44.881385" lon="10.6688717"><ele>17.666666666666668</ele><time>2026-04-04T14:47:16.852Z</time></trkpt><trkpt lat="44.8815183" lon="10.668675"><ele>18.0</ele><time>2026-04-04T14:47:17.853Z</time></trkpt><trkpt lat="44.8816533" lon="10.6684667"><ele>18.333333333333332</ele><time>2026-04-04T14:47:18.853Z</time></trkpt><trkpt lat="44.8817917" lon="10.6682533"><ele>18.666666666666664</ele><time>2026-04-04T14:47:19.853Z</time></trkpt><trkpt lat="44.8819333" lon="10.668035"><ele>19.0</ele><time>2026-04-04T14:47:20.853Z</time></trkpt><trkpt lat="44.882085" lon="10.6678117"><ele>18.666666666666664</ele><time>2026-04-04T14:47:21.853Z</time></trkpt><trkpt lat="44.8822433" lon="10.6675917"><ele>18.333333333333332</ele><time>2026-04-04T14:47:22.852Z</time></trkpt><trkpt lat="44.882405" lon="10.6673683"><ele>18.0</ele><time>2026-04-04T14:47:23.853Z</time></trkpt><trkpt lat="44.88257" lon="10.6671417"><ele>17.5</ele><time>2026-04-04T14:47:24.853Z</time></trkpt><trkpt lat="44.8827383" lon="10.6669117"><ele>17.0</ele><time>2026-04-04T14:47:25.852Z</time></trkpt><trkpt lat="44.882905" lon="10.6666783"><ele>17.0</ele><time>2026-04-04T14:47:26.853Z</time></trkpt><trkpt lat="44.88305" lon="10.66645"><ele>17.0</ele><time>2026-04-04T14:47:27.853Z</time></trkpt><trkpt lat="44.8831967" lon="10.666235"><ele>17.0</ele><time>2026-04-04T14:47:28.853Z</time></trkpt><trkpt lat="44.883335" lon="10.6660317"><ele>17.0</ele><time>2026-04-04T14:47:29.853Z</time></trkpt><trkpt lat="44.8834683" lon="10.6658333"><ele>17.0</ele><time>2026-04-04T14:47:30.852Z</time></trkpt><trkpt lat="44.883605" lon="10.6656417"><ele>17.0</ele><time>2026-04-04T14:47:31.853Z</time></trkpt><trkpt lat="44.8837383" lon="10.6654567"><ele>17.333333333333336</ele><time>2026-04-04T14:47:32.852Z</time></trkpt><trkpt lat="44.883865" lon="10.6652733"><ele>17.666666666666668</ele><time>2026-04-04T14:47:33.853Z</time></trkpt><trkpt lat="44.8839833" lon="10.6650983"><ele>18.0</ele><time>2026-04-04T14:47:34.853Z</time></trkpt><trkpt lat="44.8841033" lon="10.664935"><ele>18.0</ele><time>2026-04-04T14:47:35.853Z</time></trkpt><trkpt lat="44.884215" lon="10.6647817"><ele>18.0</ele><time>2026-04-04T14:47:36.852Z</time></trkpt><trkpt lat="44.8843217" lon="10.6646267"><ele>18.0</ele><time>2026-04-04T14:47:37.853Z</time></trkpt><trkpt lat="44.88443" lon="10.66449"><ele>18.25</ele><time>2026-04-04T14:47:38.853Z</time></trkpt><trkpt lat="44.8845317" lon="10.6643617"><ele>18.5</ele><time>2026-04-04T14:47:39.853Z</time></trkpt><trkpt lat="44.8846333" lon="10.6642367"><ele>18.75</ele><time>2026-04-04T14:47:40.852Z</time></trkpt><trkpt lat="44.8847383" lon="10.6641233"><ele>19.0</ele><time>2026-04-04T14:47:41.853Z</time></trkpt><trkpt lat="44.8848333" lon="10.6640267"><ele>19.0</ele><time>2026-04-04T14:47:42.853Z</time></trkpt><trkpt lat="44.8849267" lon="10.6639417"><ele>19.0</ele><time>2026-04-04T14:47:43.853Z</time></trkpt><trkpt lat="44.88501" lon="10.6638667"><ele>19.0</ele><time>2026-04-04T14:47:44.852Z</time></trkpt><trkpt lat="44.88509" lon="10.663805"><ele>19.0</ele><time>2026-04-04T14:47:45.853Z</time></trkpt><trkpt lat="44.885155" lon="10.663765"><ele>19.0</ele><time>2026-04-04T14:47:46.853Z</time></trkpt><trkpt lat="44.88522" lon="10.6637517"><ele>19.0</ele><time>2026-04-04T14:47:47.852Z</time></trkpt><trkpt lat="44.8853" lon="10.6637417"><ele>19.0</ele><time>2026-04-04T14:47:48.853Z</time></trkpt><trkpt lat="44.885375" lon="10.6637083"><ele>19.0</ele><time>2026-04-04T14:47:49.852Z</time></trkpt><trkpt lat="44.8854317" lon="10.663645"><ele>19.0</ele><time>2026-04-04T14:47:50.853Z</time></trkpt><trkpt lat="44.8854767" lon="10.6635583"><ele>19.0</ele><time>2026-04-04T14:47:51.853Z</time></trkpt><trkpt lat="44.8855333" lon="10.6634417"><ele>19.0</ele><time>2026-04-04T14:47:52.853Z</time></trkpt><trkpt lat="44.8856167" lon="10.6633383"><ele>19.0</ele><time>2026-04-04T14:47:53.852Z</time></trkpt><trkpt lat="44.8857267" lon="10.66325"><ele>19.0</ele><time>2026-04-04T14:47:54.852Z</time></trkpt><trkpt lat="44.885845" lon="10.6631733"><ele>19.0</ele><time>2026-04-04T14:47:55.853Z</time></trkpt><trkpt lat="44.885975" lon="10.6630933"><ele>19.0</ele><time>2026-04-04T14:47:56.853Z</time></trkpt><trkpt lat="44.8861033" lon="10.6630167"><ele>19.0</ele><time>2026-04-04T14:47:57.853Z</time></trkpt><trkpt lat="44.8862367" lon="10.6629433"><ele>19.0</ele><time>2026-04-04T14:47:58.853Z</time></trkpt><trkpt lat="44.886355" lon="10.66287"><ele>19.0</ele><time>2026-04-04T14:47:59.853Z</time></trkpt><trkpt lat="44.88647" lon="10.6628083"><ele>19.0</ele><time>2026-04-04T14:48:00.853Z</time></trkpt><trkpt lat="44.8865883" lon="10.6627483"><ele>19.0</ele><time>2026-04-04T14:48:01.853Z</time></trkpt><trkpt lat="44.886705" lon="10.6627"><ele>19.0</ele><time>2026-04-04T14:48:02.852Z</time></trkpt><trkpt lat="44.88682" lon="10.6626467"><ele>19.0</ele><time>2026-04-04T14:48:03.852Z</time></trkpt><trkpt lat="44.8869333" lon="10.6625967"><ele>19.0</ele><time>2026-04-04T14:48:04.853Z</time></trkpt><trkpt lat="44.8870517" lon="10.6625467"><ele>19.0</ele><time>2026-04-04T14:48:05.853Z</time></trkpt><trkpt lat="44.8871733" lon="10.6624983"><ele>19.0</ele><time>2026-04-04T14:48:06.852Z</time></trkpt><trkpt lat="44.8873" lon="10.66244"><ele>19.0</ele><time>2026-04-04T14:48:07.853Z</time></trkpt><trkpt lat="44.887435" lon="10.6623833"><ele>19.0</ele><time>2026-04-04T14:48:08.853Z</time></trkpt><trkpt lat="44.8875767" lon="10.6623233"><ele>19.0</ele><time>2026-04-04T14:48:09.853Z</time></trkpt><trkpt lat="44.88772" lon="10.6622517"><ele>19.333333333333332</ele><time>2026-04-04T14:48:10.853Z</time></trkpt><trkpt lat="44.8878717" lon="10.66218"><ele>19.666666666666668</ele><time>2026-04-04T14:48:11.852Z</time></trkpt><trkpt lat="44.8880217" lon="10.662105"><ele>20.0</ele><time>2026-04-04T14:48:12.853Z</time></trkpt><trkpt lat="44.8881817" lon="10.6620267"><ele>20.0</ele><time>2026-04-04T14:48:13.852Z</time></trkpt><trkpt lat="44.888335" lon="10.6619417"><ele>20.0</ele><time>2026-04-04T14:48:14.852Z</time></trkpt><trkpt lat="44.8884867" lon="10.6618517"><ele>20.0</ele><time>2026-04-04T14:48:15.852Z</time></trkpt><trkpt lat="44.88864" lon="10.66176"><ele>19.666666666666668</ele><time>2026-04-04T14:48:16.853Z</time></trkpt><trkpt lat="44.888795" lon="10.6616633"><ele>19.333333333333332</ele><time>2026-04-04T14:48:17.853Z</time></trkpt><trkpt lat="44.888945" lon="10.6615717"><ele>19.0</ele><time>2026-04-04T14:48:18.852Z</time></trkpt><trkpt lat="44.889095" lon="10.66149"><ele>19.0</ele><time>2026-04-04T14:48:19.853Z</time></trkpt><trkpt lat="44.8892367" lon="10.6614067"><ele>19.0</ele><time>2026-04-04T14:48:20.853Z</time></trkpt><trkpt lat="44.8893767" lon="10.66132"><ele>19.0</ele><time>2026-04-04T14:48:21.853Z</time></trkpt><trkpt lat="44.8895217" lon="10.661225"><ele>19.0</ele><time>2026-04-04T14:48:22.853Z</time></trkpt><trkpt lat="44.8896633" lon="10.6611383"><ele>19.0</ele><time>2026-04-04T14:48:23.853Z</time></trkpt><trkpt lat="44.8898017" lon="10.6610517"><ele>19.0</ele><time>2026-04-04T14:48:24.853Z</time></trkpt><trkpt lat="44.8899367" lon="10.66097"><ele>19.0</ele><time>2026-04-04T14:48:25.853Z</time></trkpt><trkpt lat="44.8900717" lon="10.6608833"><ele>19.0</ele><time>2026-04-04T14:48:26.853Z</time></trkpt><trkpt lat="44.8902117" lon="10.6608017"><ele>19.0</ele><time>2026-04-04T14:48:27.853Z</time></trkpt><trkpt lat="44.8903583" lon="10.660715"><ele>19.0</ele><time>2026-04-04T14:48:28.852Z</time></trkpt><trkpt lat="44.890495" lon="10.6606333"><ele>19.0</ele><time>2026-04-04T14:48:29.853Z</time></trkpt><trkpt lat="44.8906283" lon="10.6605517"><ele>19.0</ele><time>2026-04-04T14:48:30.853Z</time></trkpt><trkpt lat="44.8907433" lon="10.6604633"><ele>19.0</ele><time>2026-04-04T14:48:31.853Z</time></trkpt><trkpt lat="44.8908533" lon="10.6603883"><ele>19.2</ele><time>2026-04-04T14:48:32.853Z</time></trkpt><trkpt lat="44.8909567" lon="10.6603233"><ele>19.4</ele><time>2026-04-04T14:48:33.852Z</time></trkpt><trkpt lat="44.8910633" lon="10.6602617"><ele>19.6</ele><time>2026-04-04T14:48:34.853Z</time></trkpt><trkpt lat="44.8911667" lon="10.660205"><ele>19.8</ele><time>2026-04-04T14:48:35.853Z</time></trkpt><trkpt lat="44.89127" lon="10.6601583"><ele>20.0</ele><time>2026-04-04T14:48:36.853Z</time></trkpt><trkpt lat="44.8913717" lon="10.660125"><ele>20.0</ele><time>2026-04-04T14:48:37.853Z</time></trkpt><trkpt lat="44.8914617" lon="10.66011"><ele>20.0</ele><time>2026-04-04T14:48:38.852Z</time></trkpt><trkpt lat="44.8915533" lon="10.66012"><ele>20.0</ele><time>2026-04-04T14:48:39.853Z</time></trkpt><trkpt lat="44.8916433" lon="10.660155"><ele>20.0</ele><time>2026-04-04T14:48:40.852Z</time></trkpt><trkpt lat="44.8917267" lon="10.6601783"><ele>20.0</ele><time>2026-04-04T14:48:41.853Z</time></trkpt><trkpt lat="44.891805" lon="10.6601567"><ele>20.0</ele><time>2026-04-04T14:48:42.853Z</time></trkpt><trkpt lat="44.891875" lon="10.6600867"><ele>20.0</ele><time>2026-04-04T14:48:43.853Z</time></trkpt><trkpt lat="44.89195" lon="10.659995"><ele>20.0</ele><time>2026-04-04T14:48:44.852Z</time></trkpt><trkpt lat="44.8920483" lon="10.6598983"><ele>20.0</ele><time>2026-04-04T14:48:45.853Z</time></trkpt><trkpt lat="44.8921483" lon="10.659815"><ele>20.0</ele><time>2026-04-04T14:48:46.853Z</time></trkpt><trkpt lat="44.89225" lon="10.659765"><ele>20.0</ele><time>2026-04-04T14:48:47.853Z</time></trkpt><trkpt lat="44.8923417" lon="10.65973"><ele>20.0</ele><time>2026-04-04T14:48:48.853Z</time></trkpt><trkpt lat="44.8924417" lon="10.6597233"><ele>20.0</ele><time>2026-04-04T14:48:49.853Z</time></trkpt><trkpt lat="44.8925567" lon="10.659725"><ele>20.0</ele><time>2026-04-04T14:48:50.852Z</time></trkpt><trkpt lat="44.892675" lon="10.659725"><ele>20.0</ele><time>2026-04-04T14:48:51.852Z</time></trkpt><trkpt lat="44.8927867" lon="10.659725"><ele>20.0</ele><time>2026-04-04T14:48:52.853Z</time></trkpt><trkpt lat="44.8929" lon="10.65972"><ele>20.2</ele><time>2026-04-04T14:48:53.853Z</time></trkpt><trkpt lat="44.8930083" lon="10.6597217"><ele>20.4</ele><time>2026-04-04T14:48:54.853Z</time></trkpt><trkpt lat="44.8931133" lon="10.6597233"><ele>20.6</ele><time>2026-04-04T14:48:55.853Z</time></trkpt><trkpt lat="44.8932217" lon="10.6597217"><ele>20.8</ele><time>2026-04-04T14:48:56.853Z</time></trkpt><trkpt lat="44.8933417" lon="10.659725"><ele>21.0</ele><time>2026-04-04T14:48:57.853Z</time></trkpt><trkpt lat="44.8934683" lon="10.6597333"><ele>21.0</ele><time>2026-04-04T14:48:58.853Z</time></trkpt><trkpt lat="44.8935933" lon="10.6597367"><ele>21.0</ele><time>2026-04-04T14:48:59.853Z</time></trkpt><trkpt lat="44.89372" lon="10.659745"><ele>21.0</ele><time>2026-04-04T14:49:00.852Z</time></trkpt><trkpt lat="44.8938483" lon="10.6597483"><ele>21.0</ele><time>2026-04-04T14:49:01.852Z</time></trkpt><trkpt lat="44.8939633" lon="10.6597533"><ele>21.0</ele><time>2026-04-04T14:49:02.853Z</time></trkpt><trkpt lat="44.894075" lon="10.6597583"><ele>21.0</ele><time>2026-04-04T14:49:03.853Z</time></trkpt><trkpt lat="44.8941833" lon="10.6597667"><ele>21.0</ele><time>2026-04-04T14:49:04.853Z</time></trkpt><trkpt lat="44.89428" lon="10.6597733"><ele>21.0</ele><time>2026-04-04T14:49:05.852Z</time></trkpt><trkpt lat="44.89437" lon="10.659775"><ele>21.0</ele><time>2026-04-04T14:49:06.853Z</time></trkpt><trkpt lat="44.894455" lon="10.6597767"><ele>20.666666666666668</ele><time>2026-04-04T14:49:07.853Z</time></trkpt><trkpt lat="44.89453" lon="10.6597867"><ele>20.333333333333332</ele><time>2026-04-04T14:49:08.853Z</time></trkpt><trkpt lat="44.8946333" lon="10.6598033"><ele>20.0</ele><time>2026-04-04T14:49:10.853Z</time></trkpt><trkpt lat="44.8947" lon="10.6598233"><ele>19.666666666666664</ele><time>2026-04-04T14:49:15.853Z</time></trkpt><trkpt lat="44.8947983" lon="10.6598367"><ele>19.333333333333332</ele><time>2026-04-04T14:49:17.852Z</time></trkpt><trkpt lat="44.8948883" lon="10.6598183"><ele>19.0</ele><time>2026-04-04T14:49:18.853Z</time></trkpt><trkpt lat="44.8949967" lon="10.659785"><ele>19.25</ele><time>2026-04-04T14:49:19.852Z</time></trkpt><trkpt lat="44.89512" lon="10.6597783"><ele>19.5</ele><time>2026-04-04T14:49:20.853Z</time></trkpt><trkpt lat="44.8952667" lon="10.6597883"><ele>19.75</ele><time>2026-04-04T14:49:21.853Z</time></trkpt><trkpt lat="44.89542" lon="10.659795"><ele>20.0</ele><time>2026-04-04T14:49:22.853Z</time></trkpt><trkpt lat="44.8955683" lon="10.659805"><ele>20.0</ele><time>2026-04-04T14:49:23.852Z</time></trkpt><trkpt lat="44.895715" lon="10.6598083"><ele>20.0</ele><time>2026-04-04T14:49:24.853Z</time></trkpt><trkpt lat="44.8958667" lon="10.6598117"><ele>20.0</ele><time>2026-04-04T14:49:25.853Z</time></trkpt><trkpt lat="44.8960133" lon="10.6598133"><ele>20.0</ele><time>2026-04-04T14:49:26.853Z</time></trkpt><trkpt lat="44.8961583" lon="10.6598183"><ele>19.666666666666668</ele><time>2026-04-04T14:49:27.853Z</time></trkpt><trkpt lat="44.8963117" lon="10.6598133"><ele>19.333333333333332</ele><time>2026-04-04T14:49:28.853Z</time></trkpt><trkpt lat="44.8964633" lon="10.6598183"><ele>19.0</ele><time>2026-04-04T14:49:29.853Z</time></trkpt><trkpt lat="44.8966133" lon="10.659825"><ele>18.666666666666664</ele><time>2026-04-04T14:49:30.853Z</time></trkpt><trkpt lat="44.8967717" lon="10.6598267"><ele>18.333333333333332</ele><time>2026-04-04T14:49:31.853Z</time></trkpt><trkpt lat="44.8969333" lon="10.659825"><ele>18.0</ele><time>2026-04-04T14:49:32.853Z</time></trkpt><trkpt lat="44.8971" lon="10.659825"><ele>18.0</ele><time>2026-04-04T14:49:33.853Z</time></trkpt><trkpt lat="44.8972783" lon="10.65982"><ele>18.0</ele><time>2026-04-04T14:49:34.853Z</time></trkpt><trkpt lat="44.8974583" lon="10.6598317"><ele>18.0</ele><time>2026-04-04T14:49:35.853Z</time></trkpt><trkpt lat="44.897635" lon="10.6598367"><ele>17.666666666666668</ele><time>2026-04-04T14:49:36.853Z</time></trkpt><trkpt lat="44.8978167" lon="10.6598467"><ele>17.333333333333336</ele><time>2026-04-04T14:49:37.853Z</time></trkpt><trkpt lat="44.8980067" lon="10.659855"><ele>17.0</ele><time>2026-04-04T14:49:38.853Z</time></trkpt><trkpt lat="44.8981933" lon="10.6598633"><ele>17.0</ele><time>2026-04-04T14:49:39.853Z</time></trkpt><trkpt lat="44.89837" lon="10.6598633"><ele>17.0</ele><time>2026-04-04T14:49:40.852Z</time></trkpt><trkpt lat="44.8985483" lon="10.6598683"><ele>17.0</ele><time>2026-04-04T14:49:41.852Z</time></trkpt><trkpt lat="44.89873" lon="10.6598733"><ele>17.333333333333336</ele><time>2026-04-04T14:49:42.852Z</time></trkpt><trkpt lat="44.8989133" lon="10.6598817"><ele>17.666666666666668</ele><time>2026-04-04T14:49:43.852Z</time></trkpt><trkpt lat="44.8991067" lon="10.6598917"><ele>18.0</ele><time>2026-04-04T14:49:44.853Z</time></trkpt><trkpt lat="44.8992917" lon="10.6598867"><ele>18.0</ele><time>2026-04-04T14:49:45.853Z</time></trkpt><trkpt lat="44.899485" lon="10.65988"><ele>18.0</ele><time>2026-04-04T14:49:46.853Z</time></trkpt><trkpt lat="44.89967" lon="10.6598617"><ele>18.0</ele><time>2026-04-04T14:49:47.852Z</time></trkpt><trkpt lat="44.8998567" lon="10.65985"><ele>18.0</ele><time>2026-04-04T14:49:48.852Z</time></trkpt><trkpt lat="44.9000483" lon="10.6598333"><ele>18.0</ele><time>2026-04-04T14:49:49.852Z</time></trkpt><trkpt lat="44.900225" lon="10.6598133"><ele>18.0</ele><time>2026-04-04T14:49:50.853Z</time></trkpt><trkpt lat="44.9003967" lon="10.6597917"><ele>18.333333333333332</ele><time>2026-04-04T14:49:51.853Z</time></trkpt><trkpt lat="44.90056" lon="10.6597733"><ele>18.666666666666664</ele><time>2026-04-04T14:49:52.853Z</time></trkpt><trkpt lat="44.9007217" lon="10.6597483"><ele>19.0</ele><time>2026-04-04T14:49:53.852Z</time></trkpt><trkpt lat="44.900885" lon="10.659725"><ele>19.666666666666664</ele><time>2026-04-04T14:49:54.853Z</time></trkpt><trkpt lat="44.9010467" lon="10.6597"><ele>20.333333333333332</ele><time>2026-04-04T14:49:55.852Z</time></trkpt><trkpt lat="44.901215" lon="10.6596717"><ele>21.0</ele><time>2026-04-04T14:49:56.853Z</time></trkpt><trkpt lat="44.9013833" lon="10.659635"><ele>21.0</ele><time>2026-04-04T14:49:57.852Z</time></trkpt><trkpt lat="44.9015517" lon="10.6595983"><ele>21.0</ele><time>2026-04-04T14:49:58.853Z</time></trkpt><trkpt lat="44.9017217" lon="10.6595583"><ele>21.0</ele><time>2026-04-04T14:49:59.852Z</time></trkpt><trkpt lat="44.9018883" lon="10.6595183"><ele>21.0</ele><time>2026-04-04T14:50:00.853Z</time></trkpt><trkpt lat="44.90206" lon="10.65948"><ele>21.0</ele><time>2026-04-04T14:50:01.852Z</time></trkpt><trkpt lat="44.9022333" lon="10.6594367"><ele>21.0</ele><time>2026-04-04T14:50:02.852Z</time></trkpt><trkpt lat="44.9024083" lon="10.6593983"><ele>20.333333333333332</ele><time>2026-04-04T14:50:03.853Z</time></trkpt><trkpt lat="44.9025833" lon="10.6593533"><ele>19.666666666666664</ele><time>2026-04-04T14:50:04.853Z</time></trkpt><trkpt lat="44.90276" lon="10.6593117"><ele>19.0</ele><time>2026-04-04T14:50:05.853Z</time></trkpt><trkpt lat="44.9029417" lon="10.6592617"><ele>19.0</ele><time>2026-04-04T14:50:06.853Z</time></trkpt><trkpt lat="44.9031217" lon="10.659215"><ele>19.0</ele><time>2026-04-04T14:50:07.853Z</time></trkpt><trkpt lat="44.9033067" lon="10.65917"><ele>19.0</ele><time>2026-04-04T14:50:08.852Z</time></trkpt><trkpt lat="44.9034917" lon="10.6591317"><ele>20.0</ele><time>2026-04-04T14:50:09.852Z</time></trkpt><trkpt lat="44.903675" lon="10.6590867"><ele>21.0</ele><time>2026-04-04T14:50:10.853Z</time></trkpt><trkpt lat="44.9038617" lon="10.6590417"><ele>22.0</ele><time>2026-04-04T14:50:11.853Z</time></trkpt><trkpt lat="44.9040417" lon="10.6589967"><ele>22.0</ele><time>2026-04-04T14:50:12.853Z</time></trkpt><trkpt lat="44.9042217" lon="10.65895"><ele>22.0</ele><time>2026-04-04T14:50:13.853Z</time></trkpt><trkpt lat="44.9043783" lon="10.6589167"><ele>22.0</ele><time>2026-04-04T14:50:14.853Z</time></trkpt><trkpt lat="44.9045233" lon="10.6588817"><ele>21.333333333333332</ele><time>2026-04-04T14:50:15.852Z</time></trkpt><trkpt lat="44.9046733" lon="10.6588467"><ele>20.666666666666668</ele><time>2026-04-04T14:50:16.853Z</time></trkpt><trkpt lat="44.90482" lon="10.6588117"><ele>20.0</ele><time>2026-04-04T14:50:17.853Z</time></trkpt><trkpt lat="44.90497" lon="10.658785"><ele>19.666666666666668</ele><time>2026-04-04T14:50:18.853Z</time></trkpt><trkpt lat="44.9051167" lon="10.6587483"><ele>19.333333333333332</ele><time>2026-04-04T14:50:19.851Z</time></trkpt><trkpt lat="44.9052717" lon="10.6587067"><ele>19.0</ele><time>2026-04-04T14:50:20.852Z</time></trkpt><trkpt lat="44.90542" lon="10.6586733"><ele>19.0</ele><time>2026-04-04T14:50:21.852Z</time></trkpt><trkpt lat="44.9055717" lon="10.6586333"><ele>19.0</ele><time>2026-04-04T14:50:22.852Z</time></trkpt><trkpt lat="44.90573" lon="10.658595"><ele>19.0</ele><time>2026-04-04T14:50:23.852Z</time></trkpt><trkpt lat="44.9058933" lon="10.658555"><ele>18.666666666666664</ele><time>2026-04-04T14:50:24.852Z</time></trkpt><trkpt lat="44.9060483" lon="10.65852"><ele>18.333333333333332</ele><time>2026-04-04T14:50:25.852Z</time></trkpt><trkpt lat="44.9061983" lon="10.6584917"><ele>18.0</ele><time>2026-04-04T14:50:26.852Z</time></trkpt><trkpt lat="44.9063383" lon="10.6584567"><ele>18.0</ele><time>2026-04-04T14:50:27.851Z</time></trkpt><trkpt lat="44.9064767" lon="10.658425"><ele>18.0</ele><time>2026-04-04T14:50:28.851Z</time></trkpt><trkpt lat="44.9066133" lon="10.6584"><ele>18.0</ele><time>2026-04-04T14:50:29.852Z</time></trkpt><trkpt lat="44.9067433" lon="10.6583783"><ele>18.0</ele><time>2026-04-04T14:50:30.852Z</time></trkpt><trkpt lat="44.9068783" lon="10.65835"><ele>18.5</ele><time>2026-04-04T14:50:31.852Z</time></trkpt><trkpt lat="44.9070133" lon="10.6583133"><ele>19.0</ele><time>2026-04-04T14:50:32.852Z</time></trkpt><trkpt lat="44.9071433" lon="10.6582767"><ele>19.5</ele><time>2026-04-04T14:50:33.851Z</time></trkpt><trkpt lat="44.907275" lon="10.65824"><ele>20.0</ele><time>2026-04-04T14:50:34.852Z</time></trkpt><trkpt lat="44.90742" lon="10.65822"><ele>20.0</ele><time>2026-04-04T14:50:35.851Z</time></trkpt><trkpt lat="44.9075383" lon="10.65818"><ele>20.0</ele><time>2026-04-04T14:50:36.851Z</time></trkpt><trkpt lat="44.9076633" lon="10.6581517"><ele>20.0</ele><time>2026-04-04T14:50:37.852Z</time></trkpt><trkpt lat="44.90778" lon="10.658125"><ele>20.0</ele><time>2026-04-04T14:50:38.851Z</time></trkpt><trkpt lat="44.9078933" lon="10.6580917"><ele>20.0</ele><time>2026-04-04T14:50:39.852Z</time></trkpt><trkpt lat="44.908" lon="10.6580633"><ele>20.0</ele><time>2026-04-04T14:50:40.852Z</time></trkpt><trkpt lat="44.9081" lon="10.65804"><ele>20.0</ele><time>2026-04-04T14:50:41.852Z</time></trkpt><trkpt lat="44.9082" lon="10.6580117"><ele>20.0</ele><time>2026-04-04T14:50:42.852Z</time></trkpt><trkpt lat="44.9083" lon="10.6579917"><ele>20.0</ele><time>2026-04-04T14:50:43.852Z</time></trkpt><trkpt lat="44.9084083" lon="10.6579667"><ele>20.5</ele><time>2026-04-04T14:50:44.852Z</time></trkpt><trkpt lat="44.90852" lon="10.6579383"><ele>21.0</ele><time>2026-04-04T14:50:45.852Z</time></trkpt><trkpt lat="44.9086383" lon="10.6579083"><ele>21.5</ele><time>2026-04-04T14:50:46.852Z</time></trkpt><trkpt lat="44.9087633" lon="10.6578883"><ele>22.0</ele><time>2026-04-04T14:50:47.851Z</time></trkpt><trkpt lat="44.9088917" lon="10.65785"><ele>22.0</ele><time>2026-04-04T14:50:48.852Z</time></trkpt><trkpt lat="44.9090267" lon="10.6578233"><ele>22.0</ele><time>2026-04-04T14:50:49.852Z</time></trkpt><trkpt lat="44.9091667" lon="10.6577917"><ele>22.0</ele><time>2026-04-04T14:50:50.852Z</time></trkpt><trkpt lat="44.9093067" lon="10.6577583"><ele>22.0</ele><time>2026-04-04T14:50:51.852Z</time></trkpt><trkpt lat="44.9094383" lon="10.657725"><ele>22.0</ele><time>2026-04-04T14:50:52.852Z</time></trkpt><trkpt lat="44.9095683" lon="10.6576867"><ele>22.0</ele><time>2026-04-04T14:50:53.852Z</time></trkpt><trkpt lat="44.909695" lon="10.6576483"><ele>22.0</ele><time>2026-04-04T14:50:54.851Z</time></trkpt><trkpt lat="44.9098133" lon="10.657615"><ele>22.0</ele><time>2026-04-04T14:50:55.851Z</time></trkpt><trkpt lat="44.9099317" lon="10.6575917"><ele>22.0</ele><time>2026-04-04T14:50:56.852Z</time></trkpt><trkpt lat="44.9100517" lon="10.6575683"><ele>22.0</ele><time>2026-04-04T14:50:57.852Z</time></trkpt><trkpt lat="44.910175" lon="10.6575433"><ele>22.0</ele><time>2026-04-04T14:50:58.852Z</time></trkpt><trkpt lat="44.9103017" lon="10.6575133"><ele>22.0</ele><time>2026-04-04T14:50:59.852Z</time></trkpt><trkpt lat="44.9104333" lon="10.6574817"><ele>22.25</ele><time>2026-04-04T14:51:00.852Z</time></trkpt><trkpt lat="44.9105617" lon="10.6574683"><ele>22.5</ele><time>2026-04-04T14:51:01.852Z</time></trkpt><trkpt lat="44.9106933" lon="10.6574367"><ele>22.75</ele><time>2026-04-04T14:51:02.852Z</time></trkpt><trkpt lat="44.9108267" lon="10.6574083"><ele>23.0</ele><time>2026-04-04T14:51:03.852Z</time></trkpt><trkpt lat="44.9109633" lon="10.657395"><ele>23.0</ele><time>2026-04-04T14:51:04.851Z</time></trkpt><trkpt lat="44.9110917" lon="10.6573683"><ele>23.0</ele><time>2026-04-04T14:51:05.852Z</time></trkpt><trkpt lat="44.911225" lon="10.657355"><ele>23.0</ele><time>2026-04-04T14:51:06.852Z</time></trkpt><trkpt lat="44.91134" lon="10.6573433"><ele>23.0</ele><time>2026-04-04T14:51:07.852Z</time></trkpt><trkpt lat="44.91144" lon="10.6573317"><ele>23.0</ele><time>2026-04-04T14:51:08.852Z</time></trkpt><trkpt lat="44.9115217" lon="10.6573267"><ele>23.0</ele><time>2026-04-04T14:51:09.851Z</time></trkpt><trkpt lat="44.91159" lon="10.6573233"><ele>23.0</ele><time>2026-04-04T14:51:10.851Z</time></trkpt><trkpt lat="44.9116917" lon="10.657305"><ele>23.0</ele><time>2026-04-04T14:51:12.852Z</time></trkpt><trkpt lat="44.911755" lon="10.6572967"><ele>23.0</ele><time>2026-04-04T14:51:15.851Z</time></trkpt><trkpt lat="44.9118383" lon="10.65729"><ele>23.0</ele><time>2026-04-04T14:51:21.852Z</time></trkpt><trkpt lat="44.9119267" lon="10.65729"><ele>23.0</ele><time>2026-04-04T14:51:23.851Z</time></trkpt><trkpt lat="44.9120417" lon="10.65733"><ele>23.0</ele><time>2026-04-04T14:51:25.852Z</time></trkpt><trkpt lat="44.912135" lon="10.65736"><ele>23.0</ele><time>2026-04-04T14:51:27.852Z</time></trkpt><trkpt lat="44.912255" lon="10.6573467"><ele>23.0</ele><time>2026-04-04T14:51:29.852Z</time></trkpt><trkpt lat="44.9123267" lon="10.657325"><ele>23.0</ele><time>2026-04-04T14:51:30.852Z</time></trkpt><trkpt lat="44.9124067" lon="10.657315"><ele>23.0</ele><time>2026-04-04T14:51:31.852Z</time></trkpt><trkpt lat="44.912495" lon="10.6573183"><ele>23.0</ele><time>2026-04-04T14:51:32.852Z</time></trkpt><trkpt lat="44.9125917" lon="10.6573283"><ele>23.0</ele><time>2026-04-04T14:51:33.851Z</time></trkpt><trkpt lat="44.9127" lon="10.6573533"><ele>23.0</ele><time>2026-04-04T14:51:34.852Z</time></trkpt><trkpt lat="44.9128067" lon="10.6573717"><ele>23.0</ele><time>2026-04-04T14:51:35.852Z</time></trkpt><trkpt lat="44.9129117" lon="10.65739"><ele>22.799999999999997</ele><time>2026-04-04T14:51:36.852Z</time></trkpt><trkpt lat="44.913015" lon="10.65741"><ele>22.6</ele><time>2026-04-04T14:51:37.852Z</time></trkpt><trkpt lat="44.913115" lon="10.6574283"><ele>22.4</ele><time>2026-04-04T14:51:38.851Z</time></trkpt><trkpt lat="44.91322" lon="10.6574467"><ele>22.200000000000003</ele><time>2026-04-04T14:51:39.852Z</time></trkpt><trkpt lat="44.9133167" lon="10.6574633"><ele>22.0</ele><time>2026-04-04T14:51:40.851Z</time></trkpt><trkpt lat="44.913415" lon="10.6574867"><ele>21.6</ele><time>2026-04-04T14:51:41.852Z</time></trkpt><trkpt lat="44.913515" lon="10.65752"><ele>21.200000000000003</ele><time>2026-04-04T14:51:42.851Z</time></trkpt><trkpt lat="44.9136183" lon="10.6575633"><ele>20.8</ele><time>2026-04-04T14:51:43.852Z</time></trkpt><trkpt lat="44.9137267" lon="10.657605"><ele>20.4</ele><time>2026-04-04T14:51:44.852Z</time></trkpt><trkpt lat="44.913835" lon="10.6576417"><ele>20.0</ele><time>2026-04-04T14:51:45.851Z</time></trkpt><trkpt lat="44.9139417" lon="10.6576733"><ele>20.0</ele><time>2026-04-04T14:51:46.852Z</time></trkpt><trkpt lat="44.914045" lon="10.657705"><ele>20.0</ele><time>2026-04-04T14:51:47.852Z</time></trkpt><trkpt lat="44.9141467" lon="10.6577383"><ele>20.0</ele><time>2026-04-04T14:51:48.851Z</time></trkpt><trkpt lat="44.9142367" lon="10.6577683"><ele>20.0</ele><time>2026-04-04T14:51:49.851Z</time></trkpt><trkpt lat="44.9143167" lon="10.6578117"><ele>20.0</ele><time>2026-04-04T14:51:50.852Z</time></trkpt><trkpt lat="44.91439" lon="10.6578617"><ele>20.5</ele><time>2026-04-04T14:51:51.852Z</time></trkpt><trkpt lat="44.9144633" lon="10.6578983"><ele>21.0</ele><time>2026-04-04T14:51:52.852Z</time></trkpt><trkpt lat="44.9145433" lon="10.6579483"><ele>21.5</ele><time>2026-04-04T14:51:53.852Z</time></trkpt><trkpt lat="44.9146133" lon="10.6580033"><ele>22.0</ele><time>2026-04-04T14:51:54.852Z</time></trkpt><trkpt lat="44.9147" lon="10.6580483"><ele>22.5</ele><time>2026-04-04T14:51:55.851Z</time></trkpt><trkpt lat="44.9148017" lon="10.6581017"><ele>23.0</ele><time>2026-04-04T14:51:56.852Z</time></trkpt><trkpt lat="44.9149083" lon="10.6581567"><ele>23.0</ele><time>2026-04-04T14:51:57.852Z</time></trkpt><trkpt lat="44.915025" lon="10.6582217"><ele>23.0</ele><time>2026-04-04T14:51:58.852Z</time></trkpt><trkpt lat="44.91514" lon="10.6582883"><ele>23.0</ele><time>2026-04-04T14:51:59.852Z</time></trkpt><trkpt lat="44.9152467" lon="10.6583483"><ele>23.0</ele><time>2026-04-04T14:52:00.852Z</time></trkpt><trkpt lat="44.9153517" lon="10.658415"><ele>23.0</ele><time>2026-04-04T14:52:01.852Z</time></trkpt><trkpt lat="44.9154483" lon="10.6584783"><ele>23.0</ele><time>2026-04-04T14:52:02.852Z</time></trkpt><trkpt lat="44.91554" lon="10.658545"><ele>23.0</ele><time>2026-04-04T14:52:03.852Z</time></trkpt><trkpt lat="44.9156333" lon="10.6586117"><ele>23.0</ele><time>2026-04-04T14:52:04.852Z</time></trkpt><trkpt lat="44.9157167" lon="10.6586867"><ele>23.0</ele><time>2026-04-04T14:52:05.852Z</time></trkpt><trkpt lat="44.91578" lon="10.6587733"><ele>23.0</ele><time>2026-04-04T14:52:06.852Z</time></trkpt><trkpt lat="44.9158367" lon="10.65885"><ele>23.0</ele><time>2026-04-04T14:52:07.852Z</time></trkpt><trkpt lat="44.915895" lon="10.6589217"><ele>23.0</ele><time>2026-04-04T14:52:08.852Z</time></trkpt><trkpt lat="44.9159567" lon="10.6589667"><ele>23.0</ele><time>2026-04-04T14:52:09.851Z</time></trkpt><trkpt lat="44.916025" lon="10.6589817"><ele>23.0</ele><time>2026-04-04T14:52:10.852Z</time></trkpt><trkpt lat="44.9160967" lon="10.659"><ele>23.0</ele><time>2026-04-04T14:52:11.852Z</time></trkpt><trkpt lat="44.9161683" lon="10.6590183"><ele>23.0</ele><time>2026-04-04T14:52:12.852Z</time></trkpt><trkpt lat="44.9162333" lon="10.6590367"><ele>23.333333333333336</ele><time>2026-04-04T14:52:13.851Z</time></trkpt><trkpt lat="44.9162967" lon="10.65907"><ele>23.666666666666668</ele><time>2026-04-04T14:52:14.852Z</time></trkpt><trkpt lat="44.91636" lon="10.6591067"><ele>24.0</ele><time>2026-04-04T14:52:15.852Z</time></trkpt><trkpt lat="44.9164283" lon="10.6591517"><ele>24.333333333333336</ele><time>2026-04-04T14:52:16.852Z</time></trkpt><trkpt lat="44.9165017" lon="10.6592"><ele>24.666666666666668</ele><time>2026-04-04T14:52:17.852Z</time></trkpt><trkpt lat="44.9165767" lon="10.659255"><ele>25.0</ele><time>2026-04-04T14:52:18.851Z</time></trkpt><trkpt lat="44.9166617" lon="10.659325"><ele>25.0</ele><time>2026-04-04T14:52:19.852Z</time></trkpt><trkpt lat="44.916745" lon="10.6593983"><ele>25.0</ele><time>2026-04-04T14:52:20.851Z</time></trkpt><trkpt lat="44.9168333" lon="10.6594667"><ele>25.0</ele><time>2026-04-04T14:52:21.852Z</time></trkpt><trkpt lat="44.9169283" lon="10.659525"><ele>25.0</ele><time>2026-04-04T14:52:22.851Z</time></trkpt><trkpt lat="44.917" lon="10.6595767"><ele>25.0</ele><time>2026-04-04T14:52:23.852Z</time></trkpt><trkpt lat="44.9170617" lon="10.65962"><ele>24.8</ele><time>2026-04-04T14:52:24.852Z</time></trkpt><trkpt lat="44.9171167" lon="10.6596717"><ele>24.6</ele><time>2026-04-04T14:52:25.851Z</time></trkpt><trkpt lat="44.9171967" lon="10.6597417"><ele>24.4</ele><time>2026-04-04T14:52:27.852Z</time></trkpt><trkpt lat="44.9172833" lon="10.6598383"><ele>24.2</ele><time>2026-04-04T14:52:58.851Z</time></trkpt><trkpt lat="44.9173667" lon="10.6599183"><ele>24.0</ele><time>2026-04-04T14:53:00.852Z</time></trkpt><trkpt lat="44.9174367" lon="10.6599683"><ele>24.0</ele><time>2026-04-04T14:53:01.852Z</time></trkpt><trkpt lat="44.91752" lon="10.6600367"><ele>24.0</ele><time>2026-04-04T14:53:02.851Z</time></trkpt><trkpt lat="44.91761" lon="10.660115"><ele>24.0</ele><time>2026-04-04T14:53:03.851Z</time></trkpt><trkpt lat="44.917705" lon="10.6601983"><ele>24.0</ele><time>2026-04-04T14:53:04.852Z</time></trkpt><trkpt lat="44.9177833" lon="10.6602783"><ele>24.0</ele><time>2026-04-04T14:53:05.852Z</time></trkpt><trkpt lat="44.9178667" lon="10.6603633"><ele>23.5</ele><time>2026-04-04T14:53:06.852Z</time></trkpt><trkpt lat="44.917955" lon="10.660465"><ele>23.0</ele><time>2026-04-04T14:53:07.852Z</time></trkpt><trkpt lat="44.91804" lon="10.660585"><ele>22.5</ele><time>2026-04-04T14:53:08.852Z</time></trkpt><trkpt lat="44.9181267" lon="10.6607017"><ele>22.0</ele><time>2026-04-04T14:53:09.852Z</time></trkpt><trkpt lat="44.9182083" lon="10.6608233"><ele>22.0</ele><time>2026-04-04T14:53:10.852Z</time></trkpt><trkpt lat="44.9183" lon="10.6609467"><ele>22.0</ele><time>2026-04-04T14:53:11.852Z</time></trkpt><trkpt lat="44.9183867" lon="10.6610683"><ele>22.0</ele><time>2026-04-04T14:53:12.852Z</time></trkpt><trkpt lat="44.9184767" lon="10.6611917"><ele>22.0</ele><time>2026-04-04T14:53:13.852Z</time></trkpt><trkpt lat="44.91857" lon="10.6613067"><ele>22.25</ele><time>2026-04-04T14:53:14.852Z</time></trkpt><trkpt lat="44.918665" lon="10.661415"><ele>22.5</ele><time>2026-04-04T14:53:15.852Z</time></trkpt><trkpt lat="44.9187683" lon="10.6615267"><ele>22.75</ele><time>2026-04-04T14:53:16.852Z</time></trkpt><trkpt lat="44.9188717" lon="10.6616383"><ele>23.0</ele><time>2026-04-04T14:53:17.852Z</time></trkpt><trkpt lat="44.91898" lon="10.66174"><ele>23.0</ele><time>2026-04-04T14:53:18.852Z</time></trkpt><trkpt lat="44.919105" lon="10.661845"><ele>23.0</ele><time>2026-04-04T14:53:19.852Z</time></trkpt><trkpt lat="44.9192433" lon="10.6619583"><ele>23.0</ele><time>2026-04-04T14:53:20.852Z</time></trkpt><trkpt lat="44.9193967" lon="10.6620617"><ele>22.666666666666668</ele><time>2026-04-04T14:53:21.852Z</time></trkpt><trkpt lat="44.91954" lon="10.662155"><ele>22.333333333333332</ele><time>2026-04-04T14:53:22.852Z</time></trkpt><trkpt lat="44.9196833" lon="10.6622367"><ele>22.0</ele><time>2026-04-04T14:53:23.852Z</time></trkpt><trkpt lat="44.9198333" lon="10.6623117"><ele>22.0</ele><time>2026-04-04T14:53:24.852Z</time></trkpt><trkpt lat="44.9199883" lon="10.6623667"><ele>22.0</ele><time>2026-04-04T14:53:25.851Z</time></trkpt><trkpt lat="44.920145" lon="10.6624067"><ele>22.0</ele><time>2026-04-04T14:53:26.852Z</time></trkpt><trkpt lat="44.92031" lon="10.6624317"><ele>22.333333333333332</ele><time>2026-04-04T14:53:27.851Z</time></trkpt><trkpt lat="44.9204833" lon="10.6624483"><ele>22.666666666666668</ele><time>2026-04-04T14:53:28.852Z</time></trkpt><trkpt lat="44.920655" lon="10.6624533"><ele>23.0</ele><time>2026-04-04T14:53:29.852Z</time></trkpt><trkpt lat="44.9208317" lon="10.6624483"><ele>23.0</ele><time>2026-04-04T14:53:30.852Z</time></trkpt><trkpt lat="44.921" lon="10.6624233"><ele>23.0</ele><time>2026-04-04T14:53:31.851Z</time></trkpt><trkpt lat="44.9211617" lon="10.662415"><ele>23.0</ele><time>2026-04-04T14:53:32.852Z</time></trkpt><trkpt lat="44.921305" lon="10.662385"><ele>23.0</ele><time>2026-04-04T14:53:33.852Z</time></trkpt><trkpt lat="44.921445" lon="10.6623533"><ele>23.0</ele><time>2026-04-04T14:53:34.851Z</time></trkpt><trkpt lat="44.9215817" lon="10.662325"><ele>23.0</ele><time>2026-04-04T14:53:35.852Z</time></trkpt><trkpt lat="44.9217317" lon="10.6622983"><ele>23.0</ele><time>2026-04-04T14:53:36.852Z</time></trkpt><trkpt lat="44.9218883" lon="10.66227"><ele>23.0</ele><time>2026-04-04T14:53:37.851Z</time></trkpt><trkpt lat="44.9220533" lon="10.66224"><ele>23.0</ele><time>2026-04-04T14:53:38.852Z</time></trkpt><trkpt lat="44.9222117" lon="10.6622083"><ele>23.0</ele><time>2026-04-04T14:53:39.852Z</time></trkpt><trkpt lat="44.9223683" lon="10.66218"><ele>23.0</ele><time>2026-04-04T14:53:40.852Z</time></trkpt><trkpt lat="44.9225233" lon="10.6621483"><ele>23.0</ele><time>2026-04-04T14:53:41.851Z</time></trkpt><trkpt lat="44.9226733" lon="10.66212"><ele>23.0</ele><time>2026-04-04T14:53:42.852Z</time></trkpt><trkpt lat="44.92281" lon="10.6620833"><ele>23.0</ele><time>2026-04-04T14:53:43.852Z</time></trkpt><trkpt lat="44.9229367" lon="10.66206"><ele>23.2</ele><time>2026-04-04T14:53:44.851Z</time></trkpt><trkpt lat="44.9230467" lon="10.6620367"><ele>23.4</ele><time>2026-04-04T14:53:45.852Z</time></trkpt><trkpt lat="44.923155" lon="10.662015"><ele>23.599999999999998</ele><time>2026-04-04T14:53:46.851Z</time></trkpt><trkpt lat="44.9232617" lon="10.662"><ele>23.799999999999997</ele><time>2026-04-04T14:53:47.852Z</time></trkpt><trkpt lat="44.9233583" lon="10.661985"><ele>24.0</ele><time>2026-04-04T14:53:48.851Z</time></trkpt><trkpt lat="44.92345" lon="10.661975"><ele>24.0</ele><time>2026-04-04T14:53:49.852Z</time></trkpt><trkpt lat="44.92353" lon="10.661965"><ele>24.0</ele><time>2026-04-04T14:53:50.852Z</time></trkpt><trkpt lat="44.9236033" lon="10.6619617"><ele>24.0</ele><time>2026-04-04T14:53:51.851Z</time></trkpt><trkpt lat="44.9236717" lon="10.6619567"><ele>24.0</ele><time>2026-04-04T14:53:52.851Z</time></trkpt><trkpt lat="44.9237967" lon="10.6619717"><ele>24.0</ele><time>2026-04-04T14:53:54.852Z</time></trkpt><trkpt lat="44.9238617" lon="10.661985"><ele>24.0</ele><time>2026-04-04T14:53:55.851Z</time></trkpt><trkpt lat="44.9239917" lon="10.661945"><ele>23.799999999999997</ele><time>2026-04-04T14:53:57.852Z</time></trkpt><trkpt lat="44.92407" lon="10.6619183"><ele>23.599999999999998</ele><time>2026-04-04T14:53:58.852Z</time></trkpt><trkpt lat="44.9241717" lon="10.661885"><ele>23.4</ele><time>2026-04-04T14:53:59.852Z</time></trkpt><trkpt lat="44.92428" lon="10.661845"><ele>23.2</ele><time>2026-04-04T14:54:00.852Z</time></trkpt><trkpt lat="44.92439" lon="10.66182"><ele>23.0</ele><time>2026-04-04T14:54:01.852Z</time></trkpt><trkpt lat="44.92451" lon="10.6617983"><ele>23.0</ele><time>2026-04-04T14:54:02.852Z</time></trkpt><trkpt lat="44.92464" lon="10.6617733"><ele>23.0</ele><time>2026-04-04T14:54:03.852Z</time></trkpt><trkpt lat="44.9247717" lon="10.6617433"><ele>23.0</ele><time>2026-04-04T14:54:04.852Z</time></trkpt><trkpt lat="44.9249117" lon="10.6616983"><ele>23.0</ele><time>2026-04-04T14:54:05.851Z</time></trkpt><trkpt lat="44.925055" lon="10.6616633"><ele>23.0</ele><time>2026-04-04T14:54:06.852Z</time></trkpt><trkpt lat="44.9251917" lon="10.6616283"><ele>23.0</ele><time>2026-04-04T14:54:07.852Z</time></trkpt><trkpt lat="44.925315" lon="10.6616083"><ele>23.0</ele><time>2026-04-04T14:54:08.852Z</time></trkpt><trkpt lat="44.92541" lon="10.6615933"><ele>23.0</ele><time>2026-04-04T14:54:09.852Z</time></trkpt><trkpt lat="44.9254733" lon="10.66158"><ele>23.0</ele><time>2026-04-04T14:54:10.852Z</time></trkpt><trkpt lat="44.9255383" lon="10.66153"><ele>23.0</ele><time>2026-04-04T14:54:12.852Z</time></trkpt><trkpt lat="44.9255867" lon="10.661455"><ele>23.0</ele><time>2026-04-04T14:54:15.852Z</time></trkpt><trkpt lat="44.9255967" lon="10.6613267"><ele>23.0</ele><time>2026-04-04T14:54:17.852Z</time></trkpt><trkpt lat="44.9255817" lon="10.6612133"><ele>23.0</ele><time>2026-04-04T14:54:18.852Z</time></trkpt><trkpt lat="44.92555" lon="10.661085"><ele>23.0</ele><time>2026-04-04T14:54:19.851Z</time></trkpt><trkpt lat="44.9255083" lon="10.6609333"><ele>23.0</ele><time>2026-04-04T14:54:20.851Z</time></trkpt><trkpt lat="44.925465" lon="10.6607633"><ele>23.0</ele><time>2026-04-04T14:54:21.852Z</time></trkpt><trkpt lat="44.92541" lon="10.660575"><ele>23.0</ele><time>2026-04-04T14:54:22.852Z</time></trkpt><trkpt lat="44.9253583" lon="10.660365"><ele>23.0</ele><time>2026-04-04T14:54:23.851Z</time></trkpt><trkpt lat="44.925295" lon="10.6601183"><ele>23.0</ele><time>2026-04-04T14:54:24.851Z</time></trkpt><trkpt lat="44.9252283" lon="10.6598467"><ele>23.0</ele><time>2026-04-04T14:54:25.851Z</time></trkpt><trkpt lat="44.925165" lon="10.659555"><ele>23.0</ele><time>2026-04-04T14:54:26.852Z</time></trkpt><trkpt lat="44.9251" lon="10.6592683"><ele>23.0</ele><time>2026-04-04T14:54:27.851Z</time></trkpt><trkpt lat="44.9250217" lon="10.658985"><ele>23.0</ele><time>2026-04-04T14:54:28.852Z</time></trkpt><trkpt lat="44.9249417" lon="10.6587167"><ele>23.0</ele><time>2026-04-04T14:54:29.851Z</time></trkpt><trkpt lat="44.9248517" lon="10.6584733"><ele>23.0</ele><time>2026-04-04T14:54:30.852Z</time></trkpt><trkpt lat="44.9247567" lon="10.65826"><ele>23.0</ele><time>2026-04-04T14:54:31.852Z</time></trkpt><trkpt lat="44.9246483" lon="10.6580733"><ele>23.0</ele><time>2026-04-04T14:54:32.852Z</time></trkpt><trkpt lat="44.9245567" lon="10.65792"><ele>22.75</ele><time>2026-04-04T14:54:33.852Z</time></trkpt><trkpt lat="44.9244667" lon="10.657775"><ele>22.5</ele><time>2026-04-04T14:54:34.852Z</time></trkpt><trkpt lat="44.9243983" lon="10.6576233"><ele>22.25</ele><time>2026-04-04T14:54:35.852Z</time></trkpt><trkpt lat="44.9243517" lon="10.657435"><ele>22.0</ele><time>2026-04-04T14:54:36.852Z</time></trkpt><trkpt lat="44.9243217" lon="10.6572117"><ele>22.0</ele><time>2026-04-04T14:54:37.852Z</time></trkpt><trkpt lat="44.9242983" lon="10.65697"><ele>22.0</ele><time>2026-04-04T14:54:38.852Z</time></trkpt><trkpt lat="44.924275" lon="10.6567483"><ele>22.0</ele><time>2026-04-04T14:54:39.852Z</time></trkpt><trkpt lat="44.9242517" lon="10.6565383"><ele>22.25</ele><time>2026-04-04T14:54:40.852Z</time></trkpt><trkpt lat="44.9242333" lon="10.6563433"><ele>22.5</ele><time>2026-04-04T14:54:41.852Z</time></trkpt><trkpt lat="44.924215" lon="10.6561667"><ele>22.75</ele><time>2026-04-04T14:54:42.852Z</time></trkpt><trkpt lat="44.9242033" lon="10.655995"><ele>23.0</ele><time>2026-04-04T14:54:43.852Z</time></trkpt><trkpt lat="44.9242033" lon="10.655835"><ele>23.599999999999998</ele><time>2026-04-04T14:54:44.851Z</time></trkpt><trkpt lat="44.92422" lon="10.6556783"><ele>24.2</ele><time>2026-04-04T14:54:45.852Z</time></trkpt><trkpt lat="44.9242517" lon="10.6555333"><ele>24.8</ele><time>2026-04-04T14:54:46.852Z</time></trkpt><trkpt lat="44.924285" lon="10.6553917"><ele>25.4</ele><time>2026-04-04T14:54:47.852Z</time></trkpt><trkpt lat="44.9243283" lon="10.6552667"><ele>26.0</ele><time>2026-04-04T14:54:48.851Z</time></trkpt><trkpt lat="44.9243783" lon="10.6551617"><ele>25.999999999999996</ele><time>2026-04-04T14:54:49.851Z</time></trkpt><trkpt lat="44.924425" lon="10.6550583"><ele>26.0</ele><time>2026-04-04T14:54:50.852Z</time></trkpt><trkpt lat="44.92447" lon="10.6549617"><ele>26.0</ele><time>2026-04-04T14:54:51.852Z</time></trkpt><trkpt lat="44.9245117" lon="10.6548667"><ele>26.0</ele><time>2026-04-04T14:54:52.852Z</time></trkpt><trkpt lat="44.9245483" lon="10.6547733"><ele>25.999999999999996</ele><time>2026-04-04T14:54:53.852Z</time></trkpt><trkpt lat="44.9245767" lon="10.6546717"><ele>26.0</ele><time>2026-04-04T14:54:54.852Z</time></trkpt><trkpt lat="44.92459" lon="10.65457"><ele>25.999999999999996</ele><time>2026-04-04T14:54:55.852Z</time></trkpt><trkpt lat="44.9246067" lon="10.6544683"><ele>26.0</ele><time>2026-04-04T14:54:56.852Z</time></trkpt><trkpt lat="44.9246383" lon="10.65436"><ele>26.0</ele><time>2026-04-04T14:54:57.852Z</time></trkpt><trkpt lat="44.92468" lon="10.654265"><ele>26.0</ele><time>2026-04-04T14:54:58.852Z</time></trkpt><trkpt lat="44.9247333" lon="10.6541933"><ele>25.999999999999996</ele><time>2026-04-04T14:54:59.851Z</time></trkpt><trkpt lat="44.92481" lon="10.6541283"><ele>26.0</ele><time>2026-04-04T14:55:00.851Z</time></trkpt><trkpt lat="44.9249033" lon="10.6540867"><ele>26.166666666666664</ele><time>2026-04-04T14:55:01.851Z</time></trkpt><trkpt lat="44.9249933" lon="10.6540583"><ele>26.333333333333332</ele><time>2026-04-04T14:55:02.851Z</time></trkpt><trkpt lat="44.925075" lon="10.6540283"><ele>26.5</ele><time>2026-04-04T14:55:03.852Z</time></trkpt><trkpt lat="44.92515" lon="10.6539983"><ele>26.666666666666664</ele><time>2026-04-04T14:55:04.852Z</time></trkpt><trkpt lat="44.9252233" lon="10.6539667"><ele>26.833333333333332</ele><time>2026-04-04T14:55:05.852Z</time></trkpt><trkpt lat="44.925335" lon="10.6539283"><ele>27.0</ele><time>2026-04-04T14:55:07.851Z</time></trkpt><trkpt lat="44.9254517" lon="10.653895"><ele>26.666666666666668</ele><time>2026-04-04T14:55:09.852Z</time></trkpt><trkpt lat="44.9255233" lon="10.65389"><ele>26.333333333333336</ele><time>2026-04-04T14:55:10.852Z</time></trkpt><trkpt lat="44.9256133" lon="10.6538867"><ele>26.0</ele><time>2026-04-04T14:55:11.852Z</time></trkpt><trkpt lat="44.9257017" lon="10.6538867"><ele>25.666666666666668</ele><time>2026-04-04T14:55:12.852Z</time></trkpt><trkpt lat="44.92579" lon="10.653895"><ele>25.333333333333336</ele><time>2026-04-04T14:55:13.852Z</time></trkpt><trkpt lat="44.925875" lon="10.653905"><ele>25.0</ele><time>2026-04-04T14:55:14.852Z</time></trkpt><trkpt lat="44.9259583" lon="10.653915"><ele>24.8</ele><time>2026-04-04T14:55:15.851Z</time></trkpt><trkpt lat="44.9260367" lon="10.6539167"><ele>24.6</ele><time>2026-04-04T14:55:16.852Z</time></trkpt><trkpt lat="44.92612" lon="10.6539217"><ele>24.4</ele><time>2026-04-04T14:55:17.851Z</time></trkpt><trkpt lat="44.9262033" lon="10.6539267"><ele>24.2</ele><time>2026-04-04T14:55:18.852Z</time></trkpt><trkpt lat="44.9263017" lon="10.6539433"><ele>24.0</ele><time>2026-04-04T14:55:19.852Z</time></trkpt><trkpt lat="44.9264183" lon="10.65396"><ele>24.0</ele><time>2026-04-04T14:55:20.852Z</time></trkpt><trkpt lat="44.9265417" lon="10.65397"><ele>24.0</ele><time>2026-04-04T14:55:21.852Z</time></trkpt><trkpt lat="44.9266683" lon="10.65398"><ele>24.0</ele><time>2026-04-04T14:55:22.852Z</time></trkpt><trkpt lat="44.9267917" lon="10.6539833"><ele>24.0</ele><time>2026-04-04T14:55:23.852Z</time></trkpt><trkpt lat="44.9269133" lon="10.653995"><ele>24.5</ele><time>2026-04-04T14:55:24.851Z</time></trkpt><trkpt lat="44.92704" lon="10.6540083"><ele>25.0</ele><time>2026-04-04T14:55:25.852Z</time></trkpt><trkpt lat="44.9271633" lon="10.654025"><ele>25.5</ele><time>2026-04-04T14:55:26.852Z</time></trkpt><trkpt lat="44.9272667" lon="10.6540317"><ele>26.0</ele><time>2026-04-04T14:55:27.851Z</time></trkpt><trkpt lat="44.9273633" lon="10.6540417"><ele>26.0</ele><time>2026-04-04T14:55:28.852Z</time></trkpt><trkpt lat="44.92745" lon="10.6540533"><ele>26.0</ele><time>2026-04-04T14:55:29.851Z</time></trkpt><trkpt lat="44.9275417" lon="10.6540667"><ele>26.0</ele><time>2026-04-04T14:55:30.852Z</time></trkpt><trkpt lat="44.9276333" lon="10.6540783"><ele>26.0</ele><time>2026-04-04T14:55:31.852Z</time></trkpt><trkpt lat="44.9277317" lon="10.654095"><ele>26.0</ele><time>2026-04-04T14:55:32.852Z</time></trkpt><trkpt lat="44.9278583" lon="10.6540933"><ele>25.6</ele><time>2026-04-04T14:55:33.852Z</time></trkpt><trkpt lat="44.9279733" lon="10.6541067"><ele>25.200000000000003</ele><time>2026-04-04T14:55:34.852Z</time></trkpt><trkpt lat="44.928075" lon="10.65412"><ele>24.799999999999997</ele><time>2026-04-04T14:55:35.852Z</time></trkpt><trkpt lat="44.9281717" lon="10.6541367"><ele>24.4</ele><time>2026-04-04T14:55:36.851Z</time></trkpt><trkpt lat="44.9282617" lon="10.6541567"><ele>24.0</ele><time>2026-04-04T14:55:37.852Z</time></trkpt><trkpt lat="44.9283517" lon="10.6541767"><ele>23.857142857142854</ele><time>2026-04-04T14:55:38.851Z</time></trkpt><trkpt lat="44.92844" lon="10.6541733"><ele>23.714285714285715</ele><time>2026-04-04T14:55:39.851Z</time></trkpt><trkpt lat="44.9285217" lon="10.6541817"><ele>23.57142857142857</ele><time>2026-04-04T14:55:40.852Z</time></trkpt><trkpt lat="44.9285933" lon="10.6541817"><ele>23.428571428571427</ele><time>2026-04-04T14:55:41.852Z</time></trkpt><trkpt lat="44.9286633" lon="10.6541883"><ele>23.285714285714285</ele><time>2026-04-04T14:55:42.851Z</time></trkpt><trkpt lat="44.9287283" lon="10.6541833"><ele>23.142857142857142</ele><time>2026-04-04T14:55:43.852Z</time></trkpt><trkpt lat="44.9287917" lon="10.6541833"><ele>23.0</ele><time>2026-04-04T14:55:44.852Z</time></trkpt><trkpt lat="44.928905" lon="10.6541983"><ele>23.0</ele><time>2026-04-04T14:55:46.852Z</time></trkpt><trkpt lat="44.9290267" lon="10.654215"><ele>23.0</ele><time>2026-04-04T14:55:48.852Z</time></trkpt><trkpt lat="44.92914" lon="10.65422"><ele>23.0</ele><time>2026-04-04T14:55:50.852Z</time></trkpt><trkpt lat="44.9292467" lon="10.654225"><ele>23.0</ele><time>2026-04-04T14:55:52.851Z</time></trkpt><trkpt lat="44.9293433" lon="10.6542233"><ele>23.0</ele><time>2026-04-04T14:55:54.85Z</time></trkpt><trkpt lat="44.9294067" lon="10.6542283"><ele>23.5</ele><time>2026-04-04T14:55:56.851Z</time></trkpt><trkpt lat="44.92948" lon="10.6542367"><ele>24.0</ele><time>2026-04-04T14:55:58.851Z</time></trkpt><trkpt lat="44.9295433" lon="10.654255"><ele>24.5</ele><time>2026-04-04T14:56:00.851Z</time></trkpt><trkpt lat="44.9296183" lon="10.6542683"><ele>25.0</ele><time>2026-04-04T14:56:02.851Z</time></trkpt><trkpt lat="44.9297" lon="10.6542983"><ele>25.499999999999996</ele><time>2026-04-04T14:56:04.851Z</time></trkpt><trkpt lat="44.929785" lon="10.6542483"><ele>26.0</ele><time>2026-04-04T14:56:06.851Z</time></trkpt><trkpt lat="44.9298083" lon="10.6541317"><ele>25.999999999999996</ele><time>2026-04-04T14:56:08.851Z</time></trkpt><trkpt lat="44.9297833" lon="10.6540383"><ele>26.0</ele><time>2026-04-04T14:56:10.851Z</time></trkpt><trkpt lat="44.9297533" lon="10.653885"><ele>26.0</ele><time>2026-04-04T14:56:19.851Z</time></trkpt><trkpt lat="44.9297233" lon="10.6537333"><ele>26.0</ele><time>2026-04-04T14:56:21.85Z</time></trkpt><trkpt lat="44.9297033" lon="10.6536483"><ele>25.999999999999996</ele><time>2026-04-04T14:56:22.85Z</time></trkpt><trkpt lat="44.9296867" lon="10.6535467"><ele>26.0</ele><time>2026-04-04T14:56:23.85Z</time></trkpt><trkpt lat="44.929665" lon="10.6534417"><ele>26.166666666666664</ele><time>2026-04-04T14:56:24.851Z</time></trkpt><trkpt lat="44.9296417" lon="10.6533317"><ele>26.333333333333332</ele><time>2026-04-04T14:56:25.851Z</time></trkpt><trkpt lat="44.9296217" lon="10.6532283"><ele>26.5</ele><time>2026-04-04T14:56:26.851Z</time></trkpt><trkpt lat="44.9296033" lon="10.6531367"><ele>26.666666666666664</ele><time>2026-04-04T14:56:27.851Z</time></trkpt><trkpt lat="44.9295867" lon="10.6530483"><ele>26.833333333333332</ele><time>2026-04-04T14:56:28.851Z</time></trkpt><trkpt lat="44.9295583" lon="10.652875"><ele>27.0</ele><time>2026-04-04T14:56:30.851Z</time></trkpt><trkpt lat="44.92954" lon="10.6527833"><ele>27.5</ele><time>2026-04-04T14:56:31.85Z</time></trkpt><trkpt lat="44.9295217" lon="10.652675"><ele>28.0</ele><time>2026-04-04T14:56:32.851Z</time></trkpt><trkpt lat="44.9294983" lon="10.6525517"><ele>28.5</ele><time>2026-04-04T14:56:33.851Z</time></trkpt><trkpt lat="44.9294817" lon="10.6524267"><ele>29.0</ele><time>2026-04-04T14:56:34.851Z</time></trkpt><trkpt lat="44.9294617" lon="10.6523033"><ele>29.5</ele><time>2026-04-04T14:56:35.85Z</time></trkpt><trkpt lat="44.9294433" lon="10.6521733"><ele>30.0</ele><time>2026-04-04T14:56:36.851Z</time></trkpt><trkpt lat="44.929425" lon="10.6520483"><ele>30.0</ele><time>2026-04-04T14:56:37.851Z</time></trkpt><trkpt lat="44.929405" lon="10.6519117"><ele>30.0</ele><time>2026-04-04T14:56:38.851Z</time></trkpt><trkpt lat="44.9293883" lon="10.6517683"><ele>30.0</ele><time>2026-04-04T14:56:39.85Z</time></trkpt><trkpt lat="44.929365" lon="10.65163"><ele>30.0</ele><time>2026-04-04T14:56:40.851Z</time></trkpt><trkpt lat="44.9293433" lon="10.6515"><ele>30.0</ele><time>2026-04-04T14:56:41.851Z</time></trkpt><trkpt lat="44.929325" lon="10.6513583"><ele>30.0</ele><time>2026-04-04T14:56:42.851Z</time></trkpt><trkpt lat="44.9293017" lon="10.6512017"><ele>30.0</ele><time>2026-04-04T14:56:43.851Z</time></trkpt><trkpt lat="44.929285" lon="10.6510317"><ele>30.0</ele><time>2026-04-04T14:56:44.85Z</time></trkpt><trkpt lat="44.9292683" lon="10.6508783"><ele>30.0</ele><time>2026-04-04T14:56:45.851Z</time></trkpt><trkpt lat="44.929255" lon="10.6507367"><ele>30.0</ele><time>2026-04-04T14:56:46.85Z</time></trkpt><trkpt lat="44.9292383" lon="10.6505933"><ele>29.8</ele><time>2026-04-04T14:56:47.851Z</time></trkpt><trkpt lat="44.9292283" lon="10.65045"><ele>29.6</ele><time>2026-04-04T14:56:48.851Z</time></trkpt><trkpt lat="44.9292217" lon="10.6503033"><ele>29.4</ele><time>2026-04-04T14:56:49.851Z</time></trkpt><trkpt lat="44.92922" lon="10.6501517"><ele>29.2</ele><time>2026-04-04T14:56:50.851Z</time></trkpt><trkpt lat="44.92922" lon="10.6500083"><ele>29.0</ele><time>2026-04-04T14:56:51.851Z</time></trkpt><trkpt lat="44.929215" lon="10.6498717"><ele>28.4</ele><time>2026-04-04T14:56:52.851Z</time></trkpt><trkpt lat="44.92921" lon="10.649735"><ele>27.799999999999997</ele><time>2026-04-04T14:56:53.851Z</time></trkpt><trkpt lat="44.9292033" lon="10.6495817"><ele>27.200000000000003</ele><time>2026-04-04T14:56:54.851Z</time></trkpt><trkpt lat="44.9292017" lon="10.6494283"><ele>26.6</ele><time>2026-04-04T14:56:55.851Z</time></trkpt><trkpt lat="44.9292" lon="10.649275"><ele>26.0</ele><time>2026-04-04T14:56:56.851Z</time></trkpt><trkpt lat="44.929195" lon="10.64911"><ele>26.0</ele><time>2026-04-04T14:56:57.851Z</time></trkpt><trkpt lat="44.929195" lon="10.648945"><ele>26.0</ele><time>2026-04-04T14:56:58.851Z</time></trkpt><trkpt lat="44.9291967" lon="10.64878"><ele>26.0</ele><time>2026-04-04T14:56:59.85Z</time></trkpt><trkpt lat="44.9291933" lon="10.6486067"><ele>26.0</ele><time>2026-04-04T14:57:00.851Z</time></trkpt><trkpt lat="44.9291967" lon="10.6484233"><ele>26.0</ele><time>2026-04-04T14:57:01.851Z</time></trkpt><trkpt lat="44.9292" lon="10.648235"><ele>26.0</ele><time>2026-04-04T14:57:02.851Z</time></trkpt><trkpt lat="44.9291983" lon="10.6480483"><ele>26.0</ele><time>2026-04-04T14:57:03.851Z</time></trkpt><trkpt lat="44.9291983" lon="10.64788"><ele>26.0</ele><time>2026-04-04T14:57:04.851Z</time></trkpt><trkpt lat="44.9291933" lon="10.6477183"><ele>25.75</ele><time>2026-04-04T14:57:05.851Z</time></trkpt><trkpt lat="44.9291817" lon="10.6475533"><ele>25.5</ele><time>2026-04-04T14:57:06.851Z</time></trkpt><trkpt lat="44.929175" lon="10.6473967"><ele>25.25</ele><time>2026-04-04T14:57:07.85Z</time></trkpt><trkpt lat="44.9291683" lon="10.647235"><ele>25.0</ele><time>2026-04-04T14:57:08.851Z</time></trkpt><trkpt lat="44.92916" lon="10.6470717"><ele>25.25</ele><time>2026-04-04T14:57:09.85Z</time></trkpt><trkpt lat="44.9291567" lon="10.6469083"><ele>25.5</ele><time>2026-04-04T14:57:10.851Z</time></trkpt><trkpt lat="44.9291483" lon="10.6467467"><ele>25.75</ele><time>2026-04-04T14:57:11.851Z</time></trkpt><trkpt lat="44.929135" lon="10.6465817"><ele>26.0</ele><time>2026-04-04T14:57:12.85Z</time></trkpt><trkpt lat="44.929125" lon="10.646425"><ele>26.0</ele><time>2026-04-04T14:57:13.851Z</time></trkpt><trkpt lat="44.92912" lon="10.64627"><ele>26.0</ele><time>2026-04-04T14:57:14.85Z</time></trkpt><trkpt lat="44.9291133" lon="10.6461217"><ele>26.0</ele><time>2026-04-04T14:57:15.85Z</time></trkpt><trkpt lat="44.9291083" lon="10.6459733"><ele>26.0</ele><time>2026-04-04T14:57:16.851Z</time></trkpt><trkpt lat="44.929105" lon="10.6458217"><ele>26.0</ele><time>2026-04-04T14:57:17.851Z</time></trkpt><trkpt lat="44.9291" lon="10.6456767"><ele>26.200000000000003</ele><time>2026-04-04T14:57:18.85Z</time></trkpt><trkpt lat="44.929095" lon="10.64553"><ele>26.400000000000002</ele><time>2026-04-04T14:57:19.851Z</time></trkpt><trkpt lat="44.92909" lon="10.6453833"><ele>26.6</ele><time>2026-04-04T14:57:20.851Z</time></trkpt><trkpt lat="44.9290933" lon="10.6452267"><ele>26.8</ele><time>2026-04-04T14:57:21.851Z</time></trkpt><trkpt lat="44.929105" lon="10.6450583"><ele>27.0</ele><time>2026-04-04T14:57:22.851Z</time></trkpt><trkpt lat="44.9291217" lon="10.644895"><ele>26.5</ele><time>2026-04-04T14:57:23.851Z</time></trkpt><trkpt lat="44.9291517" lon="10.6447317"><ele>26.0</ele><time>2026-04-04T14:57:24.85Z</time></trkpt><trkpt lat="44.92918" lon="10.6445667"><ele>25.5</ele><time>2026-04-04T14:57:25.851Z</time></trkpt><trkpt lat="44.9292067" lon="10.6444033"><ele>25.0</ele><time>2026-04-04T14:57:26.851Z</time></trkpt><trkpt lat="44.929235" lon="10.6442517"><ele>23.75</ele><time>2026-04-04T14:57:27.851Z</time></trkpt><trkpt lat="44.9292667" lon="10.6441033"><ele>22.5</ele><time>2026-04-04T14:57:28.85Z</time></trkpt><trkpt lat="44.9292967" lon="10.6439517"><ele>21.25</ele><time>2026-04-04T14:57:29.851Z</time></trkpt><trkpt lat="44.9293333" lon="10.643795"><ele>20.0</ele><time>2026-04-04T14:57:30.851Z</time></trkpt><trkpt lat="44.92937" lon="10.643645"><ele>20.0</ele><time>2026-04-04T14:57:31.851Z</time></trkpt><trkpt lat="44.9294" lon="10.6435083"><ele>20.0</ele><time>2026-04-04T14:57:32.85Z</time></trkpt><trkpt lat="44.9294233" lon="10.6433967"><ele>20.0</ele><time>2026-04-04T14:57:33.85Z</time></trkpt><trkpt lat="44.929445" lon="10.64328"><ele>20.0</ele><time>2026-04-04T14:57:34.851Z</time></trkpt><trkpt lat="44.929465" lon="10.643175"><ele>20.0</ele><time>2026-04-04T14:57:35.851Z</time></trkpt><trkpt lat="44.9294833" lon="10.6430767"><ele>20.0</ele><time>2026-04-04T14:57:36.851Z</time></trkpt><trkpt lat="44.9295017" lon="10.6429783"><ele>20.0</ele><time>2026-04-04T14:57:37.851Z</time></trkpt><trkpt lat="44.9295217" lon="10.64288"><ele>20.0</ele><time>2026-04-04T14:57:38.85Z</time></trkpt><trkpt lat="44.92954" lon="10.6427833"><ele>20.0</ele><time>2026-04-04T14:57:39.851Z</time></trkpt><trkpt lat="44.92956" lon="10.6426767"><ele>20.0</ele><time>2026-04-04T14:57:40.851Z</time></trkpt><trkpt lat="44.9295783" lon="10.6425783"><ele>20.0</ele><time>2026-04-04T14:57:41.851Z</time></trkpt><trkpt lat="44.9295967" lon="10.6424783"><ele>20.0</ele><time>2026-04-04T14:57:42.851Z</time></trkpt><trkpt lat="44.929615" lon="10.6423833"><ele>20.0</ele><time>2026-04-04T14:57:43.851Z</time></trkpt><trkpt lat="44.929635" lon="10.6422867"><ele>20.5</ele><time>2026-04-04T14:57:44.851Z</time></trkpt><trkpt lat="44.9296467" lon="10.6421983"><ele>21.0</ele><time>2026-04-04T14:57:45.851Z</time></trkpt><trkpt lat="44.9296567" lon="10.6420383"><ele>21.5</ele><time>2026-04-04T14:57:47.85Z</time></trkpt><trkpt lat="44.929675" lon="10.6418833"><ele>22.0</ele><time>2026-04-04T14:57:49.851Z</time></trkpt><trkpt lat="44.9296833" lon="10.641795"><ele>22.5</ele><time>2026-04-04T14:57:50.851Z</time></trkpt><trkpt lat="44.9296917" lon="10.6416933"><ele>23.0</ele><time>2026-04-04T14:57:51.851Z</time></trkpt><trkpt lat="44.9296967" lon="10.6415733"><ele>23.2</ele><time>2026-04-04T14:57:52.851Z</time></trkpt><trkpt lat="44.9297017" lon="10.64142"><ele>23.4</ele><time>2026-04-04T14:57:53.851Z</time></trkpt><trkpt lat="44.9297033" lon="10.641265"><ele>23.599999999999998</ele><time>2026-04-04T14:57:54.851Z</time></trkpt><trkpt lat="44.9297033" lon="10.641115"><ele>23.799999999999997</ele><time>2026-04-04T14:57:55.85Z</time></trkpt><trkpt lat="44.9297067" lon="10.640975"><ele>24.0</ele><time>2026-04-04T14:57:56.85Z</time></trkpt><trkpt lat="44.9297033" lon="10.6408567"><ele>24.2</ele><time>2026-04-04T14:57:57.85Z</time></trkpt><trkpt lat="44.92969" lon="10.6406983"><ele>24.4</ele><time>2026-04-04T14:57:59.851Z</time></trkpt><trkpt lat="44.9296767" lon="10.6405183"><ele>24.6</ele><time>2026-04-04T14:58:01.85Z</time></trkpt><trkpt lat="44.9296667" lon="10.6404117"><ele>24.8</ele><time>2026-04-04T14:58:02.85Z</time></trkpt><trkpt lat="44.9296533" lon="10.640295"><ele>25.0</ele><time>2026-04-04T14:58:03.85Z</time></trkpt><trkpt lat="44.9296383" lon="10.6401717"><ele>25.6</ele><time>2026-04-04T14:58:04.851Z</time></trkpt><trkpt lat="44.929625" lon="10.6400417"><ele>26.2</ele><time>2026-04-04T14:58:05.851Z</time></trkpt><trkpt lat="44.9296117" lon="10.639905"><ele>26.799999999999997</ele><time>2026-04-04T14:58:06.851Z</time></trkpt><trkpt lat="44.9295967" lon="10.6397667"><ele>27.4</ele><time>2026-04-04T14:58:07.851Z</time></trkpt><trkpt lat="44.9295867" lon="10.6396267"><ele>28.0</ele><time>2026-04-04T14:58:08.851Z</time></trkpt><trkpt lat="44.929575" lon="10.63948"><ele>27.799999999999997</ele><time>2026-04-04T14:58:09.851Z</time></trkpt><trkpt lat="44.9295583" lon="10.6393317"><ele>27.599999999999998</ele><time>2026-04-04T14:58:10.851Z</time></trkpt><trkpt lat="44.9295433" lon="10.6392033"><ele>27.400000000000002</ele><time>2026-04-04T14:58:11.851Z</time></trkpt><trkpt lat="44.92953" lon="10.63908"><ele>27.200000000000003</ele><time>2026-04-04T14:58:12.851Z</time></trkpt><trkpt lat="44.92952" lon="10.6389633"><ele>27.0</ele><time>2026-04-04T14:58:13.85Z</time></trkpt><trkpt lat="44.9295067" lon="10.6388483"><ele>27.0</ele><time>2026-04-04T14:58:14.851Z</time></trkpt><trkpt lat="44.9294967" lon="10.6387417"><ele>27.0</ele><time>2026-04-04T14:58:15.851Z</time></trkpt><trkpt lat="44.9294933" lon="10.6386433"><ele>27.0</ele><time>2026-04-04T14:58:16.851Z</time></trkpt><trkpt lat="44.929495" lon="10.6385233"><ele>27.0</ele><time>2026-04-04T14:58:18.851Z</time></trkpt><trkpt lat="44.9295217" lon="10.6384133"><ele>27.0</ele><time>2026-04-04T14:58:21.851Z</time></trkpt><trkpt lat="44.92956" lon="10.6383083"><ele>27.0</ele><time>2026-04-04T14:58:23.851Z</time></trkpt><trkpt lat="44.9296317" lon="10.6381567"><ele>26.714285714285715</ele><time>2026-04-04T14:58:25.851Z</time></trkpt><trkpt lat="44.9296733" lon="10.6380817"><ele>26.428571428571427</ele><time>2026-04-04T14:58:26.851Z</time></trkpt><trkpt lat="44.929725" lon="10.638"><ele>26.142857142857146</ele><time>2026-04-04T14:58:27.851Z</time></trkpt><trkpt lat="44.92977" lon="10.6379233"><ele>25.857142857142858</ele><time>2026-04-04T14:58:28.851Z</time></trkpt><trkpt lat="44.9298167" lon="10.6378433"><ele>25.571428571428573</ele><time>2026-04-04T14:58:29.851Z</time></trkpt><trkpt lat="44.929865" lon="10.6377617"><ele>25.28571428571429</ele><time>2026-04-04T14:58:30.851Z</time></trkpt><trkpt lat="44.92991" lon="10.6376767"><ele>25.0</ele><time>2026-04-04T14:58:31.851Z</time></trkpt><trkpt lat="44.92996" lon="10.6375967"><ele>25.000000000000004</ele><time>2026-04-04T14:58:32.85Z</time></trkpt><trkpt lat="44.930015" lon="10.637515"><ele>25.0</ele><time>2026-04-04T14:58:33.85Z</time></trkpt><trkpt lat="44.9300683" lon="10.6374317"><ele>25.0</ele><time>2026-04-04T14:58:34.85Z</time></trkpt><trkpt lat="44.9301233" lon="10.6373517"><ele>25.0</ele><time>2026-04-04T14:58:35.85Z</time></trkpt><trkpt lat="44.9301783" lon="10.6372683"><ele>25.000000000000004</ele><time>2026-04-04T14:58:36.851Z</time></trkpt><trkpt lat="44.930235" lon="10.6371883"><ele>25.0</ele><time>2026-04-04T14:58:37.85Z</time></trkpt><trkpt lat="44.93029" lon="10.6371067"><ele>25.166666666666668</ele><time>2026-04-04T14:58:38.851Z</time></trkpt><trkpt lat="44.930345" lon="10.6370183"><ele>25.333333333333336</ele><time>2026-04-04T14:58:39.85Z</time></trkpt><trkpt lat="44.9304017" lon="10.6369267"><ele>25.5</ele><time>2026-04-04T14:58:40.85Z</time></trkpt><trkpt lat="44.9304633" lon="10.6368417"><ele>25.666666666666664</ele><time>2026-04-04T14:58:41.851Z</time></trkpt><trkpt lat="44.9305217" lon="10.6367683"><ele>25.833333333333332</ele><time>2026-04-04T14:58:42.85Z</time></trkpt><trkpt lat="44.9305683" lon="10.6366983"><ele>26.0</ele><time>2026-04-04T14:58:43.85Z</time></trkpt><trkpt lat="44.9306467" lon="10.6366"><ele>25.833333333333332</ele><time>2026-04-04T14:58:45.85Z</time></trkpt><trkpt lat="44.9306967" lon="10.6365217"><ele>25.666666666666664</ele><time>2026-04-04T14:58:47.85Z</time></trkpt><trkpt lat="44.9307567" lon="10.6364583"><ele>25.5</ele><time>2026-04-04T14:58:50.851Z</time></trkpt><trkpt lat="44.930805" lon="10.636395"><ele>25.333333333333336</ele><time>2026-04-04T14:58:54.851Z</time></trkpt><trkpt lat="44.9308467" lon="10.63631"><ele>25.166666666666668</ele><time>2026-04-04T14:58:57.85Z</time></trkpt><trkpt lat="44.93088" lon="10.636195"><ele>25.0</ele><time>2026-04-04T14:59:00.851Z</time></trkpt><trkpt lat="44.930915" lon="10.63607"><ele>25.000000000000004</ele><time>2026-04-04T14:59:03.85Z</time></trkpt><trkpt lat="44.93096" lon="10.635995"><ele>25.0</ele><time>2026-04-04T14:59:05.851Z</time></trkpt><trkpt lat="44.93101" lon="10.6359183"><ele>25.0</ele><time>2026-04-04T14:59:07.851Z</time></trkpt><trkpt lat="44.9310633" lon="10.6358267"><ele>25.0</ele><time>2026-04-04T14:59:09.85Z</time></trkpt><trkpt lat="44.9311017" lon="10.63572"><ele>25.000000000000004</ele><time>2026-04-04T14:59:11.851Z</time></trkpt><trkpt lat="44.9311217" lon="10.6356233"><ele>25.0</ele><time>2026-04-04T14:59:13.85Z</time></trkpt><trkpt lat="44.9311533" lon="10.635505"><ele>25.0</ele><time>2026-04-04T14:59:16.851Z</time></trkpt><trkpt lat="44.9311917" lon="10.6354"><ele>25.0</ele><time>2026-04-04T14:59:19.851Z</time></trkpt><trkpt lat="44.931255" lon="10.6353017"><ele>21.0</ele><time>2026-04-04T14:59:22.851Z</time></trkpt><trkpt lat="44.9312967" lon="10.635205"><ele>21.0</ele><time>2026-04-04T14:59:25.851Z</time></trkpt><trkpt lat="44.9313117" lon="10.635095"><ele>21.0</ele><time>2026-04-04T14:59:29.851Z</time></trkpt></trkseg></trk></gpx>